<?xml version="1.0" encoding="UTF-8" standalone="no" ?>
<gpx xmlns="http://www.topografix.com/GPX/1/1" xmlns:xsi="http://www.w3.org/2001/XMLSchema-instance" xsi:schemaLocation="http://www.topografix.com/GPX/1/1 http://www.topografix.com/GPX/1/1/gpx.xsd" version="1.1" creator="VisuGPX - https://www.visugpx.com">
  <metadata>
    <name>Parcours par Bernard</name>
  </metadata>
  <trk>
    <name><![CDATA[Parcours par Bernard]]></name>
    <extensions>
      <line xmlns="http://www.topografix.com/GPX/gpx_style/0/2">
        <color>0000FF</color>
        <width>4</width>
      </line>
    </extensions>
    <trkseg>
      <trkpt lat="47.58167" lon="-3.05755">
        <ele>13.60000038147</ele>
        <time>2021-09-23T07:41:10.000Z</time>
      </trkpt>
      <trkpt lat="47.5818" lon="-3.05757">
        <ele>13</ele>
        <time>2021-09-23T07:41:10.004Z</time>
      </trkpt>
      <trkpt lat="47.58192" lon="-3.05758">
        <ele>12.19999980927</ele>
        <time>2021-09-23T07:41:10.011Z</time>
      </trkpt>
      <trkpt lat="47.58201" lon="-3.05756">
        <ele>11.60000038147</ele>
        <time>2021-09-23T07:41:10.021Z</time>
      </trkpt>
      <trkpt lat="47.58216" lon="-3.05742">
        <ele>10.39999961853</ele>
        <time>2021-09-23T07:41:10.036Z</time>
      </trkpt>
      <trkpt lat="47.58223" lon="-3.05733">
        <ele>9.80000019073</ele>
        <time>2021-09-23T07:41:10.054Z</time>
      </trkpt>
      <trkpt lat="47.5823" lon="-3.05723">
        <ele>9.19999980927</ele>
        <time>2021-09-23T07:41:10.075Z</time>
      </trkpt>
      <trkpt lat="47.58237" lon="-3.05714">
        <ele>8.80000019073</ele>
        <time>2021-09-23T07:41:10.099Z</time>
      </trkpt>
      <trkpt lat="47.58244" lon="-3.05703">
        <ele>8</ele>
        <time>2021-09-23T07:41:10.126Z</time>
      </trkpt>
      <trkpt lat="47.58254" lon="-3.05697">
        <ele>7.59999990463</ele>
        <time>2021-09-23T07:41:10.156Z</time>
      </trkpt>
      <trkpt lat="47.58264" lon="-3.05693">
        <ele>7.80000019073</ele>
        <time>2021-09-23T07:41:10.189Z</time>
      </trkpt>
      <trkpt lat="47.58292" lon="-3.05685">
        <ele>8</ele>
        <time>2021-09-23T07:41:10.231Z</time>
      </trkpt>
      <trkpt lat="47.5831" lon="-3.05681">
        <ele>7.80000019073</ele>
        <time>2021-09-23T07:41:10.278Z</time>
      </trkpt>
      <trkpt lat="47.58316" lon="-3.05681">
        <ele>7.40000009537</ele>
        <time>2021-09-23T07:41:10.327Z</time>
      </trkpt>
      <trkpt lat="47.58338" lon="-3.0568">
        <ele>6</ele>
        <time>2021-09-23T07:41:10.382Z</time>
      </trkpt>
      <trkpt lat="47.58349" lon="-3.05679">
        <ele>5.59999990463</ele>
        <time>2021-09-23T07:41:10.441Z</time>
      </trkpt>
      <trkpt lat="47.58364" lon="-3.05672">
        <ele>5</ele>
        <time>2021-09-23T07:41:10.505Z</time>
      </trkpt>
      <trkpt lat="47.58397" lon="-3.05666">
        <ele>4.40000009537</ele>
        <time>2021-09-23T07:41:10.578Z</time>
      </trkpt>
      <trkpt lat="47.5841" lon="-3.05655">
        <ele>4</ele>
        <time>2021-09-23T07:41:10.656Z</time>
      </trkpt>
      <trkpt lat="47.58415" lon="-3.05651">
        <ele>4</ele>
        <time>2021-09-23T07:41:10.736Z</time>
      </trkpt>
      <trkpt lat="47.58419" lon="-3.05647">
        <ele>4</ele>
        <time>2021-09-23T07:41:10.817Z</time>
      </trkpt>
      <trkpt lat="47.58435" lon="-3.05626">
        <ele>4</ele>
        <time>2021-09-23T07:41:10.904Z</time>
      </trkpt>
      <trkpt lat="47.58442" lon="-3.05617">
        <ele>3.59999990463</ele>
        <time>2021-09-23T07:41:10.994Z</time>
      </trkpt>
      <trkpt lat="47.58451" lon="-3.05605">
        <ele>3.40000009537</ele>
        <time>2021-09-23T07:41:11.088Z</time>
      </trkpt>
      <trkpt lat="47.5847" lon="-3.05588">
        <ele>3.79999995232</ele>
        <time>2021-09-23T07:41:11.188Z</time>
      </trkpt>
      <trkpt lat="47.58495" lon="-3.05579">
        <ele>4</ele>
        <time>2021-09-23T07:41:11.296Z</time>
      </trkpt>
      <trkpt lat="47.58524" lon="-3.05581">
        <ele>4.40000009537</ele>
        <time>2021-09-23T07:41:11.413Z</time>
      </trkpt>
      <trkpt lat="47.5854" lon="-3.05588">
        <ele>4.59999990463</ele>
        <time>2021-09-23T07:41:11.535Z</time>
      </trkpt>
      <trkpt lat="47.5855" lon="-3.05614">
        <ele>4.19999980927</ele>
        <time>2021-09-23T07:41:11.663Z</time>
      </trkpt>
      <trkpt lat="47.58555" lon="-3.0565">
        <ele>4.19999980927</ele>
        <time>2021-09-23T07:41:11.798Z</time>
      </trkpt>
      <trkpt lat="47.5856" lon="-3.05678">
        <ele>5.80000019073</ele>
        <time>2021-09-23T07:41:11.939Z</time>
      </trkpt>
      <trkpt lat="47.58563" lon="-3.05703">
        <ele>6</ele>
        <time>2021-09-23T07:41:12.085Z</time>
      </trkpt>
      <trkpt lat="47.58562" lon="-3.05724">
        <ele>6.59999990463</ele>
        <time>2021-09-23T07:41:12.235Z</time>
      </trkpt>
      <trkpt lat="47.58554" lon="-3.05748">
        <ele>7.40000009537</ele>
        <time>2021-09-23T07:41:12.391Z</time>
      </trkpt>
      <trkpt lat="47.58549" lon="-3.05771">
        <ele>8.19999980927</ele>
        <time>2021-09-23T07:41:12.552Z</time>
      </trkpt>
      <trkpt lat="47.58552" lon="-3.05796">
        <ele>8.39999961853</ele>
        <time>2021-09-23T07:41:12.718Z</time>
      </trkpt>
      <trkpt lat="47.58556" lon="-3.05827">
        <ele>8.39999961853</ele>
        <time>2021-09-23T07:41:12.890Z</time>
      </trkpt>
      <trkpt lat="47.58554" lon="-3.05863">
        <ele>10</ele>
        <time>2021-09-23T07:41:13.069Z</time>
      </trkpt>
      <trkpt lat="47.58551" lon="-3.05895">
        <ele>11.80000019073</ele>
        <time>2021-09-23T07:41:13.255Z</time>
      </trkpt>
      <trkpt lat="47.58549" lon="-3.0593">
        <ele>13.60000038147</ele>
        <time>2021-09-23T07:41:13.448Z</time>
      </trkpt>
      <trkpt lat="47.58558" lon="-3.05943">
        <ele>13.39999961853</ele>
        <time>2021-09-23T07:41:13.645Z</time>
      </trkpt>
      <trkpt lat="47.58568" lon="-3.05942">
        <ele>13</ele>
        <time>2021-09-23T07:41:13.845Z</time>
      </trkpt>
      <trkpt lat="47.58596" lon="-3.05939">
        <ele>11.80000019073</ele>
        <time>2021-09-23T07:41:14.053Z</time>
      </trkpt>
      <trkpt lat="47.58622" lon="-3.05943">
        <ele>11</ele>
        <time>2021-09-23T07:41:14.269Z</time>
      </trkpt>
      <trkpt lat="47.5865" lon="-3.05946">
        <ele>10.60000038147</ele>
        <time>2021-09-23T07:41:14.493Z</time>
      </trkpt>
      <trkpt lat="47.58667" lon="-3.05943">
        <ele>11</ele>
        <time>2021-09-23T07:41:14.722Z</time>
      </trkpt>
      <trkpt lat="47.58679" lon="-3.05946">
        <ele>11</ele>
        <time>2021-09-23T07:41:14.955Z</time>
      </trkpt>
      <trkpt lat="47.58704" lon="-3.05932">
        <ele>10.80000019073</ele>
        <time>2021-09-23T07:41:15.196Z</time>
      </trkpt>
      <trkpt lat="47.58725" lon="-3.05944">
        <ele>10</ele>
        <time>2021-09-23T07:41:15.444Z</time>
      </trkpt>
      <trkpt lat="47.58747" lon="-3.05938">
        <ele>10.80000019073</ele>
        <time>2021-09-23T07:41:15.698Z</time>
      </trkpt>
      <trkpt lat="47.58751" lon="-3.05938">
        <ele>10.80000019073</ele>
        <time>2021-09-23T07:41:15.953Z</time>
      </trkpt>
      <trkpt lat="47.58756" lon="-3.05939">
        <ele>10.60000038147</ele>
        <time>2021-09-23T07:41:16.210Z</time>
      </trkpt>
      <trkpt lat="47.58759" lon="-3.05939">
        <ele>10.60000038147</ele>
        <time>2021-09-23T07:41:16.468Z</time>
      </trkpt>
      <trkpt lat="47.58767" lon="-3.05966">
        <ele>10</ele>
        <time>2021-09-23T07:41:16.732Z</time>
      </trkpt>
      <trkpt lat="47.58767" lon="-3.05974">
        <ele>10</ele>
        <time>2021-09-23T07:41:16.997Z</time>
      </trkpt>
      <trkpt lat="47.58767" lon="-3.05978">
        <ele>9.80000019073</ele>
        <time>2021-09-23T07:41:17.263Z</time>
      </trkpt>
      <trkpt lat="47.58768" lon="-3.06008">
        <ele>9.39999961853</ele>
        <time>2021-09-23T07:41:17.535Z</time>
      </trkpt>
      <trkpt lat="47.58769" lon="-3.06043">
        <ele>10</ele>
        <time>2021-09-23T07:41:17.814Z</time>
      </trkpt>
      <trkpt lat="47.58775" lon="-3.06077">
        <ele>12</ele>
        <time>2021-09-23T07:41:18.100Z</time>
      </trkpt>
      <trkpt lat="47.58779" lon="-3.06094">
        <ele>12.80000019073</ele>
        <time>2021-09-23T07:41:18.390Z</time>
      </trkpt>
      <trkpt lat="47.58781" lon="-3.06101">
        <ele>13.19999980927</ele>
        <time>2021-09-23T07:41:18.682Z</time>
      </trkpt>
      <trkpt lat="47.58784" lon="-3.06112">
        <ele>14.19999980927</ele>
        <time>2021-09-23T07:41:18.976Z</time>
      </trkpt>
      <trkpt lat="47.5879" lon="-3.06136">
        <ele>15.39999961853</ele>
        <time>2021-09-23T07:41:19.275Z</time>
      </trkpt>
      <trkpt lat="47.58796" lon="-3.06157">
        <ele>15.60000038147</ele>
        <time>2021-09-23T07:41:19.579Z</time>
      </trkpt>
      <trkpt lat="47.58797" lon="-3.06161">
        <ele>15.60000038147</ele>
        <time>2021-09-23T07:41:19.884Z</time>
      </trkpt>
      <trkpt lat="47.58799" lon="-3.06171">
        <ele>15.60000038147</ele>
        <time>2021-09-23T07:41:20.191Z</time>
      </trkpt>
      <trkpt lat="47.588" lon="-3.0619">
        <ele>15.19999980927</ele>
        <time>2021-09-23T07:41:20.502Z</time>
      </trkpt>
      <trkpt lat="47.58803" lon="-3.06223">
        <ele>15.19999980927</ele>
        <time>2021-09-23T07:41:20.819Z</time>
      </trkpt>
      <trkpt lat="47.58812" lon="-3.06262">
        <ele>15.60000038147</ele>
        <time>2021-09-23T07:41:21.145Z</time>
      </trkpt>
      <trkpt lat="47.58823" lon="-3.06303">
        <ele>15.39999961853</ele>
        <time>2021-09-23T07:41:21.479Z</time>
      </trkpt>
      <trkpt lat="47.58826" lon="-3.06336">
        <ele>15.80000019073</ele>
        <time>2021-09-23T07:41:21.820Z</time>
      </trkpt>
      <trkpt lat="47.58823" lon="-3.06373">
        <ele>16.39999961853</ele>
        <time>2021-09-23T07:41:22.169Z</time>
      </trkpt>
      <trkpt lat="47.58826" lon="-3.06399">
        <ele>16.79999923706</ele>
        <time>2021-09-23T07:41:22.523Z</time>
      </trkpt>
      <trkpt lat="47.58833" lon="-3.0643">
        <ele>16</ele>
        <time>2021-09-23T07:41:22.884Z</time>
      </trkpt>
      <trkpt lat="47.58835" lon="-3.06441">
        <ele>15.39999961853</ele>
        <time>2021-09-23T07:41:23.247Z</time>
      </trkpt>
      <trkpt lat="47.58835" lon="-3.06455">
        <ele>14.39999961853</ele>
        <time>2021-09-23T07:41:23.613Z</time>
      </trkpt>
      <trkpt lat="47.58832" lon="-3.06502">
        <ele>12.39999961853</ele>
        <time>2021-09-23T07:41:23.988Z</time>
      </trkpt>
      <trkpt lat="47.5883" lon="-3.06529">
        <ele>11.60000038147</ele>
        <time>2021-09-23T07:41:24.369Z</time>
      </trkpt>
      <trkpt lat="47.58825" lon="-3.06557">
        <ele>10.60000038147</ele>
        <time>2021-09-23T07:41:24.756Z</time>
      </trkpt>
      <trkpt lat="47.58821" lon="-3.0658">
        <ele>10.80000019073</ele>
        <time>2021-09-23T07:41:25.147Z</time>
      </trkpt>
      <trkpt lat="47.58818" lon="-3.06593">
        <ele>11</ele>
        <time>2021-09-23T07:41:25.541Z</time>
      </trkpt>
      <trkpt lat="47.58815" lon="-3.06623">
        <ele>11</ele>
        <time>2021-09-23T07:41:25.941Z</time>
      </trkpt>
      <trkpt lat="47.58816" lon="-3.06632">
        <ele>11</ele>
        <time>2021-09-23T07:41:26.343Z</time>
      </trkpt>
      <trkpt lat="47.58821" lon="-3.06683">
        <ele>10</ele>
        <time>2021-09-23T07:41:26.755Z</time>
      </trkpt>
      <trkpt lat="47.58822" lon="-3.06714">
        <ele>7.80000019073</ele>
        <time>2021-09-23T07:41:27.174Z</time>
      </trkpt>
      <trkpt lat="47.58822" lon="-3.06732">
        <ele>7.19999980927</ele>
        <time>2021-09-23T07:41:27.596Z</time>
      </trkpt>
      <trkpt lat="47.58822" lon="-3.06749">
        <ele>7</ele>
        <time>2021-09-23T07:41:28.022Z</time>
      </trkpt>
      <trkpt lat="47.58822" lon="-3.06763">
        <ele>6.59999990463</ele>
        <time>2021-09-23T07:41:28.451Z</time>
      </trkpt>
      <trkpt lat="47.58822" lon="-3.0677">
        <ele>6.59999990463</ele>
        <time>2021-09-23T07:41:28.881Z</time>
      </trkpt>
      <trkpt lat="47.58821" lon="-3.06782">
        <ele>6.59999990463</ele>
        <time>2021-09-23T07:41:29.313Z</time>
      </trkpt>
      <trkpt lat="47.58821" lon="-3.06788">
        <ele>6.80000019073</ele>
        <time>2021-09-23T07:41:29.747Z</time>
      </trkpt>
      <trkpt lat="47.58821" lon="-3.06812">
        <ele>8.19999980927</ele>
        <time>2021-09-23T07:41:30.186Z</time>
      </trkpt>
      <trkpt lat="47.58821" lon="-3.0684">
        <ele>9.19999980927</ele>
        <time>2021-09-23T07:41:30.630Z</time>
      </trkpt>
      <trkpt lat="47.5882" lon="-3.06874">
        <ele>11</ele>
        <time>2021-09-23T07:41:31.081Z</time>
      </trkpt>
      <trkpt lat="47.58818" lon="-3.06912">
        <ele>12.60000038147</ele>
        <time>2021-09-23T07:41:31.540Z</time>
      </trkpt>
      <trkpt lat="47.58817" lon="-3.06937">
        <ele>13.80000019073</ele>
        <time>2021-09-23T07:41:32.004Z</time>
      </trkpt>
      <trkpt lat="47.58816" lon="-3.06969">
        <ele>14.39999961853</ele>
        <time>2021-09-23T07:41:32.474Z</time>
      </trkpt>
      <trkpt lat="47.58835" lon="-3.06976">
        <ele>13.60000038147</ele>
        <time>2021-09-23T07:41:32.950Z</time>
      </trkpt>
      <trkpt lat="47.58842" lon="-3.06978">
        <ele>13.39999961853</ele>
        <time>2021-09-23T07:41:33.428Z</time>
      </trkpt>
      <trkpt lat="47.58854" lon="-3.06983">
        <ele>13.19999980927</ele>
        <time>2021-09-23T07:41:33.910Z</time>
      </trkpt>
      <trkpt lat="47.58876" lon="-3.06999">
        <ele>13.39999961853</ele>
        <time>2021-09-23T07:41:34.399Z</time>
      </trkpt>
      <trkpt lat="47.589" lon="-3.07032">
        <ele>14.60000038147</ele>
        <time>2021-09-23T07:41:34.898Z</time>
      </trkpt>
      <trkpt lat="47.58913" lon="-3.07059">
        <ele>15.60000038147</ele>
        <time>2021-09-23T07:41:35.404Z</time>
      </trkpt>
      <trkpt lat="47.58922" lon="-3.07071">
        <ele>15.80000019073</ele>
        <time>2021-09-23T07:41:35.913Z</time>
      </trkpt>
      <trkpt lat="47.58925" lon="-3.07074">
        <ele>15.80000019073</ele>
        <time>2021-09-23T07:41:36.423Z</time>
      </trkpt>
      <trkpt lat="47.58928" lon="-3.07077">
        <ele>15.80000019073</ele>
        <time>2021-09-23T07:41:36.934Z</time>
      </trkpt>
      <trkpt lat="47.58936" lon="-3.07073">
        <ele>15.39999961853</ele>
        <time>2021-09-23T07:41:37.448Z</time>
      </trkpt>
      <trkpt lat="47.58941" lon="-3.07069">
        <ele>15.19999980927</ele>
        <time>2021-09-23T07:41:37.964Z</time>
      </trkpt>
      <trkpt lat="47.58947" lon="-3.07068">
        <ele>15</ele>
        <time>2021-09-23T07:41:38.481Z</time>
      </trkpt>
      <trkpt lat="47.58956" lon="-3.07069">
        <ele>14.60000038147</ele>
        <time>2021-09-23T07:41:39.001Z</time>
      </trkpt>
      <trkpt lat="47.58968" lon="-3.07071">
        <ele>14.19999980927</ele>
        <time>2021-09-23T07:41:39.525Z</time>
      </trkpt>
      <trkpt lat="47.58979" lon="-3.07072">
        <ele>13.80000019073</ele>
        <time>2021-09-23T07:41:40.052Z</time>
      </trkpt>
      <trkpt lat="47.58999" lon="-3.07082">
        <ele>13.19999980927</ele>
        <time>2021-09-23T07:41:40.585Z</time>
      </trkpt>
      <trkpt lat="47.59023" lon="-3.07082">
        <ele>12.19999980927</ele>
        <time>2021-09-23T07:41:41.125Z</time>
      </trkpt>
      <trkpt lat="47.59031" lon="-3.07079">
        <ele>12</ele>
        <time>2021-09-23T07:41:41.668Z</time>
      </trkpt>
      <trkpt lat="47.59037" lon="-3.07077">
        <ele>12</ele>
        <time>2021-09-23T07:41:42.213Z</time>
      </trkpt>
      <trkpt lat="47.5905" lon="-3.07078">
        <ele>12</ele>
        <time>2021-09-23T07:41:42.762Z</time>
      </trkpt>
      <trkpt lat="47.59053" lon="-3.0708">
        <ele>12</ele>
        <time>2021-09-23T07:41:43.312Z</time>
      </trkpt>
      <trkpt lat="47.59062" lon="-3.07087">
        <ele>11.80000019073</ele>
        <time>2021-09-23T07:41:43.865Z</time>
      </trkpt>
      <trkpt lat="47.59079" lon="-3.071">
        <ele>12</ele>
        <time>2021-09-23T07:41:44.423Z</time>
      </trkpt>
      <trkpt lat="47.59098" lon="-3.07115">
        <ele>12.19999980927</ele>
        <time>2021-09-23T07:41:44.988Z</time>
      </trkpt>
      <trkpt lat="47.59111" lon="-3.07125">
        <ele>12</ele>
        <time>2021-09-23T07:41:45.557Z</time>
      </trkpt>
      <trkpt lat="47.59125" lon="-3.07139">
        <ele>12.80000019073</ele>
        <time>2021-09-23T07:41:46.131Z</time>
      </trkpt>
      <trkpt lat="47.59133" lon="-3.07149">
        <ele>13.60000038147</ele>
        <time>2021-09-23T07:41:46.708Z</time>
      </trkpt>
      <trkpt lat="47.59137" lon="-3.07154">
        <ele>14</ele>
        <time>2021-09-23T07:41:47.287Z</time>
      </trkpt>
      <trkpt lat="47.59142" lon="-3.07159">
        <ele>14</ele>
        <time>2021-09-23T07:41:47.868Z</time>
      </trkpt>
      <trkpt lat="47.59157" lon="-3.07176">
        <ele>14</ele>
        <time>2021-09-23T07:41:48.454Z</time>
      </trkpt>
      <trkpt lat="47.59165" lon="-3.07188">
        <ele>14</ele>
        <time>2021-09-23T07:41:49.044Z</time>
      </trkpt>
      <trkpt lat="47.59167" lon="-3.07191">
        <ele>14</ele>
        <time>2021-09-23T07:41:49.635Z</time>
      </trkpt>
      <trkpt lat="47.59176" lon="-3.07205">
        <ele>14</ele>
        <time>2021-09-23T07:41:50.229Z</time>
      </trkpt>
      <trkpt lat="47.59185" lon="-3.07218">
        <ele>14</ele>
        <time>2021-09-23T07:41:50.827Z</time>
      </trkpt>
      <trkpt lat="47.59188" lon="-3.07221">
        <ele>14</ele>
        <time>2021-09-23T07:41:51.426Z</time>
      </trkpt>
      <trkpt lat="47.59198" lon="-3.0723">
        <ele>14.80000019073</ele>
        <time>2021-09-23T07:41:52.029Z</time>
      </trkpt>
      <trkpt lat="47.59204" lon="-3.07235">
        <ele>14.80000019073</ele>
        <time>2021-09-23T07:41:52.634Z</time>
      </trkpt>
      <trkpt lat="47.59212" lon="-3.07243">
        <ele>15.19999980927</ele>
        <time>2021-09-23T07:41:53.242Z</time>
      </trkpt>
      <trkpt lat="47.59224" lon="-3.0725">
        <ele>15.39999961853</ele>
        <time>2021-09-23T07:41:53.853Z</time>
      </trkpt>
      <trkpt lat="47.5924" lon="-3.07255">
        <ele>16.20000076294</ele>
        <time>2021-09-23T07:41:54.469Z</time>
      </trkpt>
      <trkpt lat="47.59251" lon="-3.07258">
        <ele>16.60000038147</ele>
        <time>2021-09-23T07:41:55.089Z</time>
      </trkpt>
      <trkpt lat="47.59263" lon="-3.07262">
        <ele>17</ele>
        <time>2021-09-23T07:41:55.712Z</time>
      </trkpt>
      <trkpt lat="47.59271" lon="-3.07264">
        <ele>17.60000038147</ele>
        <time>2021-09-23T07:41:56.338Z</time>
      </trkpt>
      <trkpt lat="47.59289" lon="-3.0727">
        <ele>18.20000076294</ele>
        <time>2021-09-23T07:41:56.969Z</time>
      </trkpt>
      <trkpt lat="47.59307" lon="-3.07281">
        <ele>18.60000038147</ele>
        <time>2021-09-23T07:41:57.606Z</time>
      </trkpt>
      <trkpt lat="47.59325" lon="-3.07296">
        <ele>18.39999961853</ele>
        <time>2021-09-23T07:41:58.249Z</time>
      </trkpt>
      <trkpt lat="47.59335" lon="-3.07307">
        <ele>18</ele>
        <time>2021-09-23T07:41:58.896Z</time>
      </trkpt>
      <trkpt lat="47.59345" lon="-3.07317">
        <ele>17.79999923706</ele>
        <time>2021-09-23T07:41:59.547Z</time>
      </trkpt>
      <trkpt lat="47.59354" lon="-3.07326">
        <ele>17.39999961853</ele>
        <time>2021-09-23T07:42:00.201Z</time>
      </trkpt>
      <trkpt lat="47.59362" lon="-3.07334">
        <ele>17</ele>
        <time>2021-09-23T07:42:00.858Z</time>
      </trkpt>
      <trkpt lat="47.59385" lon="-3.07345">
        <ele>17.20000076294</ele>
        <time>2021-09-23T07:42:01.522Z</time>
      </trkpt>
      <trkpt lat="47.59389" lon="-3.07348">
        <ele>17</ele>
        <time>2021-09-23T07:42:02.187Z</time>
      </trkpt>
      <trkpt lat="47.59401" lon="-3.07355">
        <ele>17.39999961853</ele>
        <time>2021-09-23T07:42:02.856Z</time>
      </trkpt>
      <trkpt lat="47.59404" lon="-3.07357">
        <ele>17.39999961853</ele>
        <time>2021-09-23T07:42:03.526Z</time>
      </trkpt>
      <trkpt lat="47.59411" lon="-3.07361">
        <ele>17.60000038147</ele>
        <time>2021-09-23T07:42:04.198Z</time>
      </trkpt>
      <trkpt lat="47.59423" lon="-3.07384">
        <ele>17.20000076294</ele>
        <time>2021-09-23T07:42:04.876Z</time>
      </trkpt>
      <trkpt lat="47.59435" lon="-3.07408">
        <ele>17</ele>
        <time>2021-09-23T07:42:05.560Z</time>
      </trkpt>
      <trkpt lat="47.59439" lon="-3.07417">
        <ele>16.79999923706</ele>
        <time>2021-09-23T07:42:06.246Z</time>
      </trkpt>
      <trkpt lat="47.59444" lon="-3.07426">
        <ele>16.79999923706</ele>
        <time>2021-09-23T07:42:06.935Z</time>
      </trkpt>
      <trkpt lat="47.59442" lon="-3.07447">
        <ele>17</ele>
        <time>2021-09-23T07:42:07.628Z</time>
      </trkpt>
      <trkpt lat="47.59438" lon="-3.07456">
        <ele>17</ele>
        <time>2021-09-23T07:42:08.323Z</time>
      </trkpt>
      <trkpt lat="47.59437" lon="-3.0747">
        <ele>17</ele>
        <time>2021-09-23T07:42:09.021Z</time>
      </trkpt>
      <trkpt lat="47.59437" lon="-3.07494">
        <ele>17</ele>
        <time>2021-09-23T07:42:09.724Z</time>
      </trkpt>
      <trkpt lat="47.59438" lon="-3.07514">
        <ele>17</ele>
        <time>2021-09-23T07:42:10.431Z</time>
      </trkpt>
      <trkpt lat="47.59438" lon="-3.07512">
        <ele>17</ele>
        <time>2021-09-23T07:42:11.138Z</time>
      </trkpt>
      <trkpt lat="47.59438" lon="-3.07514">
        <ele>17</ele>
        <time>2021-09-23T07:42:11.846Z</time>
      </trkpt>
      <trkpt lat="47.59429" lon="-3.07521">
        <ele>17.20000076294</ele>
        <time>2021-09-23T07:42:12.557Z</time>
      </trkpt>
      <trkpt lat="47.59427" lon="-3.07522">
        <ele>17.20000076294</ele>
        <time>2021-09-23T07:42:13.269Z</time>
      </trkpt>
      <trkpt lat="47.59412" lon="-3.07533">
        <ele>17.60000038147</ele>
        <time>2021-09-23T07:42:13.986Z</time>
      </trkpt>
      <trkpt lat="47.59394" lon="-3.07564">
        <ele>18</ele>
        <time>2021-09-23T07:42:14.711Z</time>
      </trkpt>
      <trkpt lat="47.59384" lon="-3.07607">
        <ele>18.20000076294</ele>
        <time>2021-09-23T07:42:15.445Z</time>
      </trkpt>
      <trkpt lat="47.59372" lon="-3.07652">
        <ele>19.60000038147</ele>
        <time>2021-09-23T07:42:16.189Z</time>
      </trkpt>
      <trkpt lat="47.5936" lon="-3.07705">
        <ele>21.79999923706</ele>
        <time>2021-09-23T07:42:16.944Z</time>
      </trkpt>
      <trkpt lat="47.59349" lon="-3.07751">
        <ele>21</ele>
        <time>2021-09-23T07:42:17.709Z</time>
      </trkpt>
      <trkpt lat="47.5934" lon="-3.07794">
        <ele>19</ele>
        <time>2021-09-23T07:42:18.483Z</time>
      </trkpt>
      <trkpt lat="47.59328" lon="-3.07845">
        <ele>18.60000038147</ele>
        <time>2021-09-23T07:42:19.268Z</time>
      </trkpt>
      <trkpt lat="47.59314" lon="-3.07889">
        <ele>20.20000076294</ele>
        <time>2021-09-23T07:42:20.063Z</time>
      </trkpt>
      <trkpt lat="47.59301" lon="-3.07928">
        <ele>20.20000076294</ele>
        <time>2021-09-23T07:42:20.866Z</time>
      </trkpt>
      <trkpt lat="47.59296" lon="-3.07941">
        <ele>19.60000038147</ele>
        <time>2021-09-23T07:42:21.672Z</time>
      </trkpt>
      <trkpt lat="47.59287" lon="-3.07969">
        <ele>19</ele>
        <time>2021-09-23T07:42:22.485Z</time>
      </trkpt>
      <trkpt lat="47.59282" lon="-3.07984">
        <ele>18.20000076294</ele>
        <time>2021-09-23T07:42:23.301Z</time>
      </trkpt>
      <trkpt lat="47.5927" lon="-3.08028">
        <ele>18</ele>
        <time>2021-09-23T07:42:24.127Z</time>
      </trkpt>
      <trkpt lat="47.59269" lon="-3.08036">
        <ele>18</ele>
        <time>2021-09-23T07:42:24.954Z</time>
      </trkpt>
      <trkpt lat="47.59268" lon="-3.08042">
        <ele>18</ele>
        <time>2021-09-23T07:42:25.782Z</time>
      </trkpt>
      <trkpt lat="47.59276" lon="-3.08055">
        <ele>18.20000076294</ele>
        <time>2021-09-23T07:42:26.614Z</time>
      </trkpt>
      <trkpt lat="47.59286" lon="-3.08059">
        <ele>18</ele>
        <time>2021-09-23T07:42:27.449Z</time>
      </trkpt>
      <trkpt lat="47.593" lon="-3.08065">
        <ele>18</ele>
        <time>2021-09-23T07:42:28.289Z</time>
      </trkpt>
      <trkpt lat="47.59335" lon="-3.0808">
        <ele>16.79999923706</ele>
        <time>2021-09-23T07:42:29.139Z</time>
      </trkpt>
      <trkpt lat="47.59373" lon="-3.08098">
        <ele>17</ele>
        <time>2021-09-23T07:42:30.001Z</time>
      </trkpt>
      <trkpt lat="47.59395" lon="-3.08112">
        <ele>17.60000038147</ele>
        <time>2021-09-23T07:42:30.870Z</time>
      </trkpt>
      <trkpt lat="47.59428" lon="-3.08133">
        <ele>18.60000038147</ele>
        <time>2021-09-23T07:42:31.750Z</time>
      </trkpt>
      <trkpt lat="47.59458" lon="-3.08146">
        <ele>19</ele>
        <time>2021-09-23T07:42:32.640Z</time>
      </trkpt>
      <trkpt lat="47.59478" lon="-3.08147">
        <ele>19.79999923706</ele>
        <time>2021-09-23T07:42:33.535Z</time>
      </trkpt>
      <trkpt lat="47.59503" lon="-3.08149">
        <ele>19</ele>
        <time>2021-09-23T07:42:34.438Z</time>
      </trkpt>
      <trkpt lat="47.59523" lon="-3.08152">
        <ele>19</ele>
        <time>2021-09-23T07:42:35.347Z</time>
      </trkpt>
      <trkpt lat="47.59547" lon="-3.08159">
        <ele>19.20000076294</ele>
        <time>2021-09-23T07:42:36.263Z</time>
      </trkpt>
      <trkpt lat="47.59575" lon="-3.08167">
        <ele>20</ele>
        <time>2021-09-23T07:42:37.188Z</time>
      </trkpt>
      <trkpt lat="47.59594" lon="-3.08173">
        <ele>20.60000038147</ele>
        <time>2021-09-23T07:42:38.118Z</time>
      </trkpt>
      <trkpt lat="47.59624" lon="-3.08182">
        <ele>20.60000038147</ele>
        <time>2021-09-23T07:42:39.058Z</time>
      </trkpt>
      <trkpt lat="47.59659" lon="-3.08192">
        <ele>20</ele>
        <time>2021-09-23T07:42:40.008Z</time>
      </trkpt>
      <trkpt lat="47.59683" lon="-3.08199">
        <ele>19.20000076294</ele>
        <time>2021-09-23T07:42:40.965Z</time>
      </trkpt>
      <trkpt lat="47.59724" lon="-3.08212">
        <ele>19.20000076294</ele>
        <time>2021-09-23T07:42:41.935Z</time>
      </trkpt>
      <trkpt lat="47.59729" lon="-3.08213">
        <ele>19.20000076294</ele>
        <time>2021-09-23T07:42:42.906Z</time>
      </trkpt>
      <trkpt lat="47.59742" lon="-3.08216">
        <ele>20</ele>
        <time>2021-09-23T07:42:43.881Z</time>
      </trkpt>
      <trkpt lat="47.59778" lon="-3.08225">
        <ele>20.60000038147</ele>
        <time>2021-09-23T07:42:44.867Z</time>
      </trkpt>
      <trkpt lat="47.59811" lon="-3.08232">
        <ele>20.79999923706</ele>
        <time>2021-09-23T07:42:45.863Z</time>
      </trkpt>
      <trkpt lat="47.5982" lon="-3.08234">
        <ele>20.79999923706</ele>
        <time>2021-09-23T07:42:46.862Z</time>
      </trkpt>
      <trkpt lat="47.59835" lon="-3.08238">
        <ele>21</ele>
        <time>2021-09-23T07:42:47.865Z</time>
      </trkpt>
      <trkpt lat="47.59864" lon="-3.08244">
        <ele>21</ele>
        <time>2021-09-23T07:42:48.877Z</time>
      </trkpt>
      <trkpt lat="47.59872" lon="-3.08246">
        <ele>20.79999923706</ele>
        <time>2021-09-23T07:42:49.892Z</time>
      </trkpt>
      <trkpt lat="47.59882" lon="-3.08254">
        <ele>20.39999961853</ele>
        <time>2021-09-23T07:42:50.910Z</time>
      </trkpt>
      <trkpt lat="47.59889" lon="-3.08263">
        <ele>20</ele>
        <time>2021-09-23T07:42:51.931Z</time>
      </trkpt>
      <trkpt lat="47.59897" lon="-3.08266">
        <ele>19.79999923706</ele>
        <time>2021-09-23T07:42:52.954Z</time>
      </trkpt>
      <trkpt lat="47.59906" lon="-3.0827">
        <ele>19.39999961853</ele>
        <time>2021-09-23T07:42:53.980Z</time>
      </trkpt>
      <trkpt lat="47.59924" lon="-3.08278">
        <ele>19.20000076294</ele>
        <time>2021-09-23T07:42:55.011Z</time>
      </trkpt>
      <trkpt lat="47.59944" lon="-3.08286">
        <ele>19.20000076294</ele>
        <time>2021-09-23T07:42:56.049Z</time>
      </trkpt>
      <trkpt lat="47.59968" lon="-3.08297">
        <ele>19.79999923706</ele>
        <time>2021-09-23T07:42:57.094Z</time>
      </trkpt>
      <trkpt lat="47.59981" lon="-3.08302">
        <ele>20</ele>
        <time>2021-09-23T07:42:58.143Z</time>
      </trkpt>
      <trkpt lat="47.59996" lon="-3.08309">
        <ele>20</ele>
        <time>2021-09-23T07:42:59.197Z</time>
      </trkpt>
      <trkpt lat="47.60006" lon="-3.08313">
        <ele>20</ele>
        <time>2021-09-23T07:43:00.254Z</time>
      </trkpt>
      <trkpt lat="47.60015" lon="-3.08317">
        <ele>20</ele>
        <time>2021-09-23T07:43:01.314Z</time>
      </trkpt>
      <trkpt lat="47.60042" lon="-3.08328">
        <ele>20</ele>
        <time>2021-09-23T07:43:02.382Z</time>
      </trkpt>
      <trkpt lat="47.60079" lon="-3.0834">
        <ele>20.60000038147</ele>
        <time>2021-09-23T07:43:03.461Z</time>
      </trkpt>
      <trkpt lat="47.60112" lon="-3.08345">
        <ele>20</ele>
        <time>2021-09-23T07:43:04.550Z</time>
      </trkpt>
      <trkpt lat="47.60143" lon="-3.08349">
        <ele>18</ele>
        <time>2021-09-23T07:43:05.649Z</time>
      </trkpt>
      <trkpt lat="47.60168" lon="-3.08352">
        <ele>18.79999923706</ele>
        <time>2021-09-23T07:43:06.755Z</time>
      </trkpt>
      <trkpt lat="47.60187" lon="-3.08365">
        <ele>18.60000038147</ele>
        <time>2021-09-23T07:43:07.867Z</time>
      </trkpt>
      <trkpt lat="47.60202" lon="-3.08378">
        <ele>18.79999923706</ele>
        <time>2021-09-23T07:43:08.985Z</time>
      </trkpt>
      <trkpt lat="47.60222" lon="-3.0839">
        <ele>18</ele>
        <time>2021-09-23T07:43:10.109Z</time>
      </trkpt>
      <trkpt lat="47.60226" lon="-3.08393">
        <ele>18</ele>
        <time>2021-09-23T07:43:11.234Z</time>
      </trkpt>
      <trkpt lat="47.60234" lon="-3.08397">
        <ele>18.39999961853</ele>
        <time>2021-09-23T07:43:12.362Z</time>
      </trkpt>
      <trkpt lat="47.60249" lon="-3.08406">
        <ele>18.79999923706</ele>
        <time>2021-09-23T07:43:13.495Z</time>
      </trkpt>
      <trkpt lat="47.60255" lon="-3.0841">
        <ele>18.79999923706</ele>
        <time>2021-09-23T07:43:14.630Z</time>
      </trkpt>
      <trkpt lat="47.60262" lon="-3.08414">
        <ele>18.60000038147</ele>
        <time>2021-09-23T07:43:15.767Z</time>
      </trkpt>
      <trkpt lat="47.60279" lon="-3.08418">
        <ele>19</ele>
        <time>2021-09-23T07:43:16.909Z</time>
      </trkpt>
      <trkpt lat="47.60294" lon="-3.08421">
        <ele>19.39999961853</ele>
        <time>2021-09-23T07:43:18.056Z</time>
      </trkpt>
      <trkpt lat="47.60302" lon="-3.08423">
        <ele>19.79999923706</ele>
        <time>2021-09-23T07:43:19.205Z</time>
      </trkpt>
      <trkpt lat="47.60304" lon="-3.08424">
        <ele>19.79999923706</ele>
        <time>2021-09-23T07:43:20.355Z</time>
      </trkpt>
      <trkpt lat="47.6031" lon="-3.08425">
        <ele>20</ele>
        <time>2021-09-23T07:43:21.506Z</time>
      </trkpt>
      <trkpt lat="47.60321" lon="-3.08426">
        <ele>20</ele>
        <time>2021-09-23T07:43:22.661Z</time>
      </trkpt>
      <trkpt lat="47.60345" lon="-3.08424">
        <ele>19.39999961853</ele>
        <time>2021-09-23T07:43:23.823Z</time>
      </trkpt>
      <trkpt lat="47.60366" lon="-3.08424">
        <ele>18.60000038147</ele>
        <time>2021-09-23T07:43:24.991Z</time>
      </trkpt>
      <trkpt lat="47.60376" lon="-3.08423">
        <ele>18.20000076294</ele>
        <time>2021-09-23T07:43:26.162Z</time>
      </trkpt>
      <trkpt lat="47.60393" lon="-3.08423">
        <ele>17</ele>
        <time>2021-09-23T07:43:27.338Z</time>
      </trkpt>
      <trkpt lat="47.60406" lon="-3.08423">
        <ele>17</ele>
        <time>2021-09-23T07:43:28.518Z</time>
      </trkpt>
      <trkpt lat="47.60412" lon="-3.08422">
        <ele>17</ele>
        <time>2021-09-23T07:43:29.700Z</time>
      </trkpt>
      <trkpt lat="47.60429" lon="-3.08422">
        <ele>17</ele>
        <time>2021-09-23T07:43:30.887Z</time>
      </trkpt>
      <trkpt lat="47.60456" lon="-3.08425">
        <ele>17</ele>
        <time>2021-09-23T07:43:32.082Z</time>
      </trkpt>
      <trkpt lat="47.60485" lon="-3.08429">
        <ele>17.20000076294</ele>
        <time>2021-09-23T07:43:33.285Z</time>
      </trkpt>
      <trkpt lat="47.60514" lon="-3.08433">
        <ele>18.39999961853</ele>
        <time>2021-09-23T07:43:34.497Z</time>
      </trkpt>
      <trkpt lat="47.60532" lon="-3.08439">
        <ele>19</ele>
        <time>2021-09-23T07:43:35.715Z</time>
      </trkpt>
      <trkpt lat="47.60547" lon="-3.08449">
        <ele>19.39999961853</ele>
        <time>2021-09-23T07:43:36.938Z</time>
      </trkpt>
      <trkpt lat="47.60555" lon="-3.08454">
        <ele>19.20000076294</ele>
        <time>2021-09-23T07:43:38.163Z</time>
      </trkpt>
      <trkpt lat="47.60559" lon="-3.08456">
        <ele>19.20000076294</ele>
        <time>2021-09-23T07:43:39.390Z</time>
      </trkpt>
      <trkpt lat="47.60562" lon="-3.08459">
        <ele>19</ele>
        <time>2021-09-23T07:43:40.618Z</time>
      </trkpt>
      <trkpt lat="47.60569" lon="-3.08463">
        <ele>19</ele>
        <time>2021-09-23T07:43:41.848Z</time>
      </trkpt>
      <trkpt lat="47.60579" lon="-3.0847">
        <ele>18.60000038147</ele>
        <time>2021-09-23T07:43:43.081Z</time>
      </trkpt>
      <trkpt lat="47.60588" lon="-3.0848">
        <ele>18.20000076294</ele>
        <time>2021-09-23T07:43:44.318Z</time>
      </trkpt>
      <trkpt lat="47.60593" lon="-3.08487">
        <ele>18</ele>
        <time>2021-09-23T07:43:45.557Z</time>
      </trkpt>
      <trkpt lat="47.60599" lon="-3.08496">
        <ele>17.79999923706</ele>
        <time>2021-09-23T07:43:46.798Z</time>
      </trkpt>
      <trkpt lat="47.60614" lon="-3.08521">
        <ele>17.79999923706</ele>
        <time>2021-09-23T07:43:48.046Z</time>
      </trkpt>
      <trkpt lat="47.60633" lon="-3.08537">
        <ele>16.60000038147</ele>
        <time>2021-09-23T07:43:49.300Z</time>
      </trkpt>
      <trkpt lat="47.60666" lon="-3.08554">
        <ele>15.39999961853</ele>
        <time>2021-09-23T07:43:50.565Z</time>
      </trkpt>
      <trkpt lat="47.60712" lon="-3.08576">
        <ele>17.60000038147</ele>
        <time>2021-09-23T07:43:51.844Z</time>
      </trkpt>
      <trkpt lat="47.60729" lon="-3.08585">
        <ele>18.20000076294</ele>
        <time>2021-09-23T07:43:53.129Z</time>
      </trkpt>
      <trkpt lat="47.60742" lon="-3.08595">
        <ele>18.20000076294</ele>
        <time>2021-09-23T07:43:54.418Z</time>
      </trkpt>
      <trkpt lat="47.6075" lon="-3.08603">
        <ele>17.79999923706</ele>
        <time>2021-09-23T07:43:55.710Z</time>
      </trkpt>
      <trkpt lat="47.60759" lon="-3.08611">
        <ele>17.60000038147</ele>
        <time>2021-09-23T07:43:57.005Z</time>
      </trkpt>
      <trkpt lat="47.60769" lon="-3.08625">
        <ele>17</ele>
        <time>2021-09-23T07:43:58.304Z</time>
      </trkpt>
      <trkpt lat="47.60774" lon="-3.0863">
        <ele>16.79999923706</ele>
        <time>2021-09-23T07:43:59.605Z</time>
      </trkpt>
      <trkpt lat="47.60777" lon="-3.08635">
        <ele>16.79999923706</ele>
        <time>2021-09-23T07:44:00.907Z</time>
      </trkpt>
      <trkpt lat="47.60788" lon="-3.08649">
        <ele>17.20000076294</ele>
        <time>2021-09-23T07:44:02.214Z</time>
      </trkpt>
      <trkpt lat="47.60798" lon="-3.08662">
        <ele>17.39999961853</ele>
        <time>2021-09-23T07:44:03.525Z</time>
      </trkpt>
      <trkpt lat="47.60801" lon="-3.08666">
        <ele>17.39999961853</ele>
        <time>2021-09-23T07:44:04.837Z</time>
      </trkpt>
      <trkpt lat="47.60809" lon="-3.08675">
        <ele>17.20000076294</ele>
        <time>2021-09-23T07:44:06.152Z</time>
      </trkpt>
      <trkpt lat="47.60811" lon="-3.08679">
        <ele>17.20000076294</ele>
        <time>2021-09-23T07:44:07.468Z</time>
      </trkpt>
      <trkpt lat="47.60818" lon="-3.08688">
        <ele>17.39999961853</ele>
        <time>2021-09-23T07:44:08.786Z</time>
      </trkpt>
      <trkpt lat="47.60824" lon="-3.08695">
        <ele>17.60000038147</ele>
        <time>2021-09-23T07:44:10.107Z</time>
      </trkpt>
      <trkpt lat="47.60835" lon="-3.08704">
        <ele>18</ele>
        <time>2021-09-23T07:44:11.431Z</time>
      </trkpt>
      <trkpt lat="47.60852" lon="-3.08717">
        <ele>17.39999961853</ele>
        <time>2021-09-23T07:44:12.761Z</time>
      </trkpt>
      <trkpt lat="47.6087" lon="-3.0873">
        <ele>17.60000038147</ele>
        <time>2021-09-23T07:44:14.097Z</time>
      </trkpt>
      <trkpt lat="47.60888" lon="-3.08743">
        <ele>18</ele>
        <time>2021-09-23T07:44:15.439Z</time>
      </trkpt>
      <trkpt lat="47.60917" lon="-3.08758">
        <ele>18.60000038147</ele>
        <time>2021-09-23T07:44:16.790Z</time>
      </trkpt>
      <trkpt lat="47.60943" lon="-3.08769">
        <ele>18.20000076294</ele>
        <time>2021-09-23T07:44:18.149Z</time>
      </trkpt>
      <trkpt lat="47.60952" lon="-3.08787">
        <ele>18.20000076294</ele>
        <time>2021-09-23T07:44:19.513Z</time>
      </trkpt>
      <trkpt lat="47.60948" lon="-3.08813">
        <ele>18</ele>
        <time>2021-09-23T07:44:20.882Z</time>
      </trkpt>
      <trkpt lat="47.60944" lon="-3.08849">
        <ele>18</ele>
        <time>2021-09-23T07:44:22.258Z</time>
      </trkpt>
      <trkpt lat="47.60956" lon="-3.0886">
        <ele>17.39999961853</ele>
        <time>2021-09-23T07:44:23.639Z</time>
      </trkpt>
      <trkpt lat="47.6096" lon="-3.0886">
        <ele>17.20000076294</ele>
        <time>2021-09-23T07:44:25.021Z</time>
      </trkpt>
      <trkpt lat="47.6098" lon="-3.08861">
        <ele>17</ele>
        <time>2021-09-23T07:44:26.409Z</time>
      </trkpt>
      <trkpt lat="47.61001" lon="-3.08866">
        <ele>17</ele>
        <time>2021-09-23T07:44:27.803Z</time>
      </trkpt>
      <trkpt lat="47.61016" lon="-3.08872">
        <ele>17</ele>
        <time>2021-09-23T07:44:29.202Z</time>
      </trkpt>
      <trkpt lat="47.61022" lon="-3.08875">
        <ele>17</ele>
        <time>2021-09-23T07:44:30.603Z</time>
      </trkpt>
      <trkpt lat="47.61058" lon="-3.08877">
        <ele>17</ele>
        <time>2021-09-23T07:44:32.014Z</time>
      </trkpt>
      <trkpt lat="47.6106" lon="-3.08876">
        <ele>17</ele>
        <time>2021-09-23T07:44:33.426Z</time>
      </trkpt>
      <trkpt lat="47.61067" lon="-3.08874">
        <ele>17</ele>
        <time>2021-09-23T07:44:34.840Z</time>
      </trkpt>
      <trkpt lat="47.61083" lon="-3.0887">
        <ele>17</ele>
        <time>2021-09-23T07:44:36.259Z</time>
      </trkpt>
      <trkpt lat="47.61094" lon="-3.08869">
        <ele>17</ele>
        <time>2021-09-23T07:44:37.681Z</time>
      </trkpt>
      <trkpt lat="47.6111" lon="-3.08867">
        <ele>17</ele>
        <time>2021-09-23T07:44:39.108Z</time>
      </trkpt>
      <trkpt lat="47.61116" lon="-3.08865">
        <ele>17</ele>
        <time>2021-09-23T07:44:40.537Z</time>
      </trkpt>
      <trkpt lat="47.61123" lon="-3.08863">
        <ele>17</ele>
        <time>2021-09-23T07:44:41.968Z</time>
      </trkpt>
      <trkpt lat="47.6113" lon="-3.08858">
        <ele>17</ele>
        <time>2021-09-23T07:44:43.401Z</time>
      </trkpt>
      <trkpt lat="47.6114" lon="-3.0884">
        <ele>17</ele>
        <time>2021-09-23T07:44:44.839Z</time>
      </trkpt>
      <trkpt lat="47.61141" lon="-3.08835">
        <ele>17</ele>
        <time>2021-09-23T07:44:46.278Z</time>
      </trkpt>
      <trkpt lat="47.61145" lon="-3.0882">
        <ele>17</ele>
        <time>2021-09-23T07:44:47.720Z</time>
      </trkpt>
      <trkpt lat="47.61147" lon="-3.08811">
        <ele>17.39999961853</ele>
        <time>2021-09-23T07:44:49.164Z</time>
      </trkpt>
      <trkpt lat="47.61147" lon="-3.08802">
        <ele>17.79999923706</ele>
        <time>2021-09-23T07:44:50.610Z</time>
      </trkpt>
      <trkpt lat="47.6115" lon="-3.08796">
        <ele>18</ele>
        <time>2021-09-23T07:44:52.058Z</time>
      </trkpt>
      <trkpt lat="47.61151" lon="-3.08791">
        <ele>18</ele>
        <time>2021-09-23T07:44:53.507Z</time>
      </trkpt>
      <trkpt lat="47.61153" lon="-3.08771">
        <ele>18.39999961853</ele>
        <time>2021-09-23T07:44:54.960Z</time>
      </trkpt>
      <trkpt lat="47.61154" lon="-3.08766">
        <ele>18.60000038147</ele>
        <time>2021-09-23T07:44:56.414Z</time>
      </trkpt>
      <trkpt lat="47.61156" lon="-3.08754">
        <ele>18</ele>
        <time>2021-09-23T07:44:57.870Z</time>
      </trkpt>
      <trkpt lat="47.61157" lon="-3.0872">
        <ele>16.79999923706</ele>
        <time>2021-09-23T07:44:59.333Z</time>
      </trkpt>
      <trkpt lat="47.61158" lon="-3.08693">
        <ele>16.39999961853</ele>
        <time>2021-09-23T07:45:00.802Z</time>
      </trkpt>
      <trkpt lat="47.61161" lon="-3.08667">
        <ele>16.79999923706</ele>
        <time>2021-09-23T07:45:02.276Z</time>
      </trkpt>
      <trkpt lat="47.61164" lon="-3.08642">
        <ele>17</ele>
        <time>2021-09-23T07:45:03.755Z</time>
      </trkpt>
      <trkpt lat="47.61168" lon="-3.08619">
        <ele>17</ele>
        <time>2021-09-23T07:45:05.239Z</time>
      </trkpt>
      <trkpt lat="47.61172" lon="-3.08595">
        <ele>17</ele>
        <time>2021-09-23T07:45:06.728Z</time>
      </trkpt>
      <trkpt lat="47.61174" lon="-3.08568">
        <ele>17</ele>
        <time>2021-09-23T07:45:08.222Z</time>
      </trkpt>
      <trkpt lat="47.61179" lon="-3.08538">
        <ele>16.79999923706</ele>
        <time>2021-09-23T07:45:09.722Z</time>
      </trkpt>
      <trkpt lat="47.61179" lon="-3.08538">
        <ele>16.79999923706</ele>
        <time>2021-09-23T07:45:11.223Z</time>
      </trkpt>
      <trkpt lat="47.61183" lon="-3.08538">
        <ele>16.79999923706</ele>
        <time>2021-09-23T07:45:12.725Z</time>
      </trkpt>
      <trkpt lat="47.61199" lon="-3.08538">
        <ele>16.79999923706</ele>
        <time>2021-09-23T07:45:14.232Z</time>
      </trkpt>
      <trkpt lat="47.61221" lon="-3.08538">
        <ele>16.20000076294</ele>
        <time>2021-09-23T07:45:15.745Z</time>
      </trkpt>
      <trkpt lat="47.61252" lon="-3.08538">
        <ele>15.80000019073</ele>
        <time>2021-09-23T07:45:17.268Z</time>
      </trkpt>
      <trkpt lat="47.6129" lon="-3.08535">
        <ele>15.60000038147</ele>
        <time>2021-09-23T07:45:18.802Z</time>
      </trkpt>
      <trkpt lat="47.61337" lon="-3.08531">
        <ele>15.39999961853</ele>
        <time>2021-09-23T07:45:20.350Z</time>
      </trkpt>
      <trkpt lat="47.61368" lon="-3.08528">
        <ele>16</ele>
        <time>2021-09-23T07:45:21.907Z</time>
      </trkpt>
      <trkpt lat="47.61397" lon="-3.08527">
        <ele>16</ele>
        <time>2021-09-23T07:45:23.473Z</time>
      </trkpt>
      <trkpt lat="47.61425" lon="-3.08527">
        <ele>16.20000076294</ele>
        <time>2021-09-23T07:45:25.047Z</time>
      </trkpt>
      <trkpt lat="47.61462" lon="-3.08529">
        <ele>18.39999961853</ele>
        <time>2021-09-23T07:45:26.632Z</time>
      </trkpt>
      <trkpt lat="47.61498" lon="-3.08532">
        <ele>20.20000076294</ele>
        <time>2021-09-23T07:45:28.228Z</time>
      </trkpt>
      <trkpt lat="47.61528" lon="-3.08535">
        <ele>21</ele>
        <time>2021-09-23T07:45:29.833Z</time>
      </trkpt>
      <trkpt lat="47.61545" lon="-3.08537">
        <ele>22</ele>
        <time>2021-09-23T07:45:31.443Z</time>
      </trkpt>
      <trkpt lat="47.61546" lon="-3.08537">
        <ele>22</ele>
        <time>2021-09-23T07:45:33.053Z</time>
      </trkpt>
      <trkpt lat="47.61548" lon="-3.08537">
        <ele>22.20000076294</ele>
        <time>2021-09-23T07:45:34.664Z</time>
      </trkpt>
      <trkpt lat="47.61561" lon="-3.08538">
        <ele>22.60000038147</ele>
        <time>2021-09-23T07:45:36.279Z</time>
      </trkpt>
      <trkpt lat="47.61565" lon="-3.08538">
        <ele>23</ele>
        <time>2021-09-23T07:45:37.895Z</time>
      </trkpt>
      <trkpt lat="47.61566" lon="-3.08538">
        <ele>23</ele>
        <time>2021-09-23T07:45:39.511Z</time>
      </trkpt>
      <trkpt lat="47.61568" lon="-3.08538">
        <ele>23</ele>
        <time>2021-09-23T07:45:41.128Z</time>
      </trkpt>
      <trkpt lat="47.61575" lon="-3.08538">
        <ele>23.39999961853</ele>
        <time>2021-09-23T07:45:42.747Z</time>
      </trkpt>
      <trkpt lat="47.61594" lon="-3.08537">
        <ele>23.79999923706</ele>
        <time>2021-09-23T07:45:44.371Z</time>
      </trkpt>
      <trkpt lat="47.61611" lon="-3.08534">
        <ele>23.60000038147</ele>
        <time>2021-09-23T07:45:46.001Z</time>
      </trkpt>
      <trkpt lat="47.61616" lon="-3.08534">
        <ele>23.60000038147</ele>
        <time>2021-09-23T07:45:47.632Z</time>
      </trkpt>
      <trkpt lat="47.61643" lon="-3.0853">
        <ele>21</ele>
        <time>2021-09-23T07:45:49.271Z</time>
      </trkpt>
      <trkpt lat="47.61658" lon="-3.08527">
        <ele>19.79999923706</ele>
        <time>2021-09-23T07:45:50.915Z</time>
      </trkpt>
      <trkpt lat="47.61667" lon="-3.08524">
        <ele>19</ele>
        <time>2021-09-23T07:45:52.561Z</time>
      </trkpt>
      <trkpt lat="47.61699" lon="-3.08513">
        <ele>18</ele>
        <time>2021-09-23T07:45:54.217Z</time>
      </trkpt>
      <trkpt lat="47.6175" lon="-3.08494">
        <ele>17.20000076294</ele>
        <time>2021-09-23T07:45:55.889Z</time>
      </trkpt>
      <trkpt lat="47.61792" lon="-3.08482">
        <ele>18.20000076294</ele>
        <time>2021-09-23T07:45:57.574Z</time>
      </trkpt>
      <trkpt lat="47.61813" lon="-3.08478">
        <ele>18.79999923706</ele>
        <time>2021-09-23T07:45:59.265Z</time>
      </trkpt>
      <trkpt lat="47.6184" lon="-3.08472">
        <ele>18.79999923706</ele>
        <time>2021-09-23T07:46:00.964Z</time>
      </trkpt>
      <trkpt lat="47.61871" lon="-3.08466">
        <ele>18</ele>
        <time>2021-09-23T07:46:02.672Z</time>
      </trkpt>
      <trkpt lat="47.61895" lon="-3.08461">
        <ele>16.79999923706</ele>
        <time>2021-09-23T07:46:04.388Z</time>
      </trkpt>
      <trkpt lat="47.61942" lon="-3.08451">
        <ele>16.39999961853</ele>
        <time>2021-09-23T07:46:06.118Z</time>
      </trkpt>
      <trkpt lat="47.61976" lon="-3.08444">
        <ele>18</ele>
        <time>2021-09-23T07:46:07.858Z</time>
      </trkpt>
      <trkpt lat="47.62004" lon="-3.08448">
        <ele>18.39999961853</ele>
        <time>2021-09-23T07:46:09.606Z</time>
      </trkpt>
      <trkpt lat="47.62019" lon="-3.0845">
        <ele>17.39999961853</ele>
        <time>2021-09-23T07:46:11.359Z</time>
      </trkpt>
      <trkpt lat="47.62024" lon="-3.08451">
        <ele>17.20000076294</ele>
        <time>2021-09-23T07:46:13.114Z</time>
      </trkpt>
      <trkpt lat="47.62046" lon="-3.08455">
        <ele>16</ele>
        <time>2021-09-23T07:46:14.875Z</time>
      </trkpt>
      <trkpt lat="47.62074" lon="-3.08463">
        <ele>14.39999961853</ele>
        <time>2021-09-23T07:46:16.645Z</time>
      </trkpt>
      <trkpt lat="47.62101" lon="-3.08474">
        <ele>14</ele>
        <time>2021-09-23T07:46:18.423Z</time>
      </trkpt>
      <trkpt lat="47.62107" lon="-3.08476">
        <ele>14.39999961853</ele>
        <time>2021-09-23T07:46:20.203Z</time>
      </trkpt>
      <trkpt lat="47.62123" lon="-3.08483">
        <ele>15.60000038147</ele>
        <time>2021-09-23T07:46:21.988Z</time>
      </trkpt>
      <trkpt lat="47.62143" lon="-3.08491">
        <ele>17</ele>
        <time>2021-09-23T07:46:23.779Z</time>
      </trkpt>
      <trkpt lat="47.62148" lon="-3.08493">
        <ele>17</ele>
        <time>2021-09-23T07:46:25.571Z</time>
      </trkpt>
      <trkpt lat="47.62162" lon="-3.08498">
        <ele>17</ele>
        <time>2021-09-23T07:46:27.368Z</time>
      </trkpt>
      <trkpt lat="47.62166" lon="-3.085">
        <ele>17</ele>
        <time>2021-09-23T07:46:29.166Z</time>
      </trkpt>
      <trkpt lat="47.62202" lon="-3.08514">
        <ele>15</ele>
        <time>2021-09-23T07:46:30.975Z</time>
      </trkpt>
      <trkpt lat="47.62228" lon="-3.08525">
        <ele>15</ele>
        <time>2021-09-23T07:46:32.792Z</time>
      </trkpt>
      <trkpt lat="47.62233" lon="-3.08527">
        <ele>15.19999980927</ele>
        <time>2021-09-23T07:46:34.611Z</time>
      </trkpt>
      <trkpt lat="47.62257" lon="-3.08536">
        <ele>16.20000076294</ele>
        <time>2021-09-23T07:46:36.437Z</time>
      </trkpt>
      <trkpt lat="47.6228" lon="-3.08545">
        <ele>18</ele>
        <time>2021-09-23T07:46:38.270Z</time>
      </trkpt>
      <trkpt lat="47.6231" lon="-3.08558">
        <ele>19.39999961853</ele>
        <time>2021-09-23T07:46:40.113Z</time>
      </trkpt>
      <trkpt lat="47.6233" lon="-3.08565">
        <ele>19.20000076294</ele>
        <time>2021-09-23T07:46:41.962Z</time>
      </trkpt>
      <trkpt lat="47.62345" lon="-3.08571">
        <ele>18.79999923706</ele>
        <time>2021-09-23T07:46:43.815Z</time>
      </trkpt>
      <trkpt lat="47.62354" lon="-3.08568">
        <ele>18.60000038147</ele>
        <time>2021-09-23T07:46:45.671Z</time>
      </trkpt>
      <trkpt lat="47.6236" lon="-3.0855">
        <ele>19.79999923706</ele>
        <time>2021-09-23T07:46:47.531Z</time>
      </trkpt>
      <trkpt lat="47.62364" lon="-3.08538">
        <ele>20.39999961853</ele>
        <time>2021-09-23T07:46:49.394Z</time>
      </trkpt>
      <trkpt lat="47.62365" lon="-3.08536">
        <ele>20.60000038147</ele>
        <time>2021-09-23T07:46:51.257Z</time>
      </trkpt>
      <trkpt lat="47.62366" lon="-3.08533">
        <ele>20.79999923706</ele>
        <time>2021-09-23T07:46:53.121Z</time>
      </trkpt>
      <trkpt lat="47.62367" lon="-3.08528">
        <ele>21.39999961853</ele>
        <time>2021-09-23T07:46:54.986Z</time>
      </trkpt>
      <trkpt lat="47.62369" lon="-3.0852">
        <ele>22</ele>
        <time>2021-09-23T07:46:56.853Z</time>
      </trkpt>
      <trkpt lat="47.62369" lon="-3.08515">
        <ele>22.39999961853</ele>
        <time>2021-09-23T07:46:58.721Z</time>
      </trkpt>
      <trkpt lat="47.62374" lon="-3.08508">
        <ele>22.60000038147</ele>
        <time>2021-09-23T07:47:00.591Z</time>
      </trkpt>
      <trkpt lat="47.62375" lon="-3.08504">
        <ele>22.79999923706</ele>
        <time>2021-09-23T07:47:02.462Z</time>
      </trkpt>
      <trkpt lat="47.62379" lon="-3.08493">
        <ele>22.60000038147</ele>
        <time>2021-09-23T07:47:04.335Z</time>
      </trkpt>
      <trkpt lat="47.6238" lon="-3.08489">
        <ele>22.60000038147</ele>
        <time>2021-09-23T07:47:06.209Z</time>
      </trkpt>
      <trkpt lat="47.62382" lon="-3.08482">
        <ele>22.39999961853</ele>
        <time>2021-09-23T07:47:08.085Z</time>
      </trkpt>
      <trkpt lat="47.62384" lon="-3.08476">
        <ele>22.20000076294</ele>
        <time>2021-09-23T07:47:09.962Z</time>
      </trkpt>
      <trkpt lat="47.62385" lon="-3.08473">
        <ele>22.20000076294</ele>
        <time>2021-09-23T07:47:11.840Z</time>
      </trkpt>
      <trkpt lat="47.62386" lon="-3.0847">
        <ele>22</ele>
        <time>2021-09-23T07:47:13.718Z</time>
      </trkpt>
      <trkpt lat="47.62388" lon="-3.08462">
        <ele>21.79999923706</ele>
        <time>2021-09-23T07:47:15.598Z</time>
      </trkpt>
      <trkpt lat="47.62394" lon="-3.08433">
        <ele>20</ele>
        <time>2021-09-23T07:47:17.484Z</time>
      </trkpt>
      <trkpt lat="47.62398" lon="-3.08409">
        <ele>18.60000038147</ele>
        <time>2021-09-23T07:47:19.375Z</time>
      </trkpt>
      <trkpt lat="47.62399" lon="-3.08404">
        <ele>18.39999961853</ele>
        <time>2021-09-23T07:47:21.267Z</time>
      </trkpt>
      <trkpt lat="47.62401" lon="-3.08392">
        <ele>18.39999961853</ele>
        <time>2021-09-23T07:47:23.162Z</time>
      </trkpt>
      <trkpt lat="47.62403" lon="-3.08384">
        <ele>18.39999961853</ele>
        <time>2021-09-23T07:47:25.058Z</time>
      </trkpt>
      <trkpt lat="47.62404" lon="-3.08378">
        <ele>18.39999961853</ele>
        <time>2021-09-23T07:47:26.956Z</time>
      </trkpt>
      <trkpt lat="47.6241" lon="-3.0835">
        <ele>18.60000038147</ele>
        <time>2021-09-23T07:47:28.860Z</time>
      </trkpt>
      <trkpt lat="47.62418" lon="-3.08332">
        <ele>19.60000038147</ele>
        <time>2021-09-23T07:47:30.768Z</time>
      </trkpt>
      <trkpt lat="47.6242" lon="-3.08328">
        <ele>19.79999923706</ele>
        <time>2021-09-23T07:47:32.677Z</time>
      </trkpt>
      <trkpt lat="47.62431" lon="-3.08303">
        <ele>20</ele>
        <time>2021-09-23T07:47:34.592Z</time>
      </trkpt>
      <trkpt lat="47.62443" lon="-3.08284">
        <ele>20</ele>
        <time>2021-09-23T07:47:36.512Z</time>
      </trkpt>
      <trkpt lat="47.6245" lon="-3.0827">
        <ele>20</ele>
        <time>2021-09-23T07:47:38.435Z</time>
      </trkpt>
      <trkpt lat="47.62456" lon="-3.08252">
        <ele>20.20000076294</ele>
        <time>2021-09-23T07:47:40.363Z</time>
      </trkpt>
      <trkpt lat="47.62457" lon="-3.0825">
        <ele>20.39999961853</ele>
        <time>2021-09-23T07:47:42.291Z</time>
      </trkpt>
      <trkpt lat="47.62459" lon="-3.08244">
        <ele>20.39999961853</ele>
        <time>2021-09-23T07:47:44.221Z</time>
      </trkpt>
      <trkpt lat="47.62473" lon="-3.08229">
        <ele>21</ele>
        <time>2021-09-23T07:47:46.156Z</time>
      </trkpt>
      <trkpt lat="47.62483" lon="-3.08213">
        <ele>21.20000076294</ele>
        <time>2021-09-23T07:47:48.095Z</time>
      </trkpt>
      <trkpt lat="47.62485" lon="-3.08204">
        <ele>21</ele>
        <time>2021-09-23T07:47:50.036Z</time>
      </trkpt>
      <trkpt lat="47.62488" lon="-3.08191">
        <ele>20.79999923706</ele>
        <time>2021-09-23T07:47:51.980Z</time>
      </trkpt>
      <trkpt lat="47.62489" lon="-3.08189">
        <ele>20.60000038147</ele>
        <time>2021-09-23T07:47:53.924Z</time>
      </trkpt>
      <trkpt lat="47.62491" lon="-3.0818">
        <ele>20.39999961853</ele>
        <time>2021-09-23T07:47:55.870Z</time>
      </trkpt>
      <trkpt lat="47.62494" lon="-3.08168">
        <ele>20.20000076294</ele>
        <time>2021-09-23T07:47:57.819Z</time>
      </trkpt>
      <trkpt lat="47.62496" lon="-3.08159">
        <ele>19.79999923706</ele>
        <time>2021-09-23T07:47:59.770Z</time>
      </trkpt>
      <trkpt lat="47.62497" lon="-3.08155">
        <ele>19.60000038147</ele>
        <time>2021-09-23T07:48:01.721Z</time>
      </trkpt>
      <trkpt lat="47.625" lon="-3.08142">
        <ele>18.79999923706</ele>
        <time>2021-09-23T07:48:03.675Z</time>
      </trkpt>
      <trkpt lat="47.625" lon="-3.08139">
        <ele>18.60000038147</ele>
        <time>2021-09-23T07:48:05.630Z</time>
      </trkpt>
      <trkpt lat="47.62502" lon="-3.08132">
        <ele>18.20000076294</ele>
        <time>2021-09-23T07:48:07.586Z</time>
      </trkpt>
      <trkpt lat="47.62503" lon="-3.0813">
        <ele>18.20000076294</ele>
        <time>2021-09-23T07:48:09.543Z</time>
      </trkpt>
      <trkpt lat="47.62504" lon="-3.08128">
        <ele>18</ele>
        <time>2021-09-23T07:48:11.500Z</time>
      </trkpt>
      <trkpt lat="47.62507" lon="-3.0812">
        <ele>17.79999923706</ele>
        <time>2021-09-23T07:48:13.459Z</time>
      </trkpt>
      <trkpt lat="47.62508" lon="-3.08117">
        <ele>17.60000038147</ele>
        <time>2021-09-23T07:48:15.419Z</time>
      </trkpt>
      <trkpt lat="47.62514" lon="-3.08104">
        <ele>17</ele>
        <time>2021-09-23T07:48:17.382Z</time>
      </trkpt>
      <trkpt lat="47.62516" lon="-3.08099">
        <ele>17</ele>
        <time>2021-09-23T07:48:19.346Z</time>
      </trkpt>
      <trkpt lat="47.6252" lon="-3.0809">
        <ele>17.20000076294</ele>
        <time>2021-09-23T07:48:21.312Z</time>
      </trkpt>
      <trkpt lat="47.62525" lon="-3.08079">
        <ele>17.60000038147</ele>
        <time>2021-09-23T07:48:23.281Z</time>
      </trkpt>
      <trkpt lat="47.62526" lon="-3.08076">
        <ele>17.60000038147</ele>
        <time>2021-09-23T07:48:25.251Z</time>
      </trkpt>
      <trkpt lat="47.62535" lon="-3.08056">
        <ele>18.60000038147</ele>
        <time>2021-09-23T07:48:27.225Z</time>
      </trkpt>
      <trkpt lat="47.62545" lon="-3.08038">
        <ele>19.39999961853</ele>
        <time>2021-09-23T07:48:29.204Z</time>
      </trkpt>
      <trkpt lat="47.6256" lon="-3.08016">
        <ele>20</ele>
        <time>2021-09-23T07:48:31.189Z</time>
      </trkpt>
      <trkpt lat="47.62573" lon="-3.07995">
        <ele>21</ele>
        <time>2021-09-23T07:48:33.180Z</time>
      </trkpt>
      <trkpt lat="47.6259" lon="-3.07971">
        <ele>21.60000038147</ele>
        <time>2021-09-23T07:48:35.178Z</time>
      </trkpt>
      <trkpt lat="47.62603" lon="-3.07951">
        <ele>22</ele>
        <time>2021-09-23T07:48:37.182Z</time>
      </trkpt>
      <trkpt lat="47.62614" lon="-3.07935">
        <ele>22</ele>
        <time>2021-09-23T07:48:39.190Z</time>
      </trkpt>
      <trkpt lat="47.62629" lon="-3.07911">
        <ele>21</ele>
        <time>2021-09-23T07:48:41.205Z</time>
      </trkpt>
      <trkpt lat="47.62639" lon="-3.07895">
        <ele>20.20000076294</ele>
        <time>2021-09-23T07:48:43.224Z</time>
      </trkpt>
      <trkpt lat="47.62647" lon="-3.07881">
        <ele>19.39999961853</ele>
        <time>2021-09-23T07:48:45.247Z</time>
      </trkpt>
      <trkpt lat="47.62658" lon="-3.07863">
        <ele>18.60000038147</ele>
        <time>2021-09-23T07:48:47.275Z</time>
      </trkpt>
      <trkpt lat="47.6267" lon="-3.07842">
        <ele>18</ele>
        <time>2021-09-23T07:48:49.308Z</time>
      </trkpt>
      <trkpt lat="47.62675" lon="-3.07831">
        <ele>18</ele>
        <time>2021-09-23T07:48:51.344Z</time>
      </trkpt>
      <trkpt lat="47.62677" lon="-3.07827">
        <ele>18</ele>
        <time>2021-09-23T07:48:53.381Z</time>
      </trkpt>
      <trkpt lat="47.62678" lon="-3.07823">
        <ele>18</ele>
        <time>2021-09-23T07:48:55.419Z</time>
      </trkpt>
      <trkpt lat="47.62684" lon="-3.07811">
        <ele>17.60000038147</ele>
        <time>2021-09-23T07:48:57.460Z</time>
      </trkpt>
      <trkpt lat="47.62685" lon="-3.07805">
        <ele>17.39999961853</ele>
        <time>2021-09-23T07:48:59.502Z</time>
      </trkpt>
      <trkpt lat="47.62686" lon="-3.07791">
        <ele>16.79999923706</ele>
        <time>2021-09-23T07:49:01.547Z</time>
      </trkpt>
      <trkpt lat="47.62686" lon="-3.07765">
        <ele>16</ele>
        <time>2021-09-23T07:49:03.597Z</time>
      </trkpt>
      <trkpt lat="47.62684" lon="-3.07748">
        <ele>15.80000019073</ele>
        <time>2021-09-23T07:49:05.651Z</time>
      </trkpt>
      <trkpt lat="47.6268" lon="-3.07722">
        <ele>15.60000038147</ele>
        <time>2021-09-23T07:49:07.710Z</time>
      </trkpt>
      <trkpt lat="47.62677" lon="-3.07696">
        <ele>16.20000076294</ele>
        <time>2021-09-23T07:49:09.774Z</time>
      </trkpt>
      <trkpt lat="47.62677" lon="-3.07693">
        <ele>16.20000076294</ele>
        <time>2021-09-23T07:49:11.839Z</time>
      </trkpt>
      <trkpt lat="47.62677" lon="-3.07677">
        <ele>16.20000076294</ele>
        <time>2021-09-23T07:49:13.907Z</time>
      </trkpt>
      <trkpt lat="47.62678" lon="-3.07674">
        <ele>16.39999961853</ele>
        <time>2021-09-23T07:49:15.976Z</time>
      </trkpt>
      <trkpt lat="47.62678" lon="-3.0767">
        <ele>16.39999961853</ele>
        <time>2021-09-23T07:49:18.046Z</time>
      </trkpt>
      <trkpt lat="47.62679" lon="-3.07658">
        <ele>16.79999923706</ele>
        <time>2021-09-23T07:49:20.118Z</time>
      </trkpt>
      <trkpt lat="47.62679" lon="-3.07654">
        <ele>17</ele>
        <time>2021-09-23T07:49:22.191Z</time>
      </trkpt>
      <trkpt lat="47.6268" lon="-3.07646">
        <ele>17</ele>
        <time>2021-09-23T07:49:24.266Z</time>
      </trkpt>
      <trkpt lat="47.62684" lon="-3.07625">
        <ele>17.39999961853</ele>
        <time>2021-09-23T07:49:26.345Z</time>
      </trkpt>
      <trkpt lat="47.62686" lon="-3.07621">
        <ele>17.39999961853</ele>
        <time>2021-09-23T07:49:28.425Z</time>
      </trkpt>
      <trkpt lat="47.6269" lon="-3.0761">
        <ele>17.20000076294</ele>
        <time>2021-09-23T07:49:30.508Z</time>
      </trkpt>
      <trkpt lat="47.62695" lon="-3.0759">
        <ele>17.20000076294</ele>
        <time>2021-09-23T07:49:32.595Z</time>
      </trkpt>
      <trkpt lat="47.62696" lon="-3.0757">
        <ele>17</ele>
        <time>2021-09-23T07:49:34.686Z</time>
      </trkpt>
      <trkpt lat="47.62704" lon="-3.07558">
        <ele>16.60000038147</ele>
        <time>2021-09-23T07:49:36.780Z</time>
      </trkpt>
      <trkpt lat="47.62705" lon="-3.07559">
        <ele>16.60000038147</ele>
        <time>2021-09-23T07:49:38.875Z</time>
      </trkpt>
      <trkpt lat="47.62711" lon="-3.07561">
        <ele>16.60000038147</ele>
        <time>2021-09-23T07:49:40.971Z</time>
      </trkpt>
      <trkpt lat="47.62735" lon="-3.07558">
        <ele>16.79999923706</ele>
        <time>2021-09-23T07:49:43.074Z</time>
      </trkpt>
      <trkpt lat="47.62766" lon="-3.07555">
        <ele>17</ele>
        <time>2021-09-23T07:49:45.187Z</time>
      </trkpt>
      <trkpt lat="47.62802" lon="-3.07557">
        <ele>17</ele>
        <time>2021-09-23T07:49:47.311Z</time>
      </trkpt>
      <trkpt lat="47.62817" lon="-3.0756">
        <ele>17</ele>
        <time>2021-09-23T07:49:49.439Z</time>
      </trkpt>
      <trkpt lat="47.62828" lon="-3.07558">
        <ele>17</ele>
        <time>2021-09-23T07:49:51.571Z</time>
      </trkpt>
      <trkpt lat="47.62837" lon="-3.07546">
        <ele>17</ele>
        <time>2021-09-23T07:49:53.706Z</time>
      </trkpt>
      <trkpt lat="47.62838" lon="-3.0754">
        <ele>17</ele>
        <time>2021-09-23T07:49:55.842Z</time>
      </trkpt>
      <trkpt lat="47.62842" lon="-3.07527">
        <ele>17</ele>
        <time>2021-09-23T07:49:57.981Z</time>
      </trkpt>
      <trkpt lat="47.62847" lon="-3.07507">
        <ele>17</ele>
        <time>2021-09-23T07:50:00.124Z</time>
      </trkpt>
      <trkpt lat="47.6285" lon="-3.07493">
        <ele>17</ele>
        <time>2021-09-23T07:50:02.270Z</time>
      </trkpt>
      <trkpt lat="47.62853" lon="-3.07479">
        <ele>17</ele>
        <time>2021-09-23T07:50:04.419Z</time>
      </trkpt>
      <trkpt lat="47.62855" lon="-3.07473">
        <ele>17</ele>
        <time>2021-09-23T07:50:06.570Z</time>
      </trkpt>
      <trkpt lat="47.62866" lon="-3.0743">
        <ele>17</ele>
        <time>2021-09-23T07:50:08.730Z</time>
      </trkpt>
      <trkpt lat="47.62871" lon="-3.07409">
        <ele>17</ele>
        <time>2021-09-23T07:50:10.895Z</time>
      </trkpt>
      <trkpt lat="47.62876" lon="-3.07388">
        <ele>16.60000038147</ele>
        <time>2021-09-23T07:50:13.064Z</time>
      </trkpt>
      <trkpt lat="47.62878" lon="-3.07381">
        <ele>16.60000038147</ele>
        <time>2021-09-23T07:50:15.235Z</time>
      </trkpt>
      <trkpt lat="47.62885" lon="-3.07355">
        <ele>17</ele>
        <time>2021-09-23T07:50:17.411Z</time>
      </trkpt>
      <trkpt lat="47.62896" lon="-3.07308">
        <ele>17.79999923706</ele>
        <time>2021-09-23T07:50:19.597Z</time>
      </trkpt>
      <trkpt lat="47.62905" lon="-3.07287">
        <ele>17.20000076294</ele>
        <time>2021-09-23T07:50:21.788Z</time>
      </trkpt>
      <trkpt lat="47.62911" lon="-3.07276">
        <ele>16.60000038147</ele>
        <time>2021-09-23T07:50:23.982Z</time>
      </trkpt>
      <trkpt lat="47.62917" lon="-3.07266">
        <ele>16.20000076294</ele>
        <time>2021-09-23T07:50:26.179Z</time>
      </trkpt>
      <trkpt lat="47.62923" lon="-3.07256">
        <ele>15.39999961853</ele>
        <time>2021-09-23T07:50:28.378Z</time>
      </trkpt>
      <trkpt lat="47.62942" lon="-3.07226">
        <ele>13.39999961853</ele>
        <time>2021-09-23T07:50:30.586Z</time>
      </trkpt>
      <trkpt lat="47.62952" lon="-3.07206">
        <ele>13.19999980927</ele>
        <time>2021-09-23T07:50:32.799Z</time>
      </trkpt>
      <trkpt lat="47.6296" lon="-3.07183">
        <ele>13.80000019073</ele>
        <time>2021-09-23T07:50:35.017Z</time>
      </trkpt>
      <trkpt lat="47.62967" lon="-3.07164">
        <ele>15</ele>
        <time>2021-09-23T07:50:37.239Z</time>
      </trkpt>
      <trkpt lat="47.62975" lon="-3.07142">
        <ele>16.39999961853</ele>
        <time>2021-09-23T07:50:39.466Z</time>
      </trkpt>
      <trkpt lat="47.62985" lon="-3.07116">
        <ele>17.79999923706</ele>
        <time>2021-09-23T07:50:41.699Z</time>
      </trkpt>
      <trkpt lat="47.62993" lon="-3.07094">
        <ele>18.79999923706</ele>
        <time>2021-09-23T07:50:43.938Z</time>
      </trkpt>
      <trkpt lat="47.63001" lon="-3.07075">
        <ele>19.79999923706</ele>
        <time>2021-09-23T07:50:46.181Z</time>
      </trkpt>
      <trkpt lat="47.63007" lon="-3.07057">
        <ele>20.39999961853</ele>
        <time>2021-09-23T07:50:48.428Z</time>
      </trkpt>
      <trkpt lat="47.63012" lon="-3.07035">
        <ele>20.60000038147</ele>
        <time>2021-09-23T07:50:50.680Z</time>
      </trkpt>
      <trkpt lat="47.63015" lon="-3.07004">
        <ele>21</ele>
        <time>2021-09-23T07:50:52.938Z</time>
      </trkpt>
      <trkpt lat="47.63019" lon="-3.06976">
        <ele>21.39999961853</ele>
        <time>2021-09-23T07:50:55.202Z</time>
      </trkpt>
      <trkpt lat="47.6303" lon="-3.06946">
        <ele>22.60000038147</ele>
        <time>2021-09-23T07:50:57.473Z</time>
      </trkpt>
      <trkpt lat="47.63048" lon="-3.06919">
        <ele>23.20000076294</ele>
        <time>2021-09-23T07:50:59.751Z</time>
      </trkpt>
      <trkpt lat="47.63063" lon="-3.06907">
        <ele>23</ele>
        <time>2021-09-23T07:51:02.034Z</time>
      </trkpt>
      <trkpt lat="47.63071" lon="-3.06901">
        <ele>22.79999923706</ele>
        <time>2021-09-23T07:51:04.320Z</time>
      </trkpt>
      <trkpt lat="47.631" lon="-3.06886">
        <ele>22.79999923706</ele>
        <time>2021-09-23T07:51:06.615Z</time>
      </trkpt>
      <trkpt lat="47.63139" lon="-3.06868">
        <ele>22.60000038147</ele>
        <time>2021-09-23T07:51:08.922Z</time>
      </trkpt>
      <trkpt lat="47.63164" lon="-3.06842">
        <ele>22.20000076294</ele>
        <time>2021-09-23T07:51:11.238Z</time>
      </trkpt>
      <trkpt lat="47.63191" lon="-3.0681">
        <ele>22.60000038147</ele>
        <time>2021-09-23T07:51:13.565Z</time>
      </trkpt>
      <trkpt lat="47.63211" lon="-3.06783">
        <ele>23.39999961853</ele>
        <time>2021-09-23T07:51:15.900Z</time>
      </trkpt>
      <trkpt lat="47.63219" lon="-3.06772">
        <ele>23.79999923706</ele>
        <time>2021-09-23T07:51:18.238Z</time>
      </trkpt>
      <trkpt lat="47.63227" lon="-3.06773">
        <ele>23.79999923706</ele>
        <time>2021-09-23T07:51:20.579Z</time>
      </trkpt>
      <trkpt lat="47.63246" lon="-3.06777">
        <ele>25.20000076294</ele>
        <time>2021-09-23T07:51:22.925Z</time>
      </trkpt>
      <trkpt lat="47.63266" lon="-3.06775">
        <ele>27.39999961853</ele>
        <time>2021-09-23T07:51:25.277Z</time>
      </trkpt>
      <trkpt lat="47.63272" lon="-3.06773">
        <ele>28</ele>
        <time>2021-09-23T07:51:27.631Z</time>
      </trkpt>
      <trkpt lat="47.63288" lon="-3.06775">
        <ele>29.20000076294</ele>
        <time>2021-09-23T07:51:29.990Z</time>
      </trkpt>
      <trkpt lat="47.63294" lon="-3.06778">
        <ele>29.39999961853</ele>
        <time>2021-09-23T07:51:32.351Z</time>
      </trkpt>
      <trkpt lat="47.633" lon="-3.06779">
        <ele>29.79999923706</ele>
        <time>2021-09-23T07:51:34.713Z</time>
      </trkpt>
      <trkpt lat="47.63309" lon="-3.06784">
        <ele>30.60000038147</ele>
        <time>2021-09-23T07:51:37.078Z</time>
      </trkpt>
      <trkpt lat="47.63323" lon="-3.06791">
        <ele>30.79999923706</ele>
        <time>2021-09-23T07:51:39.448Z</time>
      </trkpt>
      <trkpt lat="47.63333" lon="-3.06796">
        <ele>31</ele>
        <time>2021-09-23T07:51:41.821Z</time>
      </trkpt>
      <trkpt lat="47.63343" lon="-3.06801">
        <ele>30</ele>
        <time>2021-09-23T07:51:44.197Z</time>
      </trkpt>
      <trkpt lat="47.63355" lon="-3.06806">
        <ele>28.79999923706</ele>
        <time>2021-09-23T07:51:46.577Z</time>
      </trkpt>
      <trkpt lat="47.63368" lon="-3.06819">
        <ele>27.39999961853</ele>
        <time>2021-09-23T07:51:48.961Z</time>
      </trkpt>
      <trkpt lat="47.6338" lon="-3.06829">
        <ele>24.79999923706</ele>
        <time>2021-09-23T07:51:51.349Z</time>
      </trkpt>
      <trkpt lat="47.63394" lon="-3.06842">
        <ele>22.20000076294</ele>
        <time>2021-09-23T07:51:53.742Z</time>
      </trkpt>
      <trkpt lat="47.63404" lon="-3.06848">
        <ele>21.20000076294</ele>
        <time>2021-09-23T07:51:56.139Z</time>
      </trkpt>
      <trkpt lat="47.63409" lon="-3.0685">
        <ele>20.79999923706</ele>
        <time>2021-09-23T07:51:58.537Z</time>
      </trkpt>
      <trkpt lat="47.63425" lon="-3.06855">
        <ele>20.20000076294</ele>
        <time>2021-09-23T07:52:00.940Z</time>
      </trkpt>
      <trkpt lat="47.63435" lon="-3.06858">
        <ele>20.79999923706</ele>
        <time>2021-09-23T07:52:03.346Z</time>
      </trkpt>
      <trkpt lat="47.63448" lon="-3.06859">
        <ele>21.20000076294</ele>
        <time>2021-09-23T07:52:05.756Z</time>
      </trkpt>
      <trkpt lat="47.63452" lon="-3.06859">
        <ele>21.20000076294</ele>
        <time>2021-09-23T07:52:08.167Z</time>
      </trkpt>
      <trkpt lat="47.6347" lon="-3.06858">
        <ele>21.39999961853</ele>
        <time>2021-09-23T07:52:10.584Z</time>
      </trkpt>
      <trkpt lat="47.63485" lon="-3.06853">
        <ele>21.79999923706</ele>
        <time>2021-09-23T07:52:13.005Z</time>
      </trkpt>
      <trkpt lat="47.63489" lon="-3.06851">
        <ele>22</ele>
        <time>2021-09-23T07:52:15.427Z</time>
      </trkpt>
      <trkpt lat="47.63504" lon="-3.06845">
        <ele>22.20000076294</ele>
        <time>2021-09-23T07:52:17.854Z</time>
      </trkpt>
      <trkpt lat="47.63516" lon="-3.0684">
        <ele>23.20000076294</ele>
        <time>2021-09-23T07:52:20.285Z</time>
      </trkpt>
      <trkpt lat="47.63528" lon="-3.06835">
        <ele>24</ele>
        <time>2021-09-23T07:52:22.719Z</time>
      </trkpt>
      <trkpt lat="47.63531" lon="-3.06834">
        <ele>24.20000076294</ele>
        <time>2021-09-23T07:52:25.154Z</time>
      </trkpt>
      <trkpt lat="47.63534" lon="-3.06832">
        <ele>24.20000076294</ele>
        <time>2021-09-23T07:52:27.590Z</time>
      </trkpt>
      <trkpt lat="47.63545" lon="-3.06819">
        <ele>25.20000076294</ele>
        <time>2021-09-23T07:52:30.031Z</time>
      </trkpt>
      <trkpt lat="47.63553" lon="-3.06799">
        <ele>25.79999923706</ele>
        <time>2021-09-23T07:52:32.476Z</time>
      </trkpt>
      <trkpt lat="47.63562" lon="-3.06774">
        <ele>26</ele>
        <time>2021-09-23T07:52:34.927Z</time>
      </trkpt>
      <trkpt lat="47.63563" lon="-3.06771">
        <ele>25.79999923706</ele>
        <time>2021-09-23T07:52:37.379Z</time>
      </trkpt>
      <trkpt lat="47.63566" lon="-3.06764">
        <ele>25.79999923706</ele>
        <time>2021-09-23T07:52:39.832Z</time>
      </trkpt>
      <trkpt lat="47.63571" lon="-3.06748">
        <ele>25.39999961853</ele>
        <time>2021-09-23T07:52:42.289Z</time>
      </trkpt>
      <trkpt lat="47.63573" lon="-3.06744">
        <ele>25.20000076294</ele>
        <time>2021-09-23T07:52:44.747Z</time>
      </trkpt>
      <trkpt lat="47.63575" lon="-3.06739">
        <ele>25</ele>
        <time>2021-09-23T07:52:47.206Z</time>
      </trkpt>
      <trkpt lat="47.6358" lon="-3.0673">
        <ele>25</ele>
        <time>2021-09-23T07:52:49.667Z</time>
      </trkpt>
      <trkpt lat="47.6359" lon="-3.06714">
        <ele>24.79999923706</ele>
        <time>2021-09-23T07:52:52.133Z</time>
      </trkpt>
      <trkpt lat="47.636" lon="-3.067">
        <ele>24.60000038147</ele>
        <time>2021-09-23T07:52:54.603Z</time>
      </trkpt>
      <trkpt lat="47.63605" lon="-3.06691">
        <ele>24.39999961853</ele>
        <time>2021-09-23T07:52:57.075Z</time>
      </trkpt>
      <trkpt lat="47.63607" lon="-3.06688">
        <ele>24.20000076294</ele>
        <time>2021-09-23T07:52:59.548Z</time>
      </trkpt>
      <trkpt lat="47.63613" lon="-3.06678">
        <ele>24</ele>
        <time>2021-09-23T07:53:02.024Z</time>
      </trkpt>
      <trkpt lat="47.63614" lon="-3.06677">
        <ele>24</ele>
        <time>2021-09-23T07:53:04.500Z</time>
      </trkpt>
      <trkpt lat="47.63647" lon="-3.06686">
        <ele>20.60000038147</ele>
        <time>2021-09-23T07:53:06.986Z</time>
      </trkpt>
      <trkpt lat="47.63658" lon="-3.0669">
        <ele>19.39999961853</ele>
        <time>2021-09-23T07:53:09.475Z</time>
      </trkpt>
      <trkpt lat="47.63662" lon="-3.06689">
        <ele>19</ele>
        <time>2021-09-23T07:53:11.966Z</time>
      </trkpt>
      <trkpt lat="47.6367" lon="-3.06689">
        <ele>18</ele>
        <time>2021-09-23T07:53:14.459Z</time>
      </trkpt>
      <trkpt lat="47.63683" lon="-3.06685">
        <ele>17.60000038147</ele>
        <time>2021-09-23T07:53:16.956Z</time>
      </trkpt>
      <trkpt lat="47.63688" lon="-3.06682">
        <ele>17.39999961853</ele>
        <time>2021-09-23T07:53:19.455Z</time>
      </trkpt>
      <trkpt lat="47.63694" lon="-3.06676">
        <ele>17.20000076294</ele>
        <time>2021-09-23T07:53:21.956Z</time>
      </trkpt>
      <trkpt lat="47.63698" lon="-3.06674">
        <ele>17</ele>
        <time>2021-09-23T07:53:24.458Z</time>
      </trkpt>
      <trkpt lat="47.637" lon="-3.06671">
        <ele>17</ele>
        <time>2021-09-23T07:53:26.961Z</time>
      </trkpt>
      <trkpt lat="47.63705" lon="-3.06669">
        <ele>16.79999923706</ele>
        <time>2021-09-23T07:53:29.465Z</time>
      </trkpt>
      <trkpt lat="47.63708" lon="-3.0667">
        <ele>16.60000038147</ele>
        <time>2021-09-23T07:53:31.970Z</time>
      </trkpt>
      <trkpt lat="47.63713" lon="-3.0667">
        <ele>16.39999961853</ele>
        <time>2021-09-23T07:53:34.477Z</time>
      </trkpt>
      <trkpt lat="47.63715" lon="-3.0667">
        <ele>16.39999961853</ele>
        <time>2021-09-23T07:53:36.984Z</time>
      </trkpt>
      <trkpt lat="47.63721" lon="-3.06669">
        <ele>16.20000076294</ele>
        <time>2021-09-23T07:53:39.493Z</time>
      </trkpt>
      <trkpt lat="47.63726" lon="-3.06664">
        <ele>16</ele>
        <time>2021-09-23T07:53:42.004Z</time>
      </trkpt>
      <trkpt lat="47.63733" lon="-3.06663">
        <ele>15.60000038147</ele>
        <time>2021-09-23T07:53:44.517Z</time>
      </trkpt>
      <trkpt lat="47.63742" lon="-3.06659">
        <ele>14.80000019073</ele>
        <time>2021-09-23T07:53:47.033Z</time>
      </trkpt>
      <trkpt lat="47.63746" lon="-3.06657">
        <ele>14.60000038147</ele>
        <time>2021-09-23T07:53:49.550Z</time>
      </trkpt>
      <trkpt lat="47.63757" lon="-3.06656">
        <ele>13.80000019073</ele>
        <time>2021-09-23T07:53:52.070Z</time>
      </trkpt>
      <trkpt lat="47.63776" lon="-3.06656">
        <ele>13.19999980927</ele>
        <time>2021-09-23T07:53:54.596Z</time>
      </trkpt>
      <trkpt lat="47.63799" lon="-3.06655">
        <ele>12.39999961853</ele>
        <time>2021-09-23T07:53:57.129Z</time>
      </trkpt>
      <trkpt lat="47.63814" lon="-3.06656">
        <ele>12</ele>
        <time>2021-09-23T07:53:59.666Z</time>
      </trkpt>
      <trkpt lat="47.6383" lon="-3.06655">
        <ele>12</ele>
        <time>2021-09-23T07:54:02.208Z</time>
      </trkpt>
      <trkpt lat="47.6385" lon="-3.06656">
        <ele>12.39999961853</ele>
        <time>2021-09-23T07:54:04.756Z</time>
      </trkpt>
      <trkpt lat="47.6387" lon="-3.06657">
        <ele>13.19999980927</ele>
        <time>2021-09-23T07:54:07.310Z</time>
      </trkpt>
      <trkpt lat="47.63885" lon="-3.06657">
        <ele>13.80000019073</ele>
        <time>2021-09-23T07:54:09.869Z</time>
      </trkpt>
      <trkpt lat="47.63889" lon="-3.06658">
        <ele>13.80000019073</ele>
        <time>2021-09-23T07:54:12.429Z</time>
      </trkpt>
      <trkpt lat="47.63901" lon="-3.06658">
        <ele>13.80000019073</ele>
        <time>2021-09-23T07:54:14.992Z</time>
      </trkpt>
      <trkpt lat="47.63916" lon="-3.06658">
        <ele>13.80000019073</ele>
        <time>2021-09-23T07:54:17.560Z</time>
      </trkpt>
      <trkpt lat="47.63926" lon="-3.06657">
        <ele>14.19999980927</ele>
        <time>2021-09-23T07:54:20.131Z</time>
      </trkpt>
      <trkpt lat="47.63931" lon="-3.06658">
        <ele>14.19999980927</ele>
        <time>2021-09-23T07:54:22.703Z</time>
      </trkpt>
      <trkpt lat="47.63936" lon="-3.06659">
        <ele>14.39999961853</ele>
        <time>2021-09-23T07:54:25.277Z</time>
      </trkpt>
      <trkpt lat="47.63944" lon="-3.0666">
        <ele>14.60000038147</ele>
        <time>2021-09-23T07:54:27.853Z</time>
      </trkpt>
      <trkpt lat="47.63945" lon="-3.06658">
        <ele>14.80000019073</ele>
        <time>2021-09-23T07:54:30.430Z</time>
      </trkpt>
      <trkpt lat="47.6395" lon="-3.06656">
        <ele>15</ele>
        <time>2021-09-23T07:54:33.008Z</time>
      </trkpt>
      <trkpt lat="47.63957" lon="-3.06656">
        <ele>15</ele>
        <time>2021-09-23T07:54:35.588Z</time>
      </trkpt>
      <trkpt lat="47.6397" lon="-3.0665">
        <ele>15.19999980927</ele>
        <time>2021-09-23T07:54:38.172Z</time>
      </trkpt>
      <trkpt lat="47.63986" lon="-3.06645">
        <ele>15.39999961853</ele>
        <time>2021-09-23T07:54:40.761Z</time>
      </trkpt>
      <trkpt lat="47.64001" lon="-3.06639">
        <ele>15.60000038147</ele>
        <time>2021-09-23T07:54:43.355Z</time>
      </trkpt>
      <trkpt lat="47.64008" lon="-3.06634">
        <ele>15.80000019073</ele>
        <time>2021-09-23T07:54:45.951Z</time>
      </trkpt>
      <trkpt lat="47.64011" lon="-3.06634">
        <ele>16</ele>
        <time>2021-09-23T07:54:48.548Z</time>
      </trkpt>
      <trkpt lat="47.64017" lon="-3.0663">
        <ele>16.39999961853</ele>
        <time>2021-09-23T07:54:51.147Z</time>
      </trkpt>
      <trkpt lat="47.64024" lon="-3.06627">
        <ele>16.79999923706</ele>
        <time>2021-09-23T07:54:53.748Z</time>
      </trkpt>
      <trkpt lat="47.64027" lon="-3.06626">
        <ele>16.79999923706</ele>
        <time>2021-09-23T07:54:56.350Z</time>
      </trkpt>
      <trkpt lat="47.64037" lon="-3.06625">
        <ele>17</ele>
        <time>2021-09-23T07:54:58.955Z</time>
      </trkpt>
      <trkpt lat="47.64054" lon="-3.06622">
        <ele>17.20000076294</ele>
        <time>2021-09-23T07:55:01.565Z</time>
      </trkpt>
      <trkpt lat="47.64072" lon="-3.06619">
        <ele>17.79999923706</ele>
        <time>2021-09-23T07:55:04.180Z</time>
      </trkpt>
      <trkpt lat="47.64094" lon="-3.06618">
        <ele>18.60000038147</ele>
        <time>2021-09-23T07:55:06.802Z</time>
      </trkpt>
      <trkpt lat="47.64109" lon="-3.06616">
        <ele>19.20000076294</ele>
        <time>2021-09-23T07:55:09.428Z</time>
      </trkpt>
      <trkpt lat="47.64133" lon="-3.06616">
        <ele>19</ele>
        <time>2021-09-23T07:55:12.062Z</time>
      </trkpt>
      <trkpt lat="47.64148" lon="-3.06615">
        <ele>18.60000038147</ele>
        <time>2021-09-23T07:55:14.700Z</time>
      </trkpt>
      <trkpt lat="47.64151" lon="-3.06614">
        <ele>18.39999961853</ele>
        <time>2021-09-23T07:55:17.339Z</time>
      </trkpt>
      <trkpt lat="47.64164" lon="-3.06616">
        <ele>18.20000076294</ele>
        <time>2021-09-23T07:55:19.982Z</time>
      </trkpt>
      <trkpt lat="47.64166" lon="-3.06617">
        <ele>18.20000076294</ele>
        <time>2021-09-23T07:55:22.626Z</time>
      </trkpt>
      <trkpt lat="47.64177" lon="-3.06622">
        <ele>18.79999923706</ele>
        <time>2021-09-23T07:55:25.273Z</time>
      </trkpt>
      <trkpt lat="47.64192" lon="-3.06621">
        <ele>18.79999923706</ele>
        <time>2021-09-23T07:55:27.924Z</time>
      </trkpt>
      <trkpt lat="47.64213" lon="-3.06613">
        <ele>19.60000038147</ele>
        <time>2021-09-23T07:55:30.582Z</time>
      </trkpt>
      <trkpt lat="47.64236" lon="-3.06599">
        <ele>20.39999961853</ele>
        <time>2021-09-23T07:55:33.247Z</time>
      </trkpt>
      <trkpt lat="47.64256" lon="-3.06595">
        <ele>21</ele>
        <time>2021-09-23T07:55:35.918Z</time>
      </trkpt>
      <trkpt lat="47.64273" lon="-3.06589">
        <ele>20.60000038147</ele>
        <time>2021-09-23T07:55:38.595Z</time>
      </trkpt>
      <trkpt lat="47.64284" lon="-3.06585">
        <ele>20.39999961853</ele>
        <time>2021-09-23T07:55:41.275Z</time>
      </trkpt>
      <trkpt lat="47.64297" lon="-3.06581">
        <ele>20.20000076294</ele>
        <time>2021-09-23T07:55:43.959Z</time>
      </trkpt>
      <trkpt lat="47.64306" lon="-3.06574">
        <ele>20</ele>
        <time>2021-09-23T07:55:46.646Z</time>
      </trkpt>
      <trkpt lat="47.64308" lon="-3.06573">
        <ele>20</ele>
        <time>2021-09-23T07:55:49.334Z</time>
      </trkpt>
      <trkpt lat="47.64316" lon="-3.06567">
        <ele>20</ele>
        <time>2021-09-23T07:55:52.024Z</time>
      </trkpt>
      <trkpt lat="47.64321" lon="-3.06565">
        <ele>20</ele>
        <time>2021-09-23T07:55:54.716Z</time>
      </trkpt>
      <trkpt lat="47.64327" lon="-3.06564">
        <ele>20</ele>
        <time>2021-09-23T07:55:57.410Z</time>
      </trkpt>
      <trkpt lat="47.64346" lon="-3.06565">
        <ele>19.79999923706</ele>
        <time>2021-09-23T07:56:00.109Z</time>
      </trkpt>
      <trkpt lat="47.64363" lon="-3.06563">
        <ele>19.79999923706</ele>
        <time>2021-09-23T07:56:02.813Z</time>
      </trkpt>
      <trkpt lat="47.64381" lon="-3.06549">
        <ele>19.20000076294</ele>
        <time>2021-09-23T07:56:05.523Z</time>
      </trkpt>
      <trkpt lat="47.64382" lon="-3.06547">
        <ele>19.20000076294</ele>
        <time>2021-09-23T07:56:08.234Z</time>
      </trkpt>
      <trkpt lat="47.64387" lon="-3.06543">
        <ele>19</ele>
        <time>2021-09-23T07:56:10.947Z</time>
      </trkpt>
      <trkpt lat="47.64391" lon="-3.06539">
        <ele>19</ele>
        <time>2021-09-23T07:56:13.661Z</time>
      </trkpt>
      <trkpt lat="47.64395" lon="-3.06536">
        <ele>19</ele>
        <time>2021-09-23T07:56:16.376Z</time>
      </trkpt>
      <trkpt lat="47.64408" lon="-3.06532">
        <ele>19</ele>
        <time>2021-09-23T07:56:19.095Z</time>
      </trkpt>
      <trkpt lat="47.64427" lon="-3.0653">
        <ele>19.20000076294</ele>
        <time>2021-09-23T07:56:21.820Z</time>
      </trkpt>
      <trkpt lat="47.64434" lon="-3.06528">
        <ele>19.39999961853</ele>
        <time>2021-09-23T07:56:24.547Z</time>
      </trkpt>
      <trkpt lat="47.64436" lon="-3.06527">
        <ele>19.60000038147</ele>
        <time>2021-09-23T07:56:27.275Z</time>
      </trkpt>
      <trkpt lat="47.64437" lon="-3.06524">
        <ele>19.60000038147</ele>
        <time>2021-09-23T07:56:30.004Z</time>
      </trkpt>
      <trkpt lat="47.64444" lon="-3.0652">
        <ele>19.79999923706</ele>
        <time>2021-09-23T07:56:32.735Z</time>
      </trkpt>
      <trkpt lat="47.64448" lon="-3.06516">
        <ele>20</ele>
        <time>2021-09-23T07:56:35.467Z</time>
      </trkpt>
      <trkpt lat="47.64453" lon="-3.06511">
        <ele>20</ele>
        <time>2021-09-23T07:56:38.201Z</time>
      </trkpt>
      <trkpt lat="47.64455" lon="-3.06509">
        <ele>20</ele>
        <time>2021-09-23T07:56:40.936Z</time>
      </trkpt>
      <trkpt lat="47.64466" lon="-3.06494">
        <ele>20</ele>
        <time>2021-09-23T07:56:43.675Z</time>
      </trkpt>
      <trkpt lat="47.64474" lon="-3.06482">
        <ele>20.20000076294</ele>
        <time>2021-09-23T07:56:46.418Z</time>
      </trkpt>
      <trkpt lat="47.64482" lon="-3.06474">
        <ele>20.60000038147</ele>
        <time>2021-09-23T07:56:49.163Z</time>
      </trkpt>
      <trkpt lat="47.64483" lon="-3.06471">
        <ele>20.60000038147</ele>
        <time>2021-09-23T07:56:51.909Z</time>
      </trkpt>
      <trkpt lat="47.64484" lon="-3.06469">
        <ele>20.60000038147</ele>
        <time>2021-09-23T07:56:54.656Z</time>
      </trkpt>
      <trkpt lat="47.64489" lon="-3.06459">
        <ele>21</ele>
        <time>2021-09-23T07:56:57.405Z</time>
      </trkpt>
      <trkpt lat="47.64497" lon="-3.06446">
        <ele>21</ele>
        <time>2021-09-23T07:57:00.158Z</time>
      </trkpt>
      <trkpt lat="47.64498" lon="-3.06442">
        <ele>21</ele>
        <time>2021-09-23T07:57:02.911Z</time>
      </trkpt>
      <trkpt lat="47.64511" lon="-3.06424">
        <ele>21.60000038147</ele>
        <time>2021-09-23T07:57:05.670Z</time>
      </trkpt>
      <trkpt lat="47.64511" lon="-3.06424">
        <ele>21.60000038147</ele>
        <time>2021-09-23T07:57:08.429Z</time>
      </trkpt>
      <trkpt lat="47.64509" lon="-3.064">
        <ele>22.39999961853</ele>
        <time>2021-09-23T07:57:11.193Z</time>
      </trkpt>
      <trkpt lat="47.64513" lon="-3.06365">
        <ele>23</ele>
        <time>2021-09-23T07:57:13.964Z</time>
      </trkpt>
      <trkpt lat="47.64515" lon="-3.06349">
        <ele>23.79999923706</ele>
        <time>2021-09-23T07:57:16.738Z</time>
      </trkpt>
      <trkpt lat="47.64519" lon="-3.06345">
        <ele>24.20000076294</ele>
        <time>2021-09-23T07:57:19.514Z</time>
      </trkpt>
      <trkpt lat="47.64531" lon="-3.06345">
        <ele>25.20000076294</ele>
        <time>2021-09-23T07:57:22.293Z</time>
      </trkpt>
      <trkpt lat="47.64535" lon="-3.06331">
        <ele>25.60000038147</ele>
        <time>2021-09-23T07:57:25.075Z</time>
      </trkpt>
      <trkpt lat="47.64536" lon="-3.06327">
        <ele>25.79999923706</ele>
        <time>2021-09-23T07:57:27.858Z</time>
      </trkpt>
      <trkpt lat="47.64537" lon="-3.06303">
        <ele>26.20000076294</ele>
        <time>2021-09-23T07:57:30.646Z</time>
      </trkpt>
      <trkpt lat="47.6454" lon="-3.06281">
        <ele>26</ele>
        <time>2021-09-23T07:57:33.439Z</time>
      </trkpt>
      <trkpt lat="47.64541" lon="-3.06258">
        <ele>25.79999923706</ele>
        <time>2021-09-23T07:57:36.236Z</time>
      </trkpt>
      <trkpt lat="47.6454" lon="-3.06234">
        <ele>25</ele>
        <time>2021-09-23T07:57:39.038Z</time>
      </trkpt>
      <trkpt lat="47.6454" lon="-3.06216">
        <ele>25</ele>
        <time>2021-09-23T07:57:41.844Z</time>
      </trkpt>
      <trkpt lat="47.64539" lon="-3.06177">
        <ele>25</ele>
        <time>2021-09-23T07:57:44.658Z</time>
      </trkpt>
      <trkpt lat="47.64538" lon="-3.06146">
        <ele>25.20000076294</ele>
        <time>2021-09-23T07:57:47.478Z</time>
      </trkpt>
      <trkpt lat="47.64538" lon="-3.06118">
        <ele>26.39999961853</ele>
        <time>2021-09-23T07:57:50.303Z</time>
      </trkpt>
      <trkpt lat="47.64537" lon="-3.06099">
        <ele>27</ele>
        <time>2021-09-23T07:57:53.132Z</time>
      </trkpt>
      <trkpt lat="47.64537" lon="-3.06082">
        <ele>27</ele>
        <time>2021-09-23T07:57:55.965Z</time>
      </trkpt>
      <trkpt lat="47.64538" lon="-3.06059">
        <ele>26.79999923706</ele>
        <time>2021-09-23T07:57:58.802Z</time>
      </trkpt>
      <trkpt lat="47.6454" lon="-3.06047">
        <ele>26.39999961853</ele>
        <time>2021-09-23T07:58:01.642Z</time>
      </trkpt>
      <trkpt lat="47.64547" lon="-3.06031">
        <ele>26.60000038147</ele>
        <time>2021-09-23T07:58:04.486Z</time>
      </trkpt>
      <trkpt lat="47.64559" lon="-3.06004">
        <ele>26.60000038147</ele>
        <time>2021-09-23T07:58:07.336Z</time>
      </trkpt>
      <trkpt lat="47.64567" lon="-3.05985">
        <ele>26</ele>
        <time>2021-09-23T07:58:10.191Z</time>
      </trkpt>
      <trkpt lat="47.64576" lon="-3.05964">
        <ele>25.39999961853</ele>
        <time>2021-09-23T07:58:13.051Z</time>
      </trkpt>
      <trkpt lat="47.64581" lon="-3.05943">
        <ele>25.20000076294</ele>
        <time>2021-09-23T07:58:15.915Z</time>
      </trkpt>
      <trkpt lat="47.64586" lon="-3.05923">
        <ele>25.39999961853</ele>
        <time>2021-09-23T07:58:18.783Z</time>
      </trkpt>
      <trkpt lat="47.64589" lon="-3.05907">
        <ele>25.79999923706</ele>
        <time>2021-09-23T07:58:21.655Z</time>
      </trkpt>
      <trkpt lat="47.64592" lon="-3.05896">
        <ele>26.39999961853</ele>
        <time>2021-09-23T07:58:24.529Z</time>
      </trkpt>
      <trkpt lat="47.64592" lon="-3.05892">
        <ele>26.79999923706</ele>
        <time>2021-09-23T07:58:27.404Z</time>
      </trkpt>
      <trkpt lat="47.64597" lon="-3.05872">
        <ele>27.79999923706</ele>
        <time>2021-09-23T07:58:30.283Z</time>
      </trkpt>
      <trkpt lat="47.64599" lon="-3.05862">
        <ele>28</ele>
        <time>2021-09-23T07:58:33.164Z</time>
      </trkpt>
      <trkpt lat="47.646" lon="-3.05852">
        <ele>28</ele>
        <time>2021-09-23T07:58:36.047Z</time>
      </trkpt>
      <trkpt lat="47.64601" lon="-3.0583">
        <ele>28.39999961853</ele>
        <time>2021-09-23T07:58:38.935Z</time>
      </trkpt>
      <trkpt lat="47.64603" lon="-3.05802">
        <ele>27.79999923706</ele>
        <time>2021-09-23T07:58:41.828Z</time>
      </trkpt>
      <trkpt lat="47.64604" lon="-3.05787">
        <ele>27.60000038147</ele>
        <time>2021-09-23T07:58:44.724Z</time>
      </trkpt>
      <trkpt lat="47.64605" lon="-3.05765">
        <ele>28</ele>
        <time>2021-09-23T07:58:47.625Z</time>
      </trkpt>
      <trkpt lat="47.64609" lon="-3.05735">
        <ele>28.20000076294</ele>
        <time>2021-09-23T07:58:50.532Z</time>
      </trkpt>
      <trkpt lat="47.64612" lon="-3.0572">
        <ele>28.60000038147</ele>
        <time>2021-09-23T07:58:53.442Z</time>
      </trkpt>
      <trkpt lat="47.64613" lon="-3.05716">
        <ele>28.79999923706</ele>
        <time>2021-09-23T07:58:56.353Z</time>
      </trkpt>
      <trkpt lat="47.64615" lon="-3.057">
        <ele>29.79999923706</ele>
        <time>2021-09-23T07:58:59.267Z</time>
      </trkpt>
      <trkpt lat="47.64619" lon="-3.05679">
        <ele>31.20000076294</ele>
        <time>2021-09-23T07:59:02.186Z</time>
      </trkpt>
      <trkpt lat="47.64621" lon="-3.05668">
        <ele>31.60000038147</ele>
        <time>2021-09-23T07:59:05.107Z</time>
      </trkpt>
      <trkpt lat="47.64621" lon="-3.05665">
        <ele>31.79999923706</ele>
        <time>2021-09-23T07:59:08.029Z</time>
      </trkpt>
      <trkpt lat="47.64625" lon="-3.05642">
        <ele>32.40000152588</ele>
        <time>2021-09-23T07:59:10.955Z</time>
      </trkpt>
      <trkpt lat="47.64629" lon="-3.05624">
        <ele>33</ele>
        <time>2021-09-23T07:59:13.885Z</time>
      </trkpt>
      <trkpt lat="47.64631" lon="-3.05605">
        <ele>33</ele>
        <time>2021-09-23T07:59:16.819Z</time>
      </trkpt>
      <trkpt lat="47.64632" lon="-3.05591">
        <ele>32.79999923706</ele>
        <time>2021-09-23T07:59:19.756Z</time>
      </trkpt>
      <trkpt lat="47.64633" lon="-3.05582">
        <ele>32.40000152588</ele>
        <time>2021-09-23T07:59:22.695Z</time>
      </trkpt>
      <trkpt lat="47.64634" lon="-3.05564">
        <ele>32.40000152588</ele>
        <time>2021-09-23T07:59:25.637Z</time>
      </trkpt>
      <trkpt lat="47.64634" lon="-3.05561">
        <ele>32.40000152588</ele>
        <time>2021-09-23T07:59:28.580Z</time>
      </trkpt>
      <trkpt lat="47.64635" lon="-3.05554">
        <ele>32.20000076294</ele>
        <time>2021-09-23T07:59:31.524Z</time>
      </trkpt>
      <trkpt lat="47.64635" lon="-3.05544">
        <ele>32</ele>
        <time>2021-09-23T07:59:34.470Z</time>
      </trkpt>
      <trkpt lat="47.64635" lon="-3.05522">
        <ele>32</ele>
        <time>2021-09-23T07:59:37.421Z</time>
      </trkpt>
      <trkpt lat="47.64634" lon="-3.05499">
        <ele>32</ele>
        <time>2021-09-23T07:59:40.377Z</time>
      </trkpt>
      <trkpt lat="47.64634" lon="-3.05487">
        <ele>32</ele>
        <time>2021-09-23T07:59:43.335Z</time>
      </trkpt>
      <trkpt lat="47.64633" lon="-3.0547">
        <ele>32.59999847412</ele>
        <time>2021-09-23T07:59:46.296Z</time>
      </trkpt>
      <trkpt lat="47.64633" lon="-3.05461">
        <ele>33</ele>
        <time>2021-09-23T07:59:49.259Z</time>
      </trkpt>
      <trkpt lat="47.64633" lon="-3.05458">
        <ele>33</ele>
        <time>2021-09-23T07:59:52.223Z</time>
      </trkpt>
      <trkpt lat="47.64633" lon="-3.05445">
        <ele>33.59999847412</ele>
        <time>2021-09-23T07:59:55.189Z</time>
      </trkpt>
      <trkpt lat="47.64632" lon="-3.05435">
        <ele>33.79999923706</ele>
        <time>2021-09-23T07:59:58.157Z</time>
      </trkpt>
      <trkpt lat="47.64632" lon="-3.05418">
        <ele>34</ele>
        <time>2021-09-23T08:00:01.129Z</time>
      </trkpt>
      <trkpt lat="47.64632" lon="-3.05414">
        <ele>34</ele>
        <time>2021-09-23T08:00:04.102Z</time>
      </trkpt>
      <trkpt lat="47.64631" lon="-3.05396">
        <ele>34.79999923706</ele>
        <time>2021-09-23T08:00:07.078Z</time>
      </trkpt>
      <trkpt lat="47.64633" lon="-3.05374">
        <ele>34.59999847412</ele>
        <time>2021-09-23T08:00:10.059Z</time>
      </trkpt>
      <trkpt lat="47.64634" lon="-3.05367">
        <ele>34.59999847412</ele>
        <time>2021-09-23T08:00:13.041Z</time>
      </trkpt>
      <trkpt lat="47.64635" lon="-3.0536">
        <ele>34.79999923706</ele>
        <time>2021-09-23T08:00:16.025Z</time>
      </trkpt>
      <trkpt lat="47.6464" lon="-3.0534">
        <ele>35.20000076294</ele>
        <time>2021-09-23T08:00:19.013Z</time>
      </trkpt>
      <trkpt lat="47.64646" lon="-3.0533">
        <ele>35.59999847412</ele>
        <time>2021-09-23T08:00:22.004Z</time>
      </trkpt>
      <trkpt lat="47.64659" lon="-3.05317">
        <ele>36</ele>
        <time>2021-09-23T08:00:24.999Z</time>
      </trkpt>
      <trkpt lat="47.64659" lon="-3.05313">
        <ele>36</ele>
        <time>2021-09-23T08:00:27.995Z</time>
      </trkpt>
      <trkpt lat="47.64663" lon="-3.05294">
        <ele>36</ele>
        <time>2021-09-23T08:00:30.995Z</time>
      </trkpt>
      <trkpt lat="47.64665" lon="-3.05271">
        <ele>36.79999923706</ele>
        <time>2021-09-23T08:00:34.000Z</time>
      </trkpt>
      <trkpt lat="47.64664" lon="-3.05249">
        <ele>36.79999923706</ele>
        <time>2021-09-23T08:00:37.009Z</time>
      </trkpt>
      <trkpt lat="47.64664" lon="-3.05235">
        <ele>36.79999923706</ele>
        <time>2021-09-23T08:00:40.021Z</time>
      </trkpt>
      <trkpt lat="47.64664" lon="-3.05232">
        <ele>37</ele>
        <time>2021-09-23T08:00:43.033Z</time>
      </trkpt>
      <trkpt lat="47.64663" lon="-3.05222">
        <ele>37.20000076294</ele>
        <time>2021-09-23T08:00:46.047Z</time>
      </trkpt>
      <trkpt lat="47.64663" lon="-3.05215">
        <ele>37.40000152588</ele>
        <time>2021-09-23T08:00:49.063Z</time>
      </trkpt>
      <trkpt lat="47.64653" lon="-3.05204">
        <ele>37</ele>
        <time>2021-09-23T08:00:52.083Z</time>
      </trkpt>
      <trkpt lat="47.64642" lon="-3.05192">
        <ele>36.59999847412</ele>
        <time>2021-09-23T08:00:55.107Z</time>
      </trkpt>
      <trkpt lat="47.64635" lon="-3.05178">
        <ele>37</ele>
        <time>2021-09-23T08:00:58.134Z</time>
      </trkpt>
      <trkpt lat="47.64631" lon="-3.05166">
        <ele>37.79999923706</ele>
        <time>2021-09-23T08:01:01.164Z</time>
      </trkpt>
      <trkpt lat="47.64625" lon="-3.05142">
        <ele>39.20000076294</ele>
        <time>2021-09-23T08:01:04.199Z</time>
      </trkpt>
      <trkpt lat="47.64625" lon="-3.05137">
        <ele>39.40000152588</ele>
        <time>2021-09-23T08:01:07.235Z</time>
      </trkpt>
      <trkpt lat="47.64623" lon="-3.05126">
        <ele>39.59999847412</ele>
        <time>2021-09-23T08:01:10.273Z</time>
      </trkpt>
      <trkpt lat="47.64621" lon="-3.05108">
        <ele>40.20000076294</ele>
        <time>2021-09-23T08:01:13.315Z</time>
      </trkpt>
      <trkpt lat="47.64621" lon="-3.05098">
        <ele>40.40000152588</ele>
        <time>2021-09-23T08:01:16.359Z</time>
      </trkpt>
      <trkpt lat="47.64627" lon="-3.05086">
        <ele>41.40000152588</ele>
        <time>2021-09-23T08:01:19.406Z</time>
      </trkpt>
      <trkpt lat="47.64629" lon="-3.05083">
        <ele>41.59999847412</ele>
        <time>2021-09-23T08:01:22.454Z</time>
      </trkpt>
      <trkpt lat="47.64632" lon="-3.05076">
        <ele>42</ele>
        <time>2021-09-23T08:01:25.503Z</time>
      </trkpt>
      <trkpt lat="47.64633" lon="-3.05052">
        <ele>42.40000152588</ele>
        <time>2021-09-23T08:01:28.557Z</time>
      </trkpt>
      <trkpt lat="47.64629" lon="-3.05033">
        <ele>42.79999923706</ele>
        <time>2021-09-23T08:01:31.615Z</time>
      </trkpt>
      <trkpt lat="47.64625" lon="-3.05019">
        <ele>42.79999923706</ele>
        <time>2021-09-23T08:01:34.676Z</time>
      </trkpt>
      <trkpt lat="47.64624" lon="-3.05014">
        <ele>42.59999847412</ele>
        <time>2021-09-23T08:01:37.738Z</time>
      </trkpt>
      <trkpt lat="47.64617" lon="-3.04997">
        <ele>42.20000076294</ele>
        <time>2021-09-23T08:01:40.804Z</time>
      </trkpt>
      <trkpt lat="47.64607" lon="-3.04981">
        <ele>41.59999847412</ele>
        <time>2021-09-23T08:01:43.875Z</time>
      </trkpt>
      <trkpt lat="47.646" lon="-3.04956">
        <ele>41.40000152588</ele>
        <time>2021-09-23T08:01:46.951Z</time>
      </trkpt>
      <trkpt lat="47.64595" lon="-3.04935">
        <ele>41.40000152588</ele>
        <time>2021-09-23T08:01:50.032Z</time>
      </trkpt>
      <trkpt lat="47.64593" lon="-3.04923">
        <ele>41.40000152588</ele>
        <time>2021-09-23T08:01:53.115Z</time>
      </trkpt>
      <trkpt lat="47.6459" lon="-3.0491">
        <ele>41.20000076294</ele>
        <time>2021-09-23T08:01:56.201Z</time>
      </trkpt>
      <trkpt lat="47.64588" lon="-3.04902">
        <ele>41</ele>
        <time>2021-09-23T08:01:59.289Z</time>
      </trkpt>
      <trkpt lat="47.64587" lon="-3.04894">
        <ele>41</ele>
        <time>2021-09-23T08:02:02.378Z</time>
      </trkpt>
      <trkpt lat="47.64596" lon="-3.04885">
        <ele>41.59999847412</ele>
        <time>2021-09-23T08:02:05.470Z</time>
      </trkpt>
      <trkpt lat="47.64611" lon="-3.04878">
        <ele>42.79999923706</ele>
        <time>2021-09-23T08:02:08.567Z</time>
      </trkpt>
      <trkpt lat="47.64626" lon="-3.04873">
        <ele>44.20000076294</ele>
        <time>2021-09-23T08:02:11.669Z</time>
      </trkpt>
      <trkpt lat="47.64639" lon="-3.04868">
        <ele>45.59999847412</ele>
        <time>2021-09-23T08:02:14.775Z</time>
      </trkpt>
      <trkpt lat="47.64649" lon="-3.04864">
        <ele>46.40000152588</ele>
        <time>2021-09-23T08:02:17.884Z</time>
      </trkpt>
      <trkpt lat="47.64663" lon="-3.04857">
        <ele>47.40000152588</ele>
        <time>2021-09-23T08:02:20.997Z</time>
      </trkpt>
      <trkpt lat="47.64679" lon="-3.04847">
        <ele>48.40000152588</ele>
        <time>2021-09-23T08:02:24.116Z</time>
      </trkpt>
      <trkpt lat="47.64702" lon="-3.04832">
        <ele>49.20000076294</ele>
        <time>2021-09-23T08:02:27.242Z</time>
      </trkpt>
      <trkpt lat="47.64716" lon="-3.04824">
        <ele>49.59999847412</ele>
        <time>2021-09-23T08:02:30.372Z</time>
      </trkpt>
      <trkpt lat="47.6474" lon="-3.04808">
        <ele>51</ele>
        <time>2021-09-23T08:02:33.510Z</time>
      </trkpt>
      <trkpt lat="47.64758" lon="-3.04797">
        <ele>51.79999923706</ele>
        <time>2021-09-23T08:02:36.654Z</time>
      </trkpt>
      <trkpt lat="47.64772" lon="-3.04783">
        <ele>52.40000152588</ele>
        <time>2021-09-23T08:02:39.803Z</time>
      </trkpt>
      <trkpt lat="47.64784" lon="-3.04772">
        <ele>52.79999923706</ele>
        <time>2021-09-23T08:02:42.956Z</time>
      </trkpt>
      <trkpt lat="47.64794" lon="-3.04761">
        <ele>52.79999923706</ele>
        <time>2021-09-23T08:02:46.113Z</time>
      </trkpt>
      <trkpt lat="47.64809" lon="-3.04746">
        <ele>52.40000152588</ele>
        <time>2021-09-23T08:02:49.275Z</time>
      </trkpt>
      <trkpt lat="47.64834" lon="-3.04736">
        <ele>53.79999923706</ele>
        <time>2021-09-23T08:02:52.445Z</time>
      </trkpt>
      <trkpt lat="47.64838" lon="-3.04736">
        <ele>54</ele>
        <time>2021-09-23T08:02:55.616Z</time>
      </trkpt>
      <trkpt lat="47.64838" lon="-3.04717">
        <ele>54</ele>
        <time>2021-09-23T08:02:58.791Z</time>
      </trkpt>
      <trkpt lat="47.6484" lon="-3.04706">
        <ele>54.20000076294</ele>
        <time>2021-09-23T08:03:01.968Z</time>
      </trkpt>
      <trkpt lat="47.64841" lon="-3.04705">
        <ele>54.20000076294</ele>
        <time>2021-09-23T08:03:05.146Z</time>
      </trkpt>
      <trkpt lat="47.64841" lon="-3.04704">
        <ele>54.20000076294</ele>
        <time>2021-09-23T08:03:08.324Z</time>
      </trkpt>
      <trkpt lat="47.64841" lon="-3.04704">
        <ele>54.20000076294</ele>
        <time>2021-09-23T08:03:11.502Z</time>
      </trkpt>
      <trkpt lat="47.64841" lon="-3.04703">
        <ele>54.20000076294</ele>
        <time>2021-09-23T08:03:14.680Z</time>
      </trkpt>
      <trkpt lat="47.6484" lon="-3.04702">
        <ele>54.20000076294</ele>
        <time>2021-09-23T08:03:17.858Z</time>
      </trkpt>
      <trkpt lat="47.64841" lon="-3.04702">
        <ele>54.20000076294</ele>
        <time>2021-09-23T08:03:21.037Z</time>
      </trkpt>
      <trkpt lat="47.6484" lon="-3.04699">
        <ele>54</ele>
        <time>2021-09-23T08:03:24.216Z</time>
      </trkpt>
      <trkpt lat="47.64841" lon="-3.04686">
        <ele>54.20000076294</ele>
        <time>2021-09-23T08:03:27.398Z</time>
      </trkpt>
      <trkpt lat="47.64841" lon="-3.04681">
        <ele>54.20000076294</ele>
        <time>2021-09-23T08:03:30.581Z</time>
      </trkpt>
      <trkpt lat="47.64841" lon="-3.04677">
        <ele>54.20000076294</ele>
        <time>2021-09-23T08:03:33.765Z</time>
      </trkpt>
      <trkpt lat="47.6484" lon="-3.04659">
        <ele>54</ele>
        <time>2021-09-23T08:03:36.952Z</time>
      </trkpt>
      <trkpt lat="47.64838" lon="-3.04638">
        <ele>54</ele>
        <time>2021-09-23T08:03:40.143Z</time>
      </trkpt>
      <trkpt lat="47.64837" lon="-3.04615">
        <ele>54</ele>
        <time>2021-09-23T08:03:43.339Z</time>
      </trkpt>
      <trkpt lat="47.64841" lon="-3.04595">
        <ele>54.20000076294</ele>
        <time>2021-09-23T08:03:46.540Z</time>
      </trkpt>
      <trkpt lat="47.64845" lon="-3.04578">
        <ele>54.20000076294</ele>
        <time>2021-09-23T08:03:49.744Z</time>
      </trkpt>
      <trkpt lat="47.64847" lon="-3.04576">
        <ele>54.40000152588</ele>
        <time>2021-09-23T08:03:52.949Z</time>
      </trkpt>
      <trkpt lat="47.64857" lon="-3.04575">
        <ele>54.59999847412</ele>
        <time>2021-09-23T08:03:56.157Z</time>
      </trkpt>
      <trkpt lat="47.64868" lon="-3.04568">
        <ele>55</ele>
        <time>2021-09-23T08:03:59.368Z</time>
      </trkpt>
      <trkpt lat="47.64883" lon="-3.04562">
        <ele>55.59999847412</ele>
        <time>2021-09-23T08:04:02.584Z</time>
      </trkpt>
      <trkpt lat="47.64897" lon="-3.04567">
        <ele>56.79999923706</ele>
        <time>2021-09-23T08:04:05.804Z</time>
      </trkpt>
      <trkpt lat="47.64915" lon="-3.04574">
        <ele>56.20000076294</ele>
        <time>2021-09-23T08:04:09.030Z</time>
      </trkpt>
      <trkpt lat="47.64925" lon="-3.04574">
        <ele>55.59999847412</ele>
        <time>2021-09-23T08:04:12.259Z</time>
      </trkpt>
      <trkpt lat="47.64925" lon="-3.04572">
        <ele>55.59999847412</ele>
        <time>2021-09-23T08:04:15.488Z</time>
      </trkpt>
      <trkpt lat="47.64924" lon="-3.04565">
        <ele>55.59999847412</ele>
        <time>2021-09-23T08:04:18.719Z</time>
      </trkpt>
      <trkpt lat="47.64923" lon="-3.04549">
        <ele>55</ele>
        <time>2021-09-23T08:04:21.953Z</time>
      </trkpt>
      <trkpt lat="47.64912" lon="-3.04526">
        <ele>53.20000076294</ele>
        <time>2021-09-23T08:04:25.193Z</time>
      </trkpt>
      <trkpt lat="47.64888" lon="-3.04493">
        <ele>50.59999847412</ele>
        <time>2021-09-23T08:04:28.443Z</time>
      </trkpt>
      <trkpt lat="47.64854" lon="-3.04461">
        <ele>49.20000076294</ele>
        <time>2021-09-23T08:04:31.705Z</time>
      </trkpt>
      <trkpt lat="47.64846" lon="-3.04456">
        <ele>48.40000152588</ele>
        <time>2021-09-23T08:04:34.969Z</time>
      </trkpt>
      <trkpt lat="47.64821" lon="-3.0444">
        <ele>46.79999923706</ele>
        <time>2021-09-23T08:04:38.241Z</time>
      </trkpt>
      <trkpt lat="47.64811" lon="-3.04431">
        <ele>45.79999923706</ele>
        <time>2021-09-23T08:04:41.517Z</time>
      </trkpt>
      <trkpt lat="47.64799" lon="-3.0441">
        <ele>44.20000076294</ele>
        <time>2021-09-23T08:04:44.798Z</time>
      </trkpt>
      <trkpt lat="47.64793" lon="-3.04399">
        <ele>44.40000152588</ele>
        <time>2021-09-23T08:04:48.082Z</time>
      </trkpt>
      <trkpt lat="47.64774" lon="-3.04356">
        <ele>46.20000076294</ele>
        <time>2021-09-23T08:04:51.377Z</time>
      </trkpt>
      <trkpt lat="47.6477" lon="-3.04346">
        <ele>47</ele>
        <time>2021-09-23T08:04:54.674Z</time>
      </trkpt>
      <trkpt lat="47.64768" lon="-3.04324">
        <ele>46.20000076294</ele>
        <time>2021-09-23T08:04:57.975Z</time>
      </trkpt>
      <trkpt lat="47.64768" lon="-3.04317">
        <ele>45.59999847412</ele>
        <time>2021-09-23T08:05:01.278Z</time>
      </trkpt>
      <trkpt lat="47.64769" lon="-3.04312">
        <ele>45.20000076294</ele>
        <time>2021-09-23T08:05:04.582Z</time>
      </trkpt>
      <trkpt lat="47.64755" lon="-3.04304">
        <ele>47</ele>
        <time>2021-09-23T08:05:07.890Z</time>
      </trkpt>
      <trkpt lat="47.64743" lon="-3.04287">
        <ele>46.59999847412</ele>
        <time>2021-09-23T08:05:11.203Z</time>
      </trkpt>
      <trkpt lat="47.64732" lon="-3.04253">
        <ele>44.59999847412</ele>
        <time>2021-09-23T08:05:14.524Z</time>
      </trkpt>
      <trkpt lat="47.64718" lon="-3.04204">
        <ele>40.59999847412</ele>
        <time>2021-09-23T08:05:17.855Z</time>
      </trkpt>
      <trkpt lat="47.64703" lon="-3.0415">
        <ele>37.59999847412</ele>
        <time>2021-09-23T08:05:21.198Z</time>
      </trkpt>
      <trkpt lat="47.64688" lon="-3.04101">
        <ele>36.40000152588</ele>
        <time>2021-09-23T08:05:24.552Z</time>
      </trkpt>
      <trkpt lat="47.64678" lon="-3.04067">
        <ele>36</ele>
        <time>2021-09-23T08:05:27.914Z</time>
      </trkpt>
      <trkpt lat="47.64667" lon="-3.04034">
        <ele>36</ele>
        <time>2021-09-23T08:05:31.283Z</time>
      </trkpt>
      <trkpt lat="47.64651" lon="-3.03982">
        <ele>36.79999923706</ele>
        <time>2021-09-23T08:05:34.663Z</time>
      </trkpt>
      <trkpt lat="47.64641" lon="-3.03954">
        <ele>39.20000076294</ele>
        <time>2021-09-23T08:05:38.050Z</time>
      </trkpt>
      <trkpt lat="47.64633" lon="-3.03931">
        <ele>39.59999847412</ele>
        <time>2021-09-23T08:05:41.442Z</time>
      </trkpt>
      <trkpt lat="47.64624" lon="-3.03905">
        <ele>38.40000152588</ele>
        <time>2021-09-23T08:05:44.840Z</time>
      </trkpt>
      <trkpt lat="47.64606" lon="-3.03892">
        <ele>36.40000152588</ele>
        <time>2021-09-23T08:05:48.244Z</time>
      </trkpt>
      <trkpt lat="47.64602" lon="-3.03884">
        <ele>35.79999923706</ele>
        <time>2021-09-23T08:05:51.650Z</time>
      </trkpt>
      <trkpt lat="47.64596" lon="-3.0389">
        <ele>35.79999923706</ele>
        <time>2021-09-23T08:05:55.058Z</time>
      </trkpt>
      <trkpt lat="47.64581" lon="-3.03904">
        <ele>35.79999923706</ele>
        <time>2021-09-23T08:05:58.471Z</time>
      </trkpt>
      <trkpt lat="47.6456" lon="-3.03923">
        <ele>35.59999847412</ele>
        <time>2021-09-23T08:06:01.892Z</time>
      </trkpt>
      <trkpt lat="47.64541" lon="-3.0394">
        <ele>36</ele>
        <time>2021-09-23T08:06:05.319Z</time>
      </trkpt>
      <trkpt lat="47.64538" lon="-3.03943">
        <ele>36</ele>
        <time>2021-09-23T08:06:08.748Z</time>
      </trkpt>
      <trkpt lat="47.64527" lon="-3.03953">
        <ele>36.59999847412</ele>
        <time>2021-09-23T08:06:12.180Z</time>
      </trkpt>
      <trkpt lat="47.64519" lon="-3.0396">
        <ele>37</ele>
        <time>2021-09-23T08:06:15.615Z</time>
      </trkpt>
      <trkpt lat="47.64507" lon="-3.03951">
        <ele>36.20000076294</ele>
        <time>2021-09-23T08:06:19.054Z</time>
      </trkpt>
      <trkpt lat="47.64486" lon="-3.03923">
        <ele>32.40000152588</ele>
        <time>2021-09-23T08:06:22.502Z</time>
      </trkpt>
      <trkpt lat="47.64478" lon="-3.03913">
        <ele>31.39999961853</ele>
        <time>2021-09-23T08:06:25.953Z</time>
      </trkpt>
      <trkpt lat="47.64466" lon="-3.03899">
        <ele>30.60000038147</ele>
        <time>2021-09-23T08:06:29.408Z</time>
      </trkpt>
      <trkpt lat="47.64443" lon="-3.03874">
        <ele>30.79999923706</ele>
        <time>2021-09-23T08:06:32.872Z</time>
      </trkpt>
      <trkpt lat="47.6444" lon="-3.0387">
        <ele>30.60000038147</ele>
        <time>2021-09-23T08:06:36.337Z</time>
      </trkpt>
      <trkpt lat="47.64423" lon="-3.03849">
        <ele>31</ele>
        <time>2021-09-23T08:06:39.809Z</time>
      </trkpt>
      <trkpt lat="47.64418" lon="-3.03846">
        <ele>30.79999923706</ele>
        <time>2021-09-23T08:06:43.282Z</time>
      </trkpt>
      <trkpt lat="47.64395" lon="-3.03821">
        <ele>30</ele>
        <time>2021-09-23T08:06:46.764Z</time>
      </trkpt>
      <trkpt lat="47.64369" lon="-3.03794">
        <ele>26.39999961853</ele>
        <time>2021-09-23T08:06:50.255Z</time>
      </trkpt>
      <trkpt lat="47.64331" lon="-3.03748">
        <ele>23.20000076294</ele>
        <time>2021-09-23T08:06:53.761Z</time>
      </trkpt>
      <trkpt lat="47.64304" lon="-3.03716">
        <ele>22.39999961853</ele>
        <time>2021-09-23T08:06:57.277Z</time>
      </trkpt>
      <trkpt lat="47.64297" lon="-3.03712">
        <ele>22.60000038147</ele>
        <time>2021-09-23T08:07:00.795Z</time>
      </trkpt>
      <trkpt lat="47.64291" lon="-3.03711">
        <ele>22.79999923706</ele>
        <time>2021-09-23T08:07:04.315Z</time>
      </trkpt>
      <trkpt lat="47.64281" lon="-3.03707">
        <ele>23</ele>
        <time>2021-09-23T08:07:07.838Z</time>
      </trkpt>
      <trkpt lat="47.64265" lon="-3.03702">
        <ele>24</ele>
        <time>2021-09-23T08:07:11.366Z</time>
      </trkpt>
      <trkpt lat="47.64245" lon="-3.03698">
        <ele>25.20000076294</ele>
        <time>2021-09-23T08:07:14.900Z</time>
      </trkpt>
      <trkpt lat="47.64226" lon="-3.03692">
        <ele>27</ele>
        <time>2021-09-23T08:07:18.440Z</time>
      </trkpt>
      <trkpt lat="47.64212" lon="-3.03685">
        <ele>27.60000038147</ele>
        <time>2021-09-23T08:07:21.984Z</time>
      </trkpt>
      <trkpt lat="47.642" lon="-3.03678">
        <ele>27.79999923706</ele>
        <time>2021-09-23T08:07:25.532Z</time>
      </trkpt>
      <trkpt lat="47.6419" lon="-3.0368">
        <ele>27.60000038147</ele>
        <time>2021-09-23T08:07:29.083Z</time>
      </trkpt>
      <trkpt lat="47.64178" lon="-3.0368">
        <ele>27.20000076294</ele>
        <time>2021-09-23T08:07:32.638Z</time>
      </trkpt>
      <trkpt lat="47.64165" lon="-3.03681">
        <ele>26.20000076294</ele>
        <time>2021-09-23T08:07:36.197Z</time>
      </trkpt>
      <trkpt lat="47.6414" lon="-3.03692">
        <ele>24.60000038147</ele>
        <time>2021-09-23T08:07:39.763Z</time>
      </trkpt>
      <trkpt lat="47.64122" lon="-3.03714">
        <ele>24.60000038147</ele>
        <time>2021-09-23T08:07:43.336Z</time>
      </trkpt>
      <trkpt lat="47.6412" lon="-3.03727">
        <ele>25</ele>
        <time>2021-09-23T08:07:46.912Z</time>
      </trkpt>
      <trkpt lat="47.64118" lon="-3.03747">
        <ele>25.39999961853</ele>
        <time>2021-09-23T08:07:50.492Z</time>
      </trkpt>
      <trkpt lat="47.64119" lon="-3.03764">
        <ele>26</ele>
        <time>2021-09-23T08:07:54.075Z</time>
      </trkpt>
      <trkpt lat="47.64117" lon="-3.03781">
        <ele>26</ele>
        <time>2021-09-23T08:07:57.662Z</time>
      </trkpt>
      <trkpt lat="47.64113" lon="-3.03791">
        <ele>26</ele>
        <time>2021-09-23T08:08:01.251Z</time>
      </trkpt>
      <trkpt lat="47.64109" lon="-3.03795">
        <ele>26</ele>
        <time>2021-09-23T08:08:04.842Z</time>
      </trkpt>
      <trkpt lat="47.64107" lon="-3.03795">
        <ele>26</ele>
        <time>2021-09-23T08:08:08.433Z</time>
      </trkpt>
      <trkpt lat="47.641" lon="-3.03799">
        <ele>26</ele>
        <time>2021-09-23T08:08:12.027Z</time>
      </trkpt>
      <trkpt lat="47.64093" lon="-3.03802">
        <ele>26</ele>
        <time>2021-09-23T08:08:15.623Z</time>
      </trkpt>
      <trkpt lat="47.64089" lon="-3.03805">
        <ele>26</ele>
        <time>2021-09-23T08:08:19.220Z</time>
      </trkpt>
      <trkpt lat="47.6408" lon="-3.03809">
        <ele>26</ele>
        <time>2021-09-23T08:08:22.820Z</time>
      </trkpt>
      <trkpt lat="47.64065" lon="-3.03814">
        <ele>26</ele>
        <time>2021-09-23T08:08:26.425Z</time>
      </trkpt>
      <trkpt lat="47.64053" lon="-3.03815">
        <ele>26</ele>
        <time>2021-09-23T08:08:30.033Z</time>
      </trkpt>
      <trkpt lat="47.64044" lon="-3.03816">
        <ele>26</ele>
        <time>2021-09-23T08:08:33.644Z</time>
      </trkpt>
      <trkpt lat="47.64033" lon="-3.03816">
        <ele>26</ele>
        <time>2021-09-23T08:08:37.258Z</time>
      </trkpt>
      <trkpt lat="47.64025" lon="-3.03816">
        <ele>25.79999923706</ele>
        <time>2021-09-23T08:08:40.874Z</time>
      </trkpt>
      <trkpt lat="47.6402" lon="-3.03816">
        <ele>25.60000038147</ele>
        <time>2021-09-23T08:08:44.492Z</time>
      </trkpt>
      <trkpt lat="47.6401" lon="-3.03814">
        <ele>25.20000076294</ele>
        <time>2021-09-23T08:08:48.113Z</time>
      </trkpt>
      <trkpt lat="47.63998" lon="-3.03816">
        <ele>24.79999923706</ele>
        <time>2021-09-23T08:08:51.738Z</time>
      </trkpt>
      <trkpt lat="47.63978" lon="-3.03819">
        <ele>23.20000076294</ele>
        <time>2021-09-23T08:08:55.368Z</time>
      </trkpt>
      <trkpt lat="47.63962" lon="-3.03822">
        <ele>22.39999961853</ele>
        <time>2021-09-23T08:08:59.003Z</time>
      </trkpt>
      <trkpt lat="47.63944" lon="-3.03823">
        <ele>22</ele>
        <time>2021-09-23T08:09:02.644Z</time>
      </trkpt>
      <trkpt lat="47.63934" lon="-3.03828">
        <ele>22</ele>
        <time>2021-09-23T08:09:06.288Z</time>
      </trkpt>
      <trkpt lat="47.63931" lon="-3.03826">
        <ele>22</ele>
        <time>2021-09-23T08:09:09.933Z</time>
      </trkpt>
      <trkpt lat="47.63922" lon="-3.03824">
        <ele>22</ele>
        <time>2021-09-23T08:09:13.580Z</time>
      </trkpt>
      <trkpt lat="47.6391" lon="-3.03816">
        <ele>22.39999961853</ele>
        <time>2021-09-23T08:09:17.231Z</time>
      </trkpt>
      <trkpt lat="47.63894" lon="-3.03805">
        <ele>22.39999961853</ele>
        <time>2021-09-23T08:09:20.888Z</time>
      </trkpt>
      <trkpt lat="47.63892" lon="-3.03801">
        <ele>22.39999961853</ele>
        <time>2021-09-23T08:09:24.546Z</time>
      </trkpt>
      <trkpt lat="47.63885" lon="-3.03793">
        <ele>22</ele>
        <time>2021-09-23T08:09:28.206Z</time>
      </trkpt>
      <trkpt lat="47.63878" lon="-3.03773">
        <ele>21.79999923706</ele>
        <time>2021-09-23T08:09:31.871Z</time>
      </trkpt>
      <trkpt lat="47.63876" lon="-3.0376">
        <ele>21.20000076294</ele>
        <time>2021-09-23T08:09:35.538Z</time>
      </trkpt>
      <trkpt lat="47.63876" lon="-3.03739">
        <ele>20.39999961853</ele>
        <time>2021-09-23T08:09:39.210Z</time>
      </trkpt>
      <trkpt lat="47.63877" lon="-3.03725">
        <ele>20</ele>
        <time>2021-09-23T08:09:42.885Z</time>
      </trkpt>
      <trkpt lat="47.63876" lon="-3.03721">
        <ele>19.79999923706</ele>
        <time>2021-09-23T08:09:46.560Z</time>
      </trkpt>
      <trkpt lat="47.63883" lon="-3.03709">
        <ele>19.60000038147</ele>
        <time>2021-09-23T08:09:50.239Z</time>
      </trkpt>
      <trkpt lat="47.63887" lon="-3.0369">
        <ele>18.39999961853</ele>
        <time>2021-09-23T08:09:53.921Z</time>
      </trkpt>
      <trkpt lat="47.63887" lon="-3.03669">
        <ele>16.39999961853</ele>
        <time>2021-09-23T08:09:57.608Z</time>
      </trkpt>
      <trkpt lat="47.63883" lon="-3.03646">
        <ele>14</ele>
        <time>2021-09-23T08:10:01.300Z</time>
      </trkpt>
      <trkpt lat="47.63878" lon="-3.03631">
        <ele>12.80000019073</ele>
        <time>2021-09-23T08:10:04.995Z</time>
      </trkpt>
      <trkpt lat="47.63875" lon="-3.03611">
        <ele>11.60000038147</ele>
        <time>2021-09-23T08:10:08.694Z</time>
      </trkpt>
      <trkpt lat="47.63884" lon="-3.03572">
        <ele>11.39999961853</ele>
        <time>2021-09-23T08:10:12.401Z</time>
      </trkpt>
      <trkpt lat="47.63884" lon="-3.03543">
        <ele>12</ele>
        <time>2021-09-23T08:10:16.114Z</time>
      </trkpt>
      <trkpt lat="47.63884" lon="-3.03521">
        <ele>12.80000019073</ele>
        <time>2021-09-23T08:10:19.832Z</time>
      </trkpt>
      <trkpt lat="47.63889" lon="-3.03502">
        <ele>14.19999980927</ele>
        <time>2021-09-23T08:10:23.554Z</time>
      </trkpt>
      <trkpt lat="47.63895" lon="-3.03482">
        <ele>15.19999980927</ele>
        <time>2021-09-23T08:10:27.280Z</time>
      </trkpt>
      <trkpt lat="47.63902" lon="-3.03455">
        <ele>16.39999961853</ele>
        <time>2021-09-23T08:10:31.012Z</time>
      </trkpt>
      <trkpt lat="47.6391" lon="-3.03423">
        <ele>16</ele>
        <time>2021-09-23T08:10:34.751Z</time>
      </trkpt>
      <trkpt lat="47.63918" lon="-3.03395">
        <ele>16.20000076294</ele>
        <time>2021-09-23T08:10:38.496Z</time>
      </trkpt>
      <trkpt lat="47.63927" lon="-3.03383">
        <ele>17.39999961853</ele>
        <time>2021-09-23T08:10:42.244Z</time>
      </trkpt>
      <trkpt lat="47.63929" lon="-3.03379">
        <ele>17.79999923706</ele>
        <time>2021-09-23T08:10:45.994Z</time>
      </trkpt>
      <trkpt lat="47.6393" lon="-3.0337">
        <ele>18.20000076294</ele>
        <time>2021-09-23T08:10:49.745Z</time>
      </trkpt>
      <trkpt lat="47.6393" lon="-3.03367">
        <ele>18.39999961853</ele>
        <time>2021-09-23T08:10:53.497Z</time>
      </trkpt>
      <trkpt lat="47.6393" lon="-3.03354">
        <ele>19.39999961853</ele>
        <time>2021-09-23T08:10:57.252Z</time>
      </trkpt>
      <trkpt lat="47.63931" lon="-3.03344">
        <ele>19.79999923706</ele>
        <time>2021-09-23T08:11:01.009Z</time>
      </trkpt>
      <trkpt lat="47.63932" lon="-3.03324">
        <ele>21.20000076294</ele>
        <time>2021-09-23T08:11:04.770Z</time>
      </trkpt>
      <trkpt lat="47.63929" lon="-3.0331">
        <ele>21.39999961853</ele>
        <time>2021-09-23T08:11:08.534Z</time>
      </trkpt>
      <trkpt lat="47.63925" lon="-3.03294">
        <ele>22</ele>
        <time>2021-09-23T08:11:12.301Z</time>
      </trkpt>
      <trkpt lat="47.63955" lon="-3.0328">
        <ele>22.20000076294</ele>
        <time>2021-09-23T08:11:16.077Z</time>
      </trkpt>
      <trkpt lat="47.63961" lon="-3.03266">
        <ele>22.39999961853</ele>
        <time>2021-09-23T08:11:19.857Z</time>
      </trkpt>
      <trkpt lat="47.6397" lon="-3.03244">
        <ele>23</ele>
        <time>2021-09-23T08:11:23.642Z</time>
      </trkpt>
      <trkpt lat="47.63976" lon="-3.03228">
        <ele>23.39999961853</ele>
        <time>2021-09-23T08:11:27.431Z</time>
      </trkpt>
      <trkpt lat="47.63985" lon="-3.03205">
        <ele>24.20000076294</ele>
        <time>2021-09-23T08:11:31.225Z</time>
      </trkpt>
      <trkpt lat="47.63994" lon="-3.03181">
        <ele>24.60000038147</ele>
        <time>2021-09-23T08:11:35.025Z</time>
      </trkpt>
      <trkpt lat="47.64" lon="-3.0316">
        <ele>24</ele>
        <time>2021-09-23T08:11:38.829Z</time>
      </trkpt>
      <trkpt lat="47.64006" lon="-3.03143">
        <ele>23.60000038147</ele>
        <time>2021-09-23T08:11:42.637Z</time>
      </trkpt>
      <trkpt lat="47.64012" lon="-3.03113">
        <ele>23</ele>
        <time>2021-09-23T08:11:46.451Z</time>
      </trkpt>
      <trkpt lat="47.64017" lon="-3.03092">
        <ele>23.20000076294</ele>
        <time>2021-09-23T08:11:50.270Z</time>
      </trkpt>
      <trkpt lat="47.64018" lon="-3.03081">
        <ele>23.60000038147</ele>
        <time>2021-09-23T08:11:54.091Z</time>
      </trkpt>
      <trkpt lat="47.64018" lon="-3.03077">
        <ele>23.60000038147</ele>
        <time>2021-09-23T08:11:57.913Z</time>
      </trkpt>
      <trkpt lat="47.64025" lon="-3.03068">
        <ele>23.79999923706</ele>
        <time>2021-09-23T08:12:01.737Z</time>
      </trkpt>
      <trkpt lat="47.64028" lon="-3.03065">
        <ele>24.20000076294</ele>
        <time>2021-09-23T08:12:05.563Z</time>
      </trkpt>
      <trkpt lat="47.64029" lon="-3.03061">
        <ele>24.60000038147</ele>
        <time>2021-09-23T08:12:09.389Z</time>
      </trkpt>
      <trkpt lat="47.64037" lon="-3.03053">
        <ele>25</ele>
        <time>2021-09-23T08:12:13.218Z</time>
      </trkpt>
      <trkpt lat="47.64051" lon="-3.03041">
        <ele>25.39999961853</ele>
        <time>2021-09-23T08:12:17.052Z</time>
      </trkpt>
      <trkpt lat="47.64064" lon="-3.03028">
        <ele>25.79999923706</ele>
        <time>2021-09-23T08:12:20.891Z</time>
      </trkpt>
      <trkpt lat="47.64076" lon="-3.03014">
        <ele>26.39999961853</ele>
        <time>2021-09-23T08:12:24.734Z</time>
      </trkpt>
      <trkpt lat="47.64087" lon="-3.02992">
        <ele>26.79999923706</ele>
        <time>2021-09-23T08:12:28.583Z</time>
      </trkpt>
      <trkpt lat="47.64097" lon="-3.02964">
        <ele>27.39999961853</ele>
        <time>2021-09-23T08:12:32.438Z</time>
      </trkpt>
      <trkpt lat="47.64103" lon="-3.02939">
        <ele>28.20000076294</ele>
        <time>2021-09-23T08:12:36.298Z</time>
      </trkpt>
      <trkpt lat="47.64108" lon="-3.02919">
        <ele>28.20000076294</ele>
        <time>2021-09-23T08:12:40.163Z</time>
      </trkpt>
      <trkpt lat="47.64108" lon="-3.02917">
        <ele>28.20000076294</ele>
        <time>2021-09-23T08:12:44.028Z</time>
      </trkpt>
      <trkpt lat="47.64108" lon="-3.02909">
        <ele>28.20000076294</ele>
        <time>2021-09-23T08:12:47.895Z</time>
      </trkpt>
      <trkpt lat="47.64111" lon="-3.02901">
        <ele>28.20000076294</ele>
        <time>2021-09-23T08:12:51.764Z</time>
      </trkpt>
      <trkpt lat="47.64114" lon="-3.02893">
        <ele>28</ele>
        <time>2021-09-23T08:12:55.634Z</time>
      </trkpt>
      <trkpt lat="47.64117" lon="-3.02881">
        <ele>27.79999923706</ele>
        <time>2021-09-23T08:12:59.507Z</time>
      </trkpt>
      <trkpt lat="47.6412" lon="-3.02876">
        <ele>27.60000038147</ele>
        <time>2021-09-23T08:13:03.382Z</time>
      </trkpt>
      <trkpt lat="47.64129" lon="-3.0285">
        <ele>27.39999961853</ele>
        <time>2021-09-23T08:13:07.262Z</time>
      </trkpt>
      <trkpt lat="47.64133" lon="-3.02833">
        <ele>27.39999961853</ele>
        <time>2021-09-23T08:13:11.146Z</time>
      </trkpt>
      <trkpt lat="47.64135" lon="-3.02829">
        <ele>27.20000076294</ele>
        <time>2021-09-23T08:13:15.031Z</time>
      </trkpt>
      <trkpt lat="47.6414" lon="-3.02815">
        <ele>27.20000076294</ele>
        <time>2021-09-23T08:13:18.919Z</time>
      </trkpt>
      <trkpt lat="47.64142" lon="-3.02802">
        <ele>27.60000038147</ele>
        <time>2021-09-23T08:13:22.810Z</time>
      </trkpt>
      <trkpt lat="47.64144" lon="-3.02798">
        <ele>27.79999923706</ele>
        <time>2021-09-23T08:13:26.702Z</time>
      </trkpt>
      <trkpt lat="47.6415" lon="-3.02778">
        <ele>28.20000076294</ele>
        <time>2021-09-23T08:13:30.598Z</time>
      </trkpt>
      <trkpt lat="47.64158" lon="-3.02756">
        <ele>28.79999923706</ele>
        <time>2021-09-23T08:13:34.499Z</time>
      </trkpt>
      <trkpt lat="47.64164" lon="-3.02736">
        <ele>29.79999923706</ele>
        <time>2021-09-23T08:13:38.405Z</time>
      </trkpt>
      <trkpt lat="47.64171" lon="-3.02712">
        <ele>30</ele>
        <time>2021-09-23T08:13:42.316Z</time>
      </trkpt>
      <trkpt lat="47.64176" lon="-3.02693">
        <ele>29.79999923706</ele>
        <time>2021-09-23T08:13:46.231Z</time>
      </trkpt>
      <trkpt lat="47.64179" lon="-3.02672">
        <ele>29.60000038147</ele>
        <time>2021-09-23T08:13:50.150Z</time>
      </trkpt>
      <trkpt lat="47.64181" lon="-3.02648">
        <ele>29.60000038147</ele>
        <time>2021-09-23T08:13:54.074Z</time>
      </trkpt>
      <trkpt lat="47.64184" lon="-3.02622">
        <ele>28.79999923706</ele>
        <time>2021-09-23T08:13:58.003Z</time>
      </trkpt>
      <trkpt lat="47.64192" lon="-3.02589">
        <ele>28.20000076294</ele>
        <time>2021-09-23T08:14:01.940Z</time>
      </trkpt>
      <trkpt lat="47.64196" lon="-3.02563">
        <ele>28</ele>
        <time>2021-09-23T08:14:05.882Z</time>
      </trkpt>
      <trkpt lat="47.64197" lon="-3.02539">
        <ele>28.20000076294</ele>
        <time>2021-09-23T08:14:09.829Z</time>
      </trkpt>
      <trkpt lat="47.64201" lon="-3.02507">
        <ele>29.39999961853</ele>
        <time>2021-09-23T08:14:13.782Z</time>
      </trkpt>
      <trkpt lat="47.64205" lon="-3.02482">
        <ele>30.79999923706</ele>
        <time>2021-09-23T08:14:17.741Z</time>
      </trkpt>
      <trkpt lat="47.64207" lon="-3.02467">
        <ele>31.20000076294</ele>
        <time>2021-09-23T08:14:21.703Z</time>
      </trkpt>
      <trkpt lat="47.64204" lon="-3.02456">
        <ele>31.60000038147</ele>
        <time>2021-09-23T08:14:25.667Z</time>
      </trkpt>
      <trkpt lat="47.64208" lon="-3.02444">
        <ele>31.79999923706</ele>
        <time>2021-09-23T08:14:29.633Z</time>
      </trkpt>
      <trkpt lat="47.64221" lon="-3.02423">
        <ele>31.60000038147</ele>
        <time>2021-09-23T08:14:33.605Z</time>
      </trkpt>
      <trkpt lat="47.64235" lon="-3.02394">
        <ele>31.60000038147</ele>
        <time>2021-09-23T08:14:37.584Z</time>
      </trkpt>
      <trkpt lat="47.64239" lon="-3.02381">
        <ele>31.60000038147</ele>
        <time>2021-09-23T08:14:41.566Z</time>
      </trkpt>
      <trkpt lat="47.6425" lon="-3.02357">
        <ele>30.39999961853</ele>
        <time>2021-09-23T08:14:45.554Z</time>
      </trkpt>
      <trkpt lat="47.64267" lon="-3.02325">
        <ele>30</ele>
        <time>2021-09-23T08:14:49.550Z</time>
      </trkpt>
      <trkpt lat="47.64281" lon="-3.02296">
        <ele>29.20000076294</ele>
        <time>2021-09-23T08:14:53.553Z</time>
      </trkpt>
      <trkpt lat="47.64285" lon="-3.02273">
        <ele>29</ele>
        <time>2021-09-23T08:14:57.561Z</time>
      </trkpt>
      <trkpt lat="47.64277" lon="-3.02258">
        <ele>28.60000038147</ele>
        <time>2021-09-23T08:15:01.573Z</time>
      </trkpt>
      <trkpt lat="47.64262" lon="-3.02241">
        <ele>28.60000038147</ele>
        <time>2021-09-23T08:15:05.591Z</time>
      </trkpt>
      <trkpt lat="47.64246" lon="-3.02214">
        <ele>29.20000076294</ele>
        <time>2021-09-23T08:15:09.616Z</time>
      </trkpt>
      <trkpt lat="47.64234" lon="-3.02184">
        <ele>29.39999961853</ele>
        <time>2021-09-23T08:15:13.648Z</time>
      </trkpt>
      <trkpt lat="47.64229" lon="-3.02156">
        <ele>29</ele>
        <time>2021-09-23T08:15:17.686Z</time>
      </trkpt>
      <trkpt lat="47.64229" lon="-3.0215">
        <ele>29</ele>
        <time>2021-09-23T08:15:21.725Z</time>
      </trkpt>
      <trkpt lat="47.64227" lon="-3.02114">
        <ele>29.39999961853</ele>
        <time>2021-09-23T08:15:25.771Z</time>
      </trkpt>
      <trkpt lat="47.64226" lon="-3.02095">
        <ele>30</ele>
        <time>2021-09-23T08:15:29.821Z</time>
      </trkpt>
      <trkpt lat="47.64225" lon="-3.02076">
        <ele>30</ele>
        <time>2021-09-23T08:15:33.875Z</time>
      </trkpt>
      <trkpt lat="47.64224" lon="-3.02058">
        <ele>30.60000038147</ele>
        <time>2021-09-23T08:15:37.933Z</time>
      </trkpt>
      <trkpt lat="47.64224" lon="-3.02045">
        <ele>31</ele>
        <time>2021-09-23T08:15:41.993Z</time>
      </trkpt>
      <trkpt lat="47.64222" lon="-3.01996">
        <ele>30.79999923706</ele>
        <time>2021-09-23T08:15:46.063Z</time>
      </trkpt>
      <trkpt lat="47.64221" lon="-3.0199">
        <ele>31</ele>
        <time>2021-09-23T08:15:50.134Z</time>
      </trkpt>
      <trkpt lat="47.6422" lon="-3.01932">
        <ele>32</ele>
        <time>2021-09-23T08:15:54.217Z</time>
      </trkpt>
      <trkpt lat="47.6422" lon="-3.0192">
        <ele>31.60000038147</ele>
        <time>2021-09-23T08:15:58.303Z</time>
      </trkpt>
      <trkpt lat="47.64222" lon="-3.01897">
        <ele>31.20000076294</ele>
        <time>2021-09-23T08:16:02.393Z</time>
      </trkpt>
      <trkpt lat="47.64223" lon="-3.01866">
        <ele>31.20000076294</ele>
        <time>2021-09-23T08:16:06.490Z</time>
      </trkpt>
      <trkpt lat="47.64226" lon="-3.01865">
        <ele>31</ele>
        <time>2021-09-23T08:16:10.587Z</time>
      </trkpt>
      <trkpt lat="47.64232" lon="-3.01865">
        <ele>30.79999923706</ele>
        <time>2021-09-23T08:16:14.686Z</time>
      </trkpt>
      <trkpt lat="47.6425" lon="-3.01866">
        <ele>30.20000076294</ele>
        <time>2021-09-23T08:16:18.791Z</time>
      </trkpt>
      <trkpt lat="47.6428" lon="-3.01868">
        <ele>29</ele>
        <time>2021-09-23T08:16:22.905Z</time>
      </trkpt>
      <trkpt lat="47.64313" lon="-3.0187">
        <ele>28.79999923706</ele>
        <time>2021-09-23T08:16:27.028Z</time>
      </trkpt>
      <trkpt lat="47.64349" lon="-3.0188">
        <ele>27</ele>
        <time>2021-09-23T08:16:31.162Z</time>
      </trkpt>
      <trkpt lat="47.64386" lon="-3.01898">
        <ele>26.79999923706</ele>
        <time>2021-09-23T08:16:35.308Z</time>
      </trkpt>
      <trkpt lat="47.64425" lon="-3.01917">
        <ele>25.20000076294</ele>
        <time>2021-09-23T08:16:39.466Z</time>
      </trkpt>
      <trkpt lat="47.64449" lon="-3.01929">
        <ele>22</ele>
        <time>2021-09-23T08:16:43.632Z</time>
      </trkpt>
      <trkpt lat="47.64457" lon="-3.01932">
        <ele>21.79999923706</ele>
        <time>2021-09-23T08:16:47.800Z</time>
      </trkpt>
      <trkpt lat="47.64453" lon="-3.01909">
        <ele>22.39999961853</ele>
        <time>2021-09-23T08:16:51.973Z</time>
      </trkpt>
      <trkpt lat="47.64458" lon="-3.01901">
        <ele>22.39999961853</ele>
        <time>2021-09-23T08:16:56.148Z</time>
      </trkpt>
      <trkpt lat="47.64464" lon="-3.0189">
        <ele>22.39999961853</ele>
        <time>2021-09-23T08:17:00.326Z</time>
      </trkpt>
      <trkpt lat="47.6447" lon="-3.01879">
        <ele>22.20000076294</ele>
        <time>2021-09-23T08:17:04.507Z</time>
      </trkpt>
      <trkpt lat="47.64472" lon="-3.01875">
        <ele>22.20000076294</ele>
        <time>2021-09-23T08:17:08.689Z</time>
      </trkpt>
      <trkpt lat="47.64476" lon="-3.01867">
        <ele>22.39999961853</ele>
        <time>2021-09-23T08:17:12.873Z</time>
      </trkpt>
      <trkpt lat="47.64489" lon="-3.0184">
        <ele>22.79999923706</ele>
        <time>2021-09-23T08:17:17.063Z</time>
      </trkpt>
      <trkpt lat="47.64505" lon="-3.01806">
        <ele>23</ele>
        <time>2021-09-23T08:17:21.262Z</time>
      </trkpt>
      <trkpt lat="47.64511" lon="-3.01793">
        <ele>22.60000038147</ele>
        <time>2021-09-23T08:17:25.464Z</time>
      </trkpt>
      <trkpt lat="47.64518" lon="-3.01778">
        <ele>22</ele>
        <time>2021-09-23T08:17:29.670Z</time>
      </trkpt>
      <trkpt lat="47.64521" lon="-3.01772">
        <ele>21.60000038147</ele>
        <time>2021-09-23T08:17:33.877Z</time>
      </trkpt>
      <trkpt lat="47.64526" lon="-3.01761">
        <ele>21.20000076294</ele>
        <time>2021-09-23T08:17:38.087Z</time>
      </trkpt>
      <trkpt lat="47.64529" lon="-3.01754">
        <ele>21</ele>
        <time>2021-09-23T08:17:42.298Z</time>
      </trkpt>
      <trkpt lat="47.64542" lon="-3.01727">
        <ele>20.20000076294</ele>
        <time>2021-09-23T08:17:46.516Z</time>
      </trkpt>
      <trkpt lat="47.64545" lon="-3.01723">
        <ele>20</ele>
        <time>2021-09-23T08:17:50.735Z</time>
      </trkpt>
      <trkpt lat="47.64551" lon="-3.01714">
        <ele>19.60000038147</ele>
        <time>2021-09-23T08:17:54.957Z</time>
      </trkpt>
      <trkpt lat="47.64555" lon="-3.01709">
        <ele>19.39999961853</ele>
        <time>2021-09-23T08:17:59.180Z</time>
      </trkpt>
      <trkpt lat="47.6456" lon="-3.01707">
        <ele>19</ele>
        <time>2021-09-23T08:18:03.405Z</time>
      </trkpt>
      <trkpt lat="47.64575" lon="-3.01705">
        <ele>17.79999923706</ele>
        <time>2021-09-23T08:18:07.634Z</time>
      </trkpt>
      <trkpt lat="47.64586" lon="-3.01711">
        <ele>17.20000076294</ele>
        <time>2021-09-23T08:18:11.867Z</time>
      </trkpt>
      <trkpt lat="47.64598" lon="-3.01719">
        <ele>16.60000038147</ele>
        <time>2021-09-23T08:18:16.104Z</time>
      </trkpt>
      <trkpt lat="47.64612" lon="-3.01726">
        <ele>16.60000038147</ele>
        <time>2021-09-23T08:18:20.345Z</time>
      </trkpt>
      <trkpt lat="47.64617" lon="-3.01726">
        <ele>16.60000038147</ele>
        <time>2021-09-23T08:18:24.588Z</time>
      </trkpt>
      <trkpt lat="47.64621" lon="-3.01727">
        <ele>16.60000038147</ele>
        <time>2021-09-23T08:18:28.832Z</time>
      </trkpt>
      <trkpt lat="47.64627" lon="-3.0172">
        <ele>16.39999961853</ele>
        <time>2021-09-23T08:18:33.078Z</time>
      </trkpt>
      <trkpt lat="47.6463" lon="-3.01714">
        <ele>16.20000076294</ele>
        <time>2021-09-23T08:18:37.326Z</time>
      </trkpt>
      <trkpt lat="47.64643" lon="-3.01692">
        <ele>15.39999961853</ele>
        <time>2021-09-23T08:18:41.580Z</time>
      </trkpt>
      <trkpt lat="47.64658" lon="-3.01665">
        <ele>14.39999961853</ele>
        <time>2021-09-23T08:18:45.841Z</time>
      </trkpt>
      <trkpt lat="47.64664" lon="-3.01655">
        <ele>14</ele>
        <time>2021-09-23T08:18:50.104Z</time>
      </trkpt>
      <trkpt lat="47.64666" lon="-3.01652">
        <ele>14</ele>
        <time>2021-09-23T08:18:54.368Z</time>
      </trkpt>
      <trkpt lat="47.64669" lon="-3.01647">
        <ele>14</ele>
        <time>2021-09-23T08:18:58.633Z</time>
      </trkpt>
      <trkpt lat="47.64675" lon="-3.01635">
        <ele>13.80000019073</ele>
        <time>2021-09-23T08:19:02.902Z</time>
      </trkpt>
      <trkpt lat="47.6469" lon="-3.01608">
        <ele>13.19999980927</ele>
        <time>2021-09-23T08:19:07.178Z</time>
      </trkpt>
      <trkpt lat="47.64701" lon="-3.01588">
        <ele>13.39999961853</ele>
        <time>2021-09-23T08:19:11.459Z</time>
      </trkpt>
      <trkpt lat="47.64709" lon="-3.01573">
        <ele>14</ele>
        <time>2021-09-23T08:19:15.744Z</time>
      </trkpt>
      <trkpt lat="47.64724" lon="-3.01546">
        <ele>14.80000019073</ele>
        <time>2021-09-23T08:19:20.036Z</time>
      </trkpt>
      <trkpt lat="47.64736" lon="-3.01524">
        <ele>15.19999980927</ele>
        <time>2021-09-23T08:19:24.333Z</time>
      </trkpt>
      <trkpt lat="47.6474" lon="-3.01517">
        <ele>15.39999961853</ele>
        <time>2021-09-23T08:19:28.632Z</time>
      </trkpt>
      <trkpt lat="47.64749" lon="-3.01499">
        <ele>15.19999980927</ele>
        <time>2021-09-23T08:19:32.936Z</time>
      </trkpt>
      <trkpt lat="47.64762" lon="-3.01475">
        <ele>14.80000019073</ele>
        <time>2021-09-23T08:19:37.246Z</time>
      </trkpt>
      <trkpt lat="47.64764" lon="-3.01471">
        <ele>14.60000038147</ele>
        <time>2021-09-23T08:19:41.557Z</time>
      </trkpt>
      <trkpt lat="47.64767" lon="-3.01464">
        <ele>14.60000038147</ele>
        <time>2021-09-23T08:19:45.869Z</time>
      </trkpt>
      <trkpt lat="47.64774" lon="-3.01448">
        <ele>14.60000038147</ele>
        <time>2021-09-23T08:19:50.185Z</time>
      </trkpt>
      <trkpt lat="47.64775" lon="-3.01446">
        <ele>14.80000019073</ele>
        <time>2021-09-23T08:19:54.502Z</time>
      </trkpt>
      <trkpt lat="47.64779" lon="-3.01436">
        <ele>15</ele>
        <time>2021-09-23T08:19:58.821Z</time>
      </trkpt>
      <trkpt lat="47.64785" lon="-3.01418">
        <ele>15.80000019073</ele>
        <time>2021-09-23T08:20:03.144Z</time>
      </trkpt>
      <trkpt lat="47.64787" lon="-3.01414">
        <ele>16</ele>
        <time>2021-09-23T08:20:07.468Z</time>
      </trkpt>
      <trkpt lat="47.64792" lon="-3.01398">
        <ele>16.79999923706</ele>
        <time>2021-09-23T08:20:11.796Z</time>
      </trkpt>
      <trkpt lat="47.64795" lon="-3.01392">
        <ele>17</ele>
        <time>2021-09-23T08:20:16.125Z</time>
      </trkpt>
      <trkpt lat="47.64801" lon="-3.01374">
        <ele>17</ele>
        <time>2021-09-23T08:20:20.458Z</time>
      </trkpt>
      <trkpt lat="47.64803" lon="-3.01369">
        <ele>17.20000076294</ele>
        <time>2021-09-23T08:20:24.793Z</time>
      </trkpt>
      <trkpt lat="47.64811" lon="-3.01347">
        <ele>18</ele>
        <time>2021-09-23T08:20:29.133Z</time>
      </trkpt>
      <trkpt lat="47.64817" lon="-3.01329">
        <ele>17.79999923706</ele>
        <time>2021-09-23T08:20:33.477Z</time>
      </trkpt>
      <trkpt lat="47.6482" lon="-3.01322">
        <ele>17.60000038147</ele>
        <time>2021-09-23T08:20:37.822Z</time>
      </trkpt>
      <trkpt lat="47.64827" lon="-3.01285">
        <ele>17</ele>
        <time>2021-09-23T08:20:42.175Z</time>
      </trkpt>
      <trkpt lat="47.64832" lon="-3.01273">
        <ele>17</ele>
        <time>2021-09-23T08:20:46.531Z</time>
      </trkpt>
      <trkpt lat="47.64842" lon="-3.01247">
        <ele>17.20000076294</ele>
        <time>2021-09-23T08:20:50.893Z</time>
      </trkpt>
      <trkpt lat="47.64849" lon="-3.0123">
        <ele>17.39999961853</ele>
        <time>2021-09-23T08:20:55.259Z</time>
      </trkpt>
      <trkpt lat="47.64855" lon="-3.01216">
        <ele>17.60000038147</ele>
        <time>2021-09-23T08:20:59.628Z</time>
      </trkpt>
      <trkpt lat="47.64859" lon="-3.01206">
        <ele>17.79999923706</ele>
        <time>2021-09-23T08:21:04.000Z</time>
      </trkpt>
      <trkpt lat="47.64866" lon="-3.01188">
        <ele>18.79999923706</ele>
        <time>2021-09-23T08:21:08.376Z</time>
      </trkpt>
      <trkpt lat="47.64874" lon="-3.01169">
        <ele>19.39999961853</ele>
        <time>2021-09-23T08:21:12.756Z</time>
      </trkpt>
      <trkpt lat="47.64879" lon="-3.01158">
        <ele>19.79999923706</ele>
        <time>2021-09-23T08:21:17.139Z</time>
      </trkpt>
      <trkpt lat="47.64881" lon="-3.01146">
        <ele>20.20000076294</ele>
        <time>2021-09-23T08:21:21.524Z</time>
      </trkpt>
      <trkpt lat="47.64888" lon="-3.01107">
        <ele>21.60000038147</ele>
        <time>2021-09-23T08:21:25.917Z</time>
      </trkpt>
      <trkpt lat="47.64886" lon="-3.01102">
        <ele>21.79999923706</ele>
        <time>2021-09-23T08:21:30.312Z</time>
      </trkpt>
      <trkpt lat="47.64886" lon="-3.01088">
        <ele>22.39999961853</ele>
        <time>2021-09-23T08:21:34.710Z</time>
      </trkpt>
      <trkpt lat="47.64885" lon="-3.0104">
        <ele>23.79999923706</ele>
        <time>2021-09-23T08:21:39.117Z</time>
      </trkpt>
      <trkpt lat="47.64879" lon="-3.01014">
        <ele>23.39999961853</ele>
        <time>2021-09-23T08:21:43.530Z</time>
      </trkpt>
      <trkpt lat="47.64876" lon="-3.01003">
        <ele>23</ele>
        <time>2021-09-23T08:21:47.945Z</time>
      </trkpt>
      <trkpt lat="47.64873" lon="-3.00991">
        <ele>22.39999961853</ele>
        <time>2021-09-23T08:21:52.363Z</time>
      </trkpt>
      <trkpt lat="47.64863" lon="-3.00955">
        <ele>21</ele>
        <time>2021-09-23T08:21:56.788Z</time>
      </trkpt>
      <trkpt lat="47.64862" lon="-3.00951">
        <ele>20.79999923706</ele>
        <time>2021-09-23T08:22:01.214Z</time>
      </trkpt>
      <trkpt lat="47.6486" lon="-3.00941">
        <ele>20.79999923706</ele>
        <time>2021-09-23T08:22:05.642Z</time>
      </trkpt>
      <trkpt lat="47.64854" lon="-3.0092">
        <ele>20.20000076294</ele>
        <time>2021-09-23T08:22:10.075Z</time>
      </trkpt>
      <trkpt lat="47.64852" lon="-3.00915">
        <ele>20</ele>
        <time>2021-09-23T08:22:14.509Z</time>
      </trkpt>
      <trkpt lat="47.64852" lon="-3.00896">
        <ele>20</ele>
        <time>2021-09-23T08:22:18.947Z</time>
      </trkpt>
      <trkpt lat="47.64856" lon="-3.00883">
        <ele>20.39999961853</ele>
        <time>2021-09-23T08:22:23.388Z</time>
      </trkpt>
      <trkpt lat="47.64859" lon="-3.00871">
        <ele>20.60000038147</ele>
        <time>2021-09-23T08:22:27.831Z</time>
      </trkpt>
      <trkpt lat="47.64864" lon="-3.00857">
        <ele>21.60000038147</ele>
        <time>2021-09-23T08:22:32.278Z</time>
      </trkpt>
      <trkpt lat="47.64873" lon="-3.00835">
        <ele>22.20000076294</ele>
        <time>2021-09-23T08:22:36.730Z</time>
      </trkpt>
      <trkpt lat="47.64881" lon="-3.00814">
        <ele>22.60000038147</ele>
        <time>2021-09-23T08:22:41.187Z</time>
      </trkpt>
      <trkpt lat="47.64889" lon="-3.00797">
        <ele>22.79999923706</ele>
        <time>2021-09-23T08:22:45.648Z</time>
      </trkpt>
      <trkpt lat="47.64899" lon="-3.00776">
        <ele>23</ele>
        <time>2021-09-23T08:22:50.114Z</time>
      </trkpt>
      <trkpt lat="47.64904" lon="-3.00765">
        <ele>23.20000076294</ele>
        <time>2021-09-23T08:22:54.583Z</time>
      </trkpt>
      <trkpt lat="47.64909" lon="-3.00753">
        <ele>23.79999923706</ele>
        <time>2021-09-23T08:22:59.055Z</time>
      </trkpt>
      <trkpt lat="47.64917" lon="-3.00738">
        <ele>24.60000038147</ele>
        <time>2021-09-23T08:23:03.530Z</time>
      </trkpt>
      <trkpt lat="47.64924" lon="-3.00722">
        <ele>25.39999961853</ele>
        <time>2021-09-23T08:23:08.009Z</time>
      </trkpt>
      <trkpt lat="47.64932" lon="-3.00704">
        <ele>26</ele>
        <time>2021-09-23T08:23:12.493Z</time>
      </trkpt>
      <trkpt lat="47.64934" lon="-3.00701">
        <ele>25.79999923706</ele>
        <time>2021-09-23T08:23:16.977Z</time>
      </trkpt>
      <trkpt lat="47.64938" lon="-3.00693">
        <ele>25.60000038147</ele>
        <time>2021-09-23T08:23:21.463Z</time>
      </trkpt>
      <trkpt lat="47.64943" lon="-3.0068">
        <ele>25.60000038147</ele>
        <time>2021-09-23T08:23:25.952Z</time>
      </trkpt>
      <trkpt lat="47.64952" lon="-3.00663">
        <ele>25</ele>
        <time>2021-09-23T08:23:30.446Z</time>
      </trkpt>
      <trkpt lat="47.64963" lon="-3.00639">
        <ele>24.60000038147</ele>
        <time>2021-09-23T08:23:34.945Z</time>
      </trkpt>
      <trkpt lat="47.64964" lon="-3.00636">
        <ele>24.39999961853</ele>
        <time>2021-09-23T08:23:39.445Z</time>
      </trkpt>
      <trkpt lat="47.64981" lon="-3.0063">
        <ele>26</ele>
        <time>2021-09-23T08:23:43.950Z</time>
      </trkpt>
      <trkpt lat="47.64993" lon="-3.00629">
        <ele>27</ele>
        <time>2021-09-23T08:23:48.459Z</time>
      </trkpt>
      <trkpt lat="47.65" lon="-3.00618">
        <ele>27.60000038147</ele>
        <time>2021-09-23T08:23:52.971Z</time>
      </trkpt>
      <trkpt lat="47.65008" lon="-3.00604">
        <ele>28</ele>
        <time>2021-09-23T08:23:57.487Z</time>
      </trkpt>
      <trkpt lat="47.65016" lon="-3.00592">
        <ele>28.20000076294</ele>
        <time>2021-09-23T08:24:02.006Z</time>
      </trkpt>
      <trkpt lat="47.65026" lon="-3.00576">
        <ele>28.79999923706</ele>
        <time>2021-09-23T08:24:06.529Z</time>
      </trkpt>
      <trkpt lat="47.65033" lon="-3.00564">
        <ele>29.20000076294</ele>
        <time>2021-09-23T08:24:11.055Z</time>
      </trkpt>
      <trkpt lat="47.65039" lon="-3.00557">
        <ele>29.79999923706</ele>
        <time>2021-09-23T08:24:15.584Z</time>
      </trkpt>
      <trkpt lat="47.65052" lon="-3.00554">
        <ele>30.20000076294</ele>
        <time>2021-09-23T08:24:20.117Z</time>
      </trkpt>
      <trkpt lat="47.65075" lon="-3.00549">
        <ele>31</ele>
        <time>2021-09-23T08:24:24.657Z</time>
      </trkpt>
      <trkpt lat="47.65094" lon="-3.00545">
        <ele>32</ele>
        <time>2021-09-23T08:24:29.202Z</time>
      </trkpt>
      <trkpt lat="47.65108" lon="-3.00542">
        <ele>32.59999847412</ele>
        <time>2021-09-23T08:24:33.752Z</time>
      </trkpt>
      <trkpt lat="47.65117" lon="-3.00534">
        <ele>33</ele>
        <time>2021-09-23T08:24:38.305Z</time>
      </trkpt>
      <trkpt lat="47.6512" lon="-3.00508">
        <ele>32.79999923706</ele>
        <time>2021-09-23T08:24:42.863Z</time>
      </trkpt>
      <trkpt lat="47.65126" lon="-3.00467">
        <ele>32</ele>
        <time>2021-09-23T08:24:47.429Z</time>
      </trkpt>
      <trkpt lat="47.6513" lon="-3.00435">
        <ele>31.39999961853</ele>
        <time>2021-09-23T08:24:52.002Z</time>
      </trkpt>
      <trkpt lat="47.65146" lon="-3.00423">
        <ele>31</ele>
        <time>2021-09-23T08:24:56.580Z</time>
      </trkpt>
      <trkpt lat="47.65162" lon="-3.00407">
        <ele>31.60000038147</ele>
        <time>2021-09-23T08:25:01.164Z</time>
      </trkpt>
      <trkpt lat="47.65178" lon="-3.00386">
        <ele>32</ele>
        <time>2021-09-23T08:25:05.755Z</time>
      </trkpt>
      <trkpt lat="47.65188" lon="-3.00373">
        <ele>32</ele>
        <time>2021-09-23T08:25:10.350Z</time>
      </trkpt>
      <trkpt lat="47.65205" lon="-3.0035">
        <ele>32</ele>
        <time>2021-09-23T08:25:14.951Z</time>
      </trkpt>
      <trkpt lat="47.6521" lon="-3.00343">
        <ele>32</ele>
        <time>2021-09-23T08:25:19.554Z</time>
      </trkpt>
      <trkpt lat="47.65215" lon="-3.00336">
        <ele>32</ele>
        <time>2021-09-23T08:25:24.159Z</time>
      </trkpt>
      <trkpt lat="47.65226" lon="-3.00321">
        <ele>32</ele>
        <time>2021-09-23T08:25:28.769Z</time>
      </trkpt>
      <trkpt lat="47.65241" lon="-3.003">
        <ele>31.39999961853</ele>
        <time>2021-09-23T08:25:33.385Z</time>
      </trkpt>
      <trkpt lat="47.65268" lon="-3.00263">
        <ele>31.39999961853</ele>
        <time>2021-09-23T08:25:38.012Z</time>
      </trkpt>
      <trkpt lat="47.65292" lon="-3.0023">
        <ele>32.20000076294</ele>
        <time>2021-09-23T08:25:42.649Z</time>
      </trkpt>
      <trkpt lat="47.65318" lon="-3.00194">
        <ele>32.40000152588</ele>
        <time>2021-09-23T08:25:47.297Z</time>
      </trkpt>
      <trkpt lat="47.65334" lon="-3.00172">
        <ele>31.60000038147</ele>
        <time>2021-09-23T08:25:51.951Z</time>
      </trkpt>
      <trkpt lat="47.65358" lon="-3.0014">
        <ele>30.39999961853</ele>
        <time>2021-09-23T08:25:56.615Z</time>
      </trkpt>
      <trkpt lat="47.65375" lon="-3.00116">
        <ele>30</ele>
        <time>2021-09-23T08:26:01.286Z</time>
      </trkpt>
      <trkpt lat="47.6539" lon="-3.00095">
        <ele>30.20000076294</ele>
        <time>2021-09-23T08:26:05.963Z</time>
      </trkpt>
      <trkpt lat="47.65412" lon="-3.00064">
        <ele>29.79999923706</ele>
        <time>2021-09-23T08:26:10.649Z</time>
      </trkpt>
      <trkpt lat="47.65417" lon="-3.00056">
        <ele>30</ele>
        <time>2021-09-23T08:26:15.337Z</time>
      </trkpt>
      <trkpt lat="47.65419" lon="-3.00054">
        <ele>30.20000076294</ele>
        <time>2021-09-23T08:26:20.026Z</time>
      </trkpt>
      <trkpt lat="47.65408" lon="-3.00028">
        <ele>31</ele>
        <time>2021-09-23T08:26:24.721Z</time>
      </trkpt>
      <trkpt lat="47.65392" lon="-3.00012">
        <ele>32</ele>
        <time>2021-09-23T08:26:29.422Z</time>
      </trkpt>
      <trkpt lat="47.65367" lon="-2.99987">
        <ele>32</ele>
        <time>2021-09-23T08:26:34.132Z</time>
      </trkpt>
      <trkpt lat="47.65361" lon="-2.99981">
        <ele>32.79999923706</ele>
        <time>2021-09-23T08:26:38.844Z</time>
      </trkpt>
      <trkpt lat="47.65357" lon="-2.99977">
        <ele>32.59999847412</ele>
        <time>2021-09-23T08:26:43.557Z</time>
      </trkpt>
      <trkpt lat="47.65355" lon="-2.99959">
        <ele>32.59999847412</ele>
        <time>2021-09-23T08:26:48.274Z</time>
      </trkpt>
      <trkpt lat="47.65359" lon="-2.99952">
        <ele>32.79999923706</ele>
        <time>2021-09-23T08:26:52.993Z</time>
      </trkpt>
      <trkpt lat="47.65368" lon="-2.99932">
        <ele>33</ele>
        <time>2021-09-23T08:26:57.716Z</time>
      </trkpt>
      <trkpt lat="47.65378" lon="-2.99911">
        <ele>32.40000152588</ele>
        <time>2021-09-23T08:27:02.445Z</time>
      </trkpt>
      <trkpt lat="47.65388" lon="-2.9989">
        <ele>32.40000152588</ele>
        <time>2021-09-23T08:27:07.179Z</time>
      </trkpt>
      <trkpt lat="47.65397" lon="-2.99871">
        <ele>33.20000076294</ele>
        <time>2021-09-23T08:27:11.918Z</time>
      </trkpt>
      <trkpt lat="47.65399" lon="-2.99864">
        <ele>33.20000076294</ele>
        <time>2021-09-23T08:27:16.658Z</time>
      </trkpt>
      <trkpt lat="47.65403" lon="-2.99854">
        <ele>33.40000152588</ele>
        <time>2021-09-23T08:27:21.400Z</time>
      </trkpt>
      <trkpt lat="47.65413" lon="-2.99828">
        <ele>33</ele>
        <time>2021-09-23T08:27:26.148Z</time>
      </trkpt>
      <trkpt lat="47.65418" lon="-2.99813">
        <ele>33</ele>
        <time>2021-09-23T08:27:30.900Z</time>
      </trkpt>
      <trkpt lat="47.65422" lon="-2.99804">
        <ele>33</ele>
        <time>2021-09-23T08:27:35.654Z</time>
      </trkpt>
      <trkpt lat="47.65427" lon="-2.99791">
        <ele>32.79999923706</ele>
        <time>2021-09-23T08:27:40.411Z</time>
      </trkpt>
      <trkpt lat="47.65433" lon="-2.99774">
        <ele>33.20000076294</ele>
        <time>2021-09-23T08:27:45.172Z</time>
      </trkpt>
      <trkpt lat="47.65435" lon="-2.99768">
        <ele>33.40000152588</ele>
        <time>2021-09-23T08:27:49.934Z</time>
      </trkpt>
      <trkpt lat="47.65442" lon="-2.99749">
        <ele>33.20000076294</ele>
        <time>2021-09-23T08:27:54.701Z</time>
      </trkpt>
      <trkpt lat="47.65456" lon="-2.99714">
        <ele>33.79999923706</ele>
        <time>2021-09-23T08:27:59.476Z</time>
      </trkpt>
      <trkpt lat="47.65465" lon="-2.99689">
        <ele>34.40000152588</ele>
        <time>2021-09-23T08:28:04.256Z</time>
      </trkpt>
      <trkpt lat="47.65476" lon="-2.99659">
        <ele>34.20000076294</ele>
        <time>2021-09-23T08:28:09.043Z</time>
      </trkpt>
      <trkpt lat="47.65491" lon="-2.99631">
        <ele>34</ele>
        <time>2021-09-23T08:28:13.837Z</time>
      </trkpt>
      <trkpt lat="47.65503" lon="-2.99609">
        <ele>33.40000152588</ele>
        <time>2021-09-23T08:28:18.637Z</time>
      </trkpt>
      <trkpt lat="47.6551" lon="-2.99596">
        <ele>33</ele>
        <time>2021-09-23T08:28:23.440Z</time>
      </trkpt>
      <trkpt lat="47.65514" lon="-2.99585">
        <ele>33.40000152588</ele>
        <time>2021-09-23T08:28:28.246Z</time>
      </trkpt>
      <trkpt lat="47.65519" lon="-2.99573">
        <ele>33.59999847412</ele>
        <time>2021-09-23T08:28:33.055Z</time>
      </trkpt>
      <trkpt lat="47.65528" lon="-2.99549">
        <ele>33.79999923706</ele>
        <time>2021-09-23T08:28:37.869Z</time>
      </trkpt>
      <trkpt lat="47.65535" lon="-2.99531">
        <ele>34</ele>
        <time>2021-09-23T08:28:42.688Z</time>
      </trkpt>
      <trkpt lat="47.65541" lon="-2.99516">
        <ele>34</ele>
        <time>2021-09-23T08:28:47.510Z</time>
      </trkpt>
      <trkpt lat="47.65547" lon="-2.99501">
        <ele>34.40000152588</ele>
        <time>2021-09-23T08:28:52.336Z</time>
      </trkpt>
      <trkpt lat="47.65554" lon="-2.99482">
        <ele>35</ele>
        <time>2021-09-23T08:28:57.166Z</time>
      </trkpt>
      <trkpt lat="47.6557" lon="-2.99443">
        <ele>35.40000152588</ele>
        <time>2021-09-23T08:29:02.005Z</time>
      </trkpt>
      <trkpt lat="47.65577" lon="-2.99425">
        <ele>35.40000152588</ele>
        <time>2021-09-23T08:29:06.848Z</time>
      </trkpt>
      <trkpt lat="47.65579" lon="-2.9942">
        <ele>35.40000152588</ele>
        <time>2021-09-23T08:29:11.692Z</time>
      </trkpt>
      <trkpt lat="47.65582" lon="-2.99413">
        <ele>35.20000076294</ele>
        <time>2021-09-23T08:29:16.538Z</time>
      </trkpt>
      <trkpt lat="47.65589" lon="-2.99394">
        <ele>35</ele>
        <time>2021-09-23T08:29:21.389Z</time>
      </trkpt>
      <trkpt lat="47.65599" lon="-2.99369">
        <ele>34.59999847412</ele>
        <time>2021-09-23T08:29:26.245Z</time>
      </trkpt>
      <trkpt lat="47.65602" lon="-2.99334">
        <ele>35.40000152588</ele>
        <time>2021-09-23T08:29:31.109Z</time>
      </trkpt>
      <trkpt lat="47.65603" lon="-2.99315">
        <ele>36.40000152588</ele>
        <time>2021-09-23T08:29:35.976Z</time>
      </trkpt>
      <trkpt lat="47.65607" lon="-2.99305">
        <ele>36.20000076294</ele>
        <time>2021-09-23T08:29:40.846Z</time>
      </trkpt>
      <trkpt lat="47.65603" lon="-2.99315">
        <ele>36.40000152588</ele>
        <time>2021-09-23T08:29:45.718Z</time>
      </trkpt>
      <trkpt lat="47.65567" lon="-2.99273">
        <ele>36.79999923706</ele>
        <time>2021-09-23T08:29:50.604Z</time>
      </trkpt>
      <trkpt lat="47.65568" lon="-2.99243">
        <ele>35.59999847412</ele>
        <time>2021-09-23T08:29:55.496Z</time>
      </trkpt>
      <trkpt lat="47.65569" lon="-2.99235">
        <ele>35.20000076294</ele>
        <time>2021-09-23T08:30:00.390Z</time>
      </trkpt>
      <trkpt lat="47.65574" lon="-2.99215">
        <ele>33.20000076294</ele>
        <time>2021-09-23T08:30:05.288Z</time>
      </trkpt>
      <trkpt lat="47.65573" lon="-2.99206">
        <ele>32.40000152588</ele>
        <time>2021-09-23T08:30:10.188Z</time>
      </trkpt>
      <trkpt lat="47.6557" lon="-2.99189">
        <ele>31</ele>
        <time>2021-09-23T08:30:15.091Z</time>
      </trkpt>
      <trkpt lat="47.65556" lon="-2.99138">
        <ele>29.39999961853</ele>
        <time>2021-09-23T08:30:20.006Z</time>
      </trkpt>
      <trkpt lat="47.65554" lon="-2.99123">
        <ele>29</ele>
        <time>2021-09-23T08:30:24.924Z</time>
      </trkpt>
      <trkpt lat="47.65549" lon="-2.9912">
        <ele>29</ele>
        <time>2021-09-23T08:30:29.843Z</time>
      </trkpt>
      <trkpt lat="47.65523" lon="-2.99103">
        <ele>28.60000038147</ele>
        <time>2021-09-23T08:30:34.771Z</time>
      </trkpt>
      <trkpt lat="47.65501" lon="-2.99089">
        <ele>27.60000038147</ele>
        <time>2021-09-23T08:30:39.706Z</time>
      </trkpt>
      <trkpt lat="47.65497" lon="-2.99084">
        <ele>27.20000076294</ele>
        <time>2021-09-23T08:30:44.642Z</time>
      </trkpt>
      <trkpt lat="47.65489" lon="-2.99075">
        <ele>26.60000038147</ele>
        <time>2021-09-23T08:30:49.581Z</time>
      </trkpt>
      <trkpt lat="47.65485" lon="-2.99077">
        <ele>26.60000038147</ele>
        <time>2021-09-23T08:30:54.522Z</time>
      </trkpt>
      <trkpt lat="47.6548" lon="-2.99079">
        <ele>26.39999961853</ele>
        <time>2021-09-23T08:30:59.464Z</time>
      </trkpt>
      <trkpt lat="47.65469" lon="-2.99085">
        <ele>26.20000076294</ele>
        <time>2021-09-23T08:31:04.410Z</time>
      </trkpt>
      <trkpt lat="47.65447" lon="-2.99094">
        <ele>26</ele>
        <time>2021-09-23T08:31:09.362Z</time>
      </trkpt>
      <trkpt lat="47.65442" lon="-2.99094">
        <ele>25.79999923706</ele>
        <time>2021-09-23T08:31:14.316Z</time>
      </trkpt>
      <trkpt lat="47.65437" lon="-2.99094">
        <ele>25.60000038147</ele>
        <time>2021-09-23T08:31:19.271Z</time>
      </trkpt>
      <trkpt lat="47.65423" lon="-2.99093">
        <ele>25</ele>
        <time>2021-09-23T08:31:24.231Z</time>
      </trkpt>
      <trkpt lat="47.65397" lon="-2.99086">
        <ele>24.79999923706</ele>
        <time>2021-09-23T08:31:29.198Z</time>
      </trkpt>
      <trkpt lat="47.65385" lon="-2.99078">
        <ele>24.39999961853</ele>
        <time>2021-09-23T08:31:34.169Z</time>
      </trkpt>
      <trkpt lat="47.65382" lon="-2.99069">
        <ele>24</ele>
        <time>2021-09-23T08:31:39.142Z</time>
      </trkpt>
      <trkpt lat="47.6538" lon="-2.9906">
        <ele>23.60000038147</ele>
        <time>2021-09-23T08:31:44.117Z</time>
      </trkpt>
      <trkpt lat="47.65376" lon="-2.9904">
        <ele>22.39999961853</ele>
        <time>2021-09-23T08:31:49.097Z</time>
      </trkpt>
      <trkpt lat="47.65375" lon="-2.99017">
        <ele>20.79999923706</ele>
        <time>2021-09-23T08:31:54.081Z</time>
      </trkpt>
      <trkpt lat="47.65376" lon="-2.98992">
        <ele>19.20000076294</ele>
        <time>2021-09-23T08:31:59.070Z</time>
      </trkpt>
      <trkpt lat="47.65382" lon="-2.98967">
        <ele>18</ele>
        <time>2021-09-23T08:32:04.064Z</time>
      </trkpt>
      <trkpt lat="47.65388" lon="-2.98957">
        <ele>17.79999923706</ele>
        <time>2021-09-23T08:32:09.061Z</time>
      </trkpt>
      <trkpt lat="47.65415" lon="-2.98909">
        <ele>17.20000076294</ele>
        <time>2021-09-23T08:32:14.071Z</time>
      </trkpt>
      <trkpt lat="47.65436" lon="-2.98865">
        <ele>15.19999980927</ele>
        <time>2021-09-23T08:32:19.092Z</time>
      </trkpt>
      <trkpt lat="47.65443" lon="-2.98848">
        <ele>14.80000019073</ele>
        <time>2021-09-23T08:32:24.117Z</time>
      </trkpt>
      <trkpt lat="47.65452" lon="-2.98821">
        <ele>14.19999980927</ele>
        <time>2021-09-23T08:32:29.148Z</time>
      </trkpt>
      <trkpt lat="47.65465" lon="-2.98766">
        <ele>15.19999980927</ele>
        <time>2021-09-23T08:32:34.190Z</time>
      </trkpt>
      <trkpt lat="47.65474" lon="-2.98726">
        <ele>15.80000019073</ele>
        <time>2021-09-23T08:32:39.241Z</time>
      </trkpt>
      <trkpt lat="47.65481" lon="-2.9869">
        <ele>16.20000076294</ele>
        <time>2021-09-23T08:32:44.299Z</time>
      </trkpt>
      <trkpt lat="47.65483" lon="-2.98677">
        <ele>16.20000076294</ele>
        <time>2021-09-23T08:32:49.360Z</time>
      </trkpt>
      <trkpt lat="47.65479" lon="-2.98668">
        <ele>16</ele>
        <time>2021-09-23T08:32:54.423Z</time>
      </trkpt>
      <trkpt lat="47.65475" lon="-2.98662">
        <ele>15.80000019073</ele>
        <time>2021-09-23T08:32:59.488Z</time>
      </trkpt>
      <trkpt lat="47.65465" lon="-2.9865">
        <ele>14.19999980927</ele>
        <time>2021-09-23T08:33:04.557Z</time>
      </trkpt>
      <trkpt lat="47.65432" lon="-2.98623">
        <ele>8.60000038147</ele>
        <time>2021-09-23T08:33:09.637Z</time>
      </trkpt>
      <trkpt lat="47.65382" lon="-2.98583">
        <ele>5</ele>
        <time>2021-09-23T08:33:14.734Z</time>
      </trkpt>
      <trkpt lat="47.65341" lon="-2.98549">
        <ele>7.59999990463</ele>
        <time>2021-09-23T08:33:19.845Z</time>
      </trkpt>
      <trkpt lat="47.65315" lon="-2.98525">
        <ele>10.39999961853</ele>
        <time>2021-09-23T08:33:24.965Z</time>
      </trkpt>
      <trkpt lat="47.65302" lon="-2.98504">
        <ele>11.60000038147</ele>
        <time>2021-09-23T08:33:30.091Z</time>
      </trkpt>
      <trkpt lat="47.65288" lon="-2.98483">
        <ele>11.39999961853</ele>
        <time>2021-09-23T08:33:35.223Z</time>
      </trkpt>
      <trkpt lat="47.65274" lon="-2.98453">
        <ele>11.19999980927</ele>
        <time>2021-09-23T08:33:40.362Z</time>
      </trkpt>
      <trkpt lat="47.65262" lon="-2.98432">
        <ele>11.19999980927</ele>
        <time>2021-09-23T08:33:45.507Z</time>
      </trkpt>
      <trkpt lat="47.65246" lon="-2.9843">
        <ele>11.39999961853</ele>
        <time>2021-09-23T08:33:50.656Z</time>
      </trkpt>
      <trkpt lat="47.65231" lon="-2.98437">
        <ele>11.80000019073</ele>
        <time>2021-09-23T08:33:55.810Z</time>
      </trkpt>
      <trkpt lat="47.65217" lon="-2.98443">
        <ele>12.39999961853</ele>
        <time>2021-09-23T08:34:00.969Z</time>
      </trkpt>
      <trkpt lat="47.65194" lon="-2.98454">
        <ele>12.80000019073</ele>
        <time>2021-09-23T08:34:06.135Z</time>
      </trkpt>
      <trkpt lat="47.65172" lon="-2.98464">
        <ele>13.39999961853</ele>
        <time>2021-09-23T08:34:11.308Z</time>
      </trkpt>
      <trkpt lat="47.65156" lon="-2.98471">
        <ele>15.60000038147</ele>
        <time>2021-09-23T08:34:16.486Z</time>
      </trkpt>
      <trkpt lat="47.65146" lon="-2.98476">
        <ele>16.79999923706</ele>
        <time>2021-09-23T08:34:21.667Z</time>
      </trkpt>
      <trkpt lat="47.65143" lon="-2.98477">
        <ele>17</ele>
        <time>2021-09-23T08:34:26.848Z</time>
      </trkpt>
      <trkpt lat="47.65128" lon="-2.98463">
        <ele>17.20000076294</ele>
        <time>2021-09-23T08:34:32.035Z</time>
      </trkpt>
      <trkpt lat="47.65126" lon="-2.9845">
        <ele>16.20000076294</ele>
        <time>2021-09-23T08:34:37.225Z</time>
      </trkpt>
      <trkpt lat="47.65123" lon="-2.98432">
        <ele>15.19999980927</ele>
        <time>2021-09-23T08:34:42.418Z</time>
      </trkpt>
      <trkpt lat="47.65117" lon="-2.98375">
        <ele>12.80000019073</ele>
        <time>2021-09-23T08:34:47.623Z</time>
      </trkpt>
      <trkpt lat="47.65118" lon="-2.98351">
        <ele>11.19999980927</ele>
        <time>2021-09-23T08:34:52.833Z</time>
      </trkpt>
      <trkpt lat="47.65122" lon="-2.9834">
        <ele>10.19999980927</ele>
        <time>2021-09-23T08:34:58.045Z</time>
      </trkpt>
      <trkpt lat="47.65142" lon="-2.98278">
        <ele>6.59999990463</ele>
        <time>2021-09-23T08:35:03.271Z</time>
      </trkpt>
      <trkpt lat="47.6514" lon="-2.98261">
        <ele>6</ele>
        <time>2021-09-23T08:35:08.500Z</time>
      </trkpt>
      <trkpt lat="47.65139" lon="-2.98256">
        <ele>5.80000019073</ele>
        <time>2021-09-23T08:35:13.731Z</time>
      </trkpt>
      <trkpt lat="47.65136" lon="-2.98242">
        <ele>5.19999980927</ele>
        <time>2021-09-23T08:35:18.964Z</time>
      </trkpt>
      <trkpt lat="47.65135" lon="-2.98239">
        <ele>5.40000009537</ele>
        <time>2021-09-23T08:35:24.198Z</time>
      </trkpt>
      <trkpt lat="47.65131" lon="-2.98231">
        <ele>5.59999990463</ele>
        <time>2021-09-23T08:35:29.434Z</time>
      </trkpt>
      <trkpt lat="47.6513" lon="-2.98227">
        <ele>5.80000019073</ele>
        <time>2021-09-23T08:35:34.671Z</time>
      </trkpt>
      <trkpt lat="47.65128" lon="-2.98221">
        <ele>6</ele>
        <time>2021-09-23T08:35:39.909Z</time>
      </trkpt>
      <trkpt lat="47.65127" lon="-2.98219">
        <ele>6</ele>
        <time>2021-09-23T08:35:45.148Z</time>
      </trkpt>
      <trkpt lat="47.65126" lon="-2.98217">
        <ele>6</ele>
        <time>2021-09-23T08:35:50.387Z</time>
      </trkpt>
      <trkpt lat="47.65124" lon="-2.98216">
        <ele>6</ele>
        <time>2021-09-23T08:35:55.627Z</time>
      </trkpt>
      <trkpt lat="47.65126" lon="-2.98216">
        <ele>6</ele>
        <time>2021-09-23T08:36:00.867Z</time>
      </trkpt>
      <trkpt lat="47.65127" lon="-2.98219">
        <ele>6</ele>
        <time>2021-09-23T08:36:06.108Z</time>
      </trkpt>
      <trkpt lat="47.65131" lon="-2.98229">
        <ele>5.59999990463</ele>
        <time>2021-09-23T08:36:11.352Z</time>
      </trkpt>
      <trkpt lat="47.65135" lon="-2.98239">
        <ele>5.40000009537</ele>
        <time>2021-09-23T08:36:16.598Z</time>
      </trkpt>
      <trkpt lat="47.65138" lon="-2.98236">
        <ele>5.19999980927</ele>
        <time>2021-09-23T08:36:21.845Z</time>
      </trkpt>
      <trkpt lat="47.65138" lon="-2.98224">
        <ele>5.59999990463</ele>
        <time>2021-09-23T08:36:27.094Z</time>
      </trkpt>
      <trkpt lat="47.65139" lon="-2.98207">
        <ele>6</ele>
        <time>2021-09-23T08:36:32.347Z</time>
      </trkpt>
      <trkpt lat="47.65139" lon="-2.98181">
        <ele>6</ele>
        <time>2021-09-23T08:36:37.605Z</time>
      </trkpt>
      <trkpt lat="47.65128" lon="-2.98158">
        <ele>6.80000019073</ele>
        <time>2021-09-23T08:36:42.869Z</time>
      </trkpt>
      <trkpt lat="47.6512" lon="-2.9815">
        <ele>7</ele>
        <time>2021-09-23T08:36:48.135Z</time>
      </trkpt>
      <trkpt lat="47.6508" lon="-2.98114">
        <ele>8.19999980927</ele>
        <time>2021-09-23T08:36:53.416Z</time>
      </trkpt>
      <trkpt lat="47.6507" lon="-2.98107">
        <ele>9.39999961853</ele>
        <time>2021-09-23T08:36:58.700Z</time>
      </trkpt>
      <trkpt lat="47.65069" lon="-2.98105">
        <ele>9.60000038147</ele>
        <time>2021-09-23T08:37:03.984Z</time>
      </trkpt>
      <trkpt lat="47.65063" lon="-2.98099">
        <ele>10.60000038147</ele>
        <time>2021-09-23T08:37:09.271Z</time>
      </trkpt>
      <trkpt lat="47.6505" lon="-2.98089">
        <ele>12.39999961853</ele>
        <time>2021-09-23T08:37:14.562Z</time>
      </trkpt>
      <trkpt lat="47.65038" lon="-2.98077">
        <ele>14.60000038147</ele>
        <time>2021-09-23T08:37:19.857Z</time>
      </trkpt>
      <trkpt lat="47.65031" lon="-2.9807">
        <ele>16.20000076294</ele>
        <time>2021-09-23T08:37:25.155Z</time>
      </trkpt>
      <trkpt lat="47.65029" lon="-2.9807">
        <ele>16.39999961853</ele>
        <time>2021-09-23T08:37:30.453Z</time>
      </trkpt>
      <trkpt lat="47.6502" lon="-2.98063">
        <ele>17.79999923706</ele>
        <time>2021-09-23T08:37:35.754Z</time>
      </trkpt>
      <trkpt lat="47.65013" lon="-2.98056">
        <ele>18.60000038147</ele>
        <time>2021-09-23T08:37:41.058Z</time>
      </trkpt>
      <trkpt lat="47.65003" lon="-2.9805">
        <ele>20.39999961853</ele>
        <time>2021-09-23T08:37:46.365Z</time>
      </trkpt>
      <trkpt lat="47.65002" lon="-2.98049">
        <ele>20.60000038147</ele>
        <time>2021-09-23T08:37:51.672Z</time>
      </trkpt>
      <trkpt lat="47.64997" lon="-2.98044">
        <ele>21.39999961853</ele>
        <time>2021-09-23T08:37:56.981Z</time>
      </trkpt>
      <trkpt lat="47.64989" lon="-2.98037">
        <ele>22.60000038147</ele>
        <time>2021-09-23T08:38:02.293Z</time>
      </trkpt>
      <trkpt lat="47.64981" lon="-2.98031">
        <ele>23.39999961853</ele>
        <time>2021-09-23T08:38:07.608Z</time>
      </trkpt>
      <trkpt lat="47.64975" lon="-2.98025">
        <ele>24</ele>
        <time>2021-09-23T08:38:12.925Z</time>
      </trkpt>
      <trkpt lat="47.64967" lon="-2.98019">
        <ele>24</ele>
        <time>2021-09-23T08:38:18.244Z</time>
      </trkpt>
      <trkpt lat="47.64957" lon="-2.98011">
        <ele>24</ele>
        <time>2021-09-23T08:38:23.567Z</time>
      </trkpt>
      <trkpt lat="47.64945" lon="-2.98005">
        <ele>24.60000038147</ele>
        <time>2021-09-23T08:38:28.894Z</time>
      </trkpt>
      <trkpt lat="47.64927" lon="-2.98002">
        <ele>25.60000038147</ele>
        <time>2021-09-23T08:38:34.226Z</time>
      </trkpt>
      <trkpt lat="47.64903" lon="-2.97996">
        <ele>25.39999961853</ele>
        <time>2021-09-23T08:38:39.565Z</time>
      </trkpt>
      <trkpt lat="47.64891" lon="-2.97995">
        <ele>25.79999923706</ele>
        <time>2021-09-23T08:38:44.908Z</time>
      </trkpt>
      <trkpt lat="47.64885" lon="-2.97997">
        <ele>26.39999961853</ele>
        <time>2021-09-23T08:38:50.253Z</time>
      </trkpt>
      <trkpt lat="47.64881" lon="-2.98001">
        <ele>27</ele>
        <time>2021-09-23T08:38:55.599Z</time>
      </trkpt>
      <trkpt lat="47.6488" lon="-2.98004">
        <ele>27.20000076294</ele>
        <time>2021-09-23T08:39:00.946Z</time>
      </trkpt>
      <trkpt lat="47.64874" lon="-2.98013">
        <ele>28.39999961853</ele>
        <time>2021-09-23T08:39:06.295Z</time>
      </trkpt>
      <trkpt lat="47.64873" lon="-2.98014">
        <ele>28.39999961853</ele>
        <time>2021-09-23T08:39:11.645Z</time>
      </trkpt>
      <trkpt lat="47.64865" lon="-2.98022">
        <ele>29.39999961853</ele>
        <time>2021-09-23T08:39:16.997Z</time>
      </trkpt>
      <trkpt lat="47.64858" lon="-2.98029">
        <ele>30</ele>
        <time>2021-09-23T08:39:22.352Z</time>
      </trkpt>
      <trkpt lat="47.64846" lon="-2.98039">
        <ele>31.39999961853</ele>
        <time>2021-09-23T08:39:27.711Z</time>
      </trkpt>
      <trkpt lat="47.64835" lon="-2.9805">
        <ele>32.40000152588</ele>
        <time>2021-09-23T08:39:33.074Z</time>
      </trkpt>
      <trkpt lat="47.64825" lon="-2.9806">
        <ele>33.20000076294</ele>
        <time>2021-09-23T08:39:38.441Z</time>
      </trkpt>
      <trkpt lat="47.64815" lon="-2.98071">
        <ele>33.79999923706</ele>
        <time>2021-09-23T08:39:43.811Z</time>
      </trkpt>
      <trkpt lat="47.64806" lon="-2.98081">
        <ele>34.20000076294</ele>
        <time>2021-09-23T08:39:49.185Z</time>
      </trkpt>
      <trkpt lat="47.64794" lon="-2.98087">
        <ele>34.59999847412</ele>
        <time>2021-09-23T08:39:54.563Z</time>
      </trkpt>
      <trkpt lat="47.64778" lon="-2.98091">
        <ele>34.40000152588</ele>
        <time>2021-09-23T08:39:59.945Z</time>
      </trkpt>
      <trkpt lat="47.64767" lon="-2.98099">
        <ele>34.59999847412</ele>
        <time>2021-09-23T08:40:05.331Z</time>
      </trkpt>
      <trkpt lat="47.64749" lon="-2.98107">
        <ele>34.20000076294</ele>
        <time>2021-09-23T08:40:10.723Z</time>
      </trkpt>
      <trkpt lat="47.64716" lon="-2.98121">
        <ele>33.20000076294</ele>
        <time>2021-09-23T08:40:16.125Z</time>
      </trkpt>
      <trkpt lat="47.64693" lon="-2.98131">
        <ele>33.79999923706</ele>
        <time>2021-09-23T08:40:21.534Z</time>
      </trkpt>
      <trkpt lat="47.6467" lon="-2.98144">
        <ele>36</ele>
        <time>2021-09-23T08:40:26.950Z</time>
      </trkpt>
      <trkpt lat="47.64656" lon="-2.98154">
        <ele>36.59999847412</ele>
        <time>2021-09-23T08:40:32.371Z</time>
      </trkpt>
      <trkpt lat="47.64638" lon="-2.98165">
        <ele>36</ele>
        <time>2021-09-23T08:40:37.798Z</time>
      </trkpt>
      <trkpt lat="47.64608" lon="-2.98181">
        <ele>33.40000152588</ele>
        <time>2021-09-23T08:40:43.234Z</time>
      </trkpt>
      <trkpt lat="47.64584" lon="-2.98191">
        <ele>32.40000152588</ele>
        <time>2021-09-23T08:40:48.678Z</time>
      </trkpt>
      <trkpt lat="47.64564" lon="-2.98199">
        <ele>32.79999923706</ele>
        <time>2021-09-23T08:40:54.128Z</time>
      </trkpt>
      <trkpt lat="47.64545" lon="-2.98208">
        <ele>33</ele>
        <time>2021-09-23T08:40:59.584Z</time>
      </trkpt>
      <trkpt lat="47.64521" lon="-2.9822">
        <ele>33</ele>
        <time>2021-09-23T08:41:05.047Z</time>
      </trkpt>
      <trkpt lat="47.64502" lon="-2.98228">
        <ele>33.20000076294</ele>
        <time>2021-09-23T08:41:10.516Z</time>
      </trkpt>
      <trkpt lat="47.64496" lon="-2.98228">
        <ele>33.20000076294</ele>
        <time>2021-09-23T08:41:15.987Z</time>
      </trkpt>
      <trkpt lat="47.64479" lon="-2.98228">
        <ele>33.20000076294</ele>
        <time>2021-09-23T08:41:21.463Z</time>
      </trkpt>
      <trkpt lat="47.64468" lon="-2.98236">
        <ele>32.59999847412</ele>
        <time>2021-09-23T08:41:26.943Z</time>
      </trkpt>
      <trkpt lat="47.64464" lon="-2.98242">
        <ele>32</ele>
        <time>2021-09-23T08:41:32.425Z</time>
      </trkpt>
      <trkpt lat="47.6446" lon="-2.9825">
        <ele>31.39999961853</ele>
        <time>2021-09-23T08:41:37.909Z</time>
      </trkpt>
      <trkpt lat="47.64447" lon="-2.98278">
        <ele>30</ele>
        <time>2021-09-23T08:41:43.400Z</time>
      </trkpt>
      <trkpt lat="47.64413" lon="-2.98346">
        <ele>28.79999923706</ele>
        <time>2021-09-23T08:41:48.907Z</time>
      </trkpt>
      <trkpt lat="47.64402" lon="-2.98353">
        <ele>28</ele>
        <time>2021-09-23T08:41:54.418Z</time>
      </trkpt>
      <trkpt lat="47.64395" lon="-2.98354">
        <ele>27.79999923706</ele>
        <time>2021-09-23T08:41:59.931Z</time>
      </trkpt>
      <trkpt lat="47.64388" lon="-2.98354">
        <ele>27.60000038147</ele>
        <time>2021-09-23T08:42:05.446Z</time>
      </trkpt>
      <trkpt lat="47.6436" lon="-2.98356">
        <ele>27.20000076294</ele>
        <time>2021-09-23T08:42:10.970Z</time>
      </trkpt>
      <trkpt lat="47.64302" lon="-2.98364">
        <ele>24.79999923706</ele>
        <time>2021-09-23T08:42:16.511Z</time>
      </trkpt>
      <trkpt lat="47.64255" lon="-2.98363">
        <ele>23.79999923706</ele>
        <time>2021-09-23T08:42:22.066Z</time>
      </trkpt>
      <trkpt lat="47.64236" lon="-2.98361">
        <ele>24.39999961853</ele>
        <time>2021-09-23T08:42:27.627Z</time>
      </trkpt>
      <trkpt lat="47.64219" lon="-2.98359">
        <ele>23.79999923706</ele>
        <time>2021-09-23T08:42:33.193Z</time>
      </trkpt>
      <trkpt lat="47.64183" lon="-2.98348">
        <ele>22.79999923706</ele>
        <time>2021-09-23T08:42:38.770Z</time>
      </trkpt>
      <trkpt lat="47.64149" lon="-2.98329">
        <ele>21</ele>
        <time>2021-09-23T08:42:44.357Z</time>
      </trkpt>
      <trkpt lat="47.64103" lon="-2.98298">
        <ele>19.79999923706</ele>
        <time>2021-09-23T08:42:49.960Z</time>
      </trkpt>
      <trkpt lat="47.64082" lon="-2.9828">
        <ele>19.79999923706</ele>
        <time>2021-09-23T08:42:55.570Z</time>
      </trkpt>
      <trkpt lat="47.64073" lon="-2.98267">
        <ele>19.79999923706</ele>
        <time>2021-09-23T08:43:01.184Z</time>
      </trkpt>
      <trkpt lat="47.64069" lon="-2.98259">
        <ele>20.20000076294</ele>
        <time>2021-09-23T08:43:06.800Z</time>
      </trkpt>
      <trkpt lat="47.6406" lon="-2.98236">
        <ele>20</ele>
        <time>2021-09-23T08:43:12.421Z</time>
      </trkpt>
      <trkpt lat="47.64045" lon="-2.98195">
        <ele>22</ele>
        <time>2021-09-23T08:43:18.051Z</time>
      </trkpt>
      <trkpt lat="47.6403" lon="-2.9816">
        <ele>22.60000038147</ele>
        <time>2021-09-23T08:43:23.690Z</time>
      </trkpt>
      <trkpt lat="47.64021" lon="-2.98145">
        <ele>22.79999923706</ele>
        <time>2021-09-23T08:43:29.333Z</time>
      </trkpt>
      <trkpt lat="47.64011" lon="-2.98143">
        <ele>22.20000076294</ele>
        <time>2021-09-23T08:43:34.979Z</time>
      </trkpt>
      <trkpt lat="47.63994" lon="-2.9815">
        <ele>20.79999923706</ele>
        <time>2021-09-23T08:43:40.630Z</time>
      </trkpt>
      <trkpt lat="47.63952" lon="-2.98158">
        <ele>19</ele>
        <time>2021-09-23T08:43:46.294Z</time>
      </trkpt>
      <trkpt lat="47.63926" lon="-2.98148">
        <ele>20</ele>
        <time>2021-09-23T08:43:51.966Z</time>
      </trkpt>
      <trkpt lat="47.63913" lon="-2.98139">
        <ele>20</ele>
        <time>2021-09-23T08:43:57.642Z</time>
      </trkpt>
      <trkpt lat="47.63905" lon="-2.98134">
        <ele>20</ele>
        <time>2021-09-23T08:44:03.321Z</time>
      </trkpt>
      <trkpt lat="47.63881" lon="-2.98103">
        <ele>19.39999961853</ele>
        <time>2021-09-23T08:44:09.009Z</time>
      </trkpt>
      <trkpt lat="47.63871" lon="-2.9809">
        <ele>18.79999923706</ele>
        <time>2021-09-23T08:44:14.701Z</time>
      </trkpt>
      <trkpt lat="47.63861" lon="-2.98081">
        <ele>18.20000076294</ele>
        <time>2021-09-23T08:44:20.397Z</time>
      </trkpt>
      <trkpt lat="47.63832" lon="-2.98071">
        <ele>15.60000038147</ele>
        <time>2021-09-23T08:44:26.101Z</time>
      </trkpt>
      <trkpt lat="47.63796" lon="-2.98058">
        <ele>13</ele>
        <time>2021-09-23T08:44:31.817Z</time>
      </trkpt>
      <trkpt lat="47.63742" lon="-2.98038">
        <ele>9.60000038147</ele>
        <time>2021-09-23T08:44:37.549Z</time>
      </trkpt>
      <trkpt lat="47.63694" lon="-2.9803">
        <ele>10.39999961853</ele>
        <time>2021-09-23T08:44:43.295Z</time>
      </trkpt>
      <trkpt lat="47.63665" lon="-2.98027">
        <ele>13.60000038147</ele>
        <time>2021-09-23T08:44:49.050Z</time>
      </trkpt>
      <trkpt lat="47.63645" lon="-2.98026">
        <ele>16.20000076294</ele>
        <time>2021-09-23T08:44:54.811Z</time>
      </trkpt>
      <trkpt lat="47.6364" lon="-2.98026">
        <ele>16.79999923706</ele>
        <time>2021-09-23T08:45:00.574Z</time>
      </trkpt>
      <trkpt lat="47.63609" lon="-2.98039">
        <ele>19</ele>
        <time>2021-09-23T08:45:06.346Z</time>
      </trkpt>
      <trkpt lat="47.6357" lon="-2.98069">
        <ele>17.79999923706</ele>
        <time>2021-09-23T08:45:12.131Z</time>
      </trkpt>
      <trkpt lat="47.63531" lon="-2.98103">
        <ele>16.20000076294</ele>
        <time>2021-09-23T08:45:17.930Z</time>
      </trkpt>
      <trkpt lat="47.63519" lon="-2.98113">
        <ele>15.60000038147</ele>
        <time>2021-09-23T08:45:23.733Z</time>
      </trkpt>
      <trkpt lat="47.63509" lon="-2.98128">
        <ele>15.60000038147</ele>
        <time>2021-09-23T08:45:29.540Z</time>
      </trkpt>
      <trkpt lat="47.63507" lon="-2.98133">
        <ele>15.80000019073</ele>
        <time>2021-09-23T08:45:35.348Z</time>
      </trkpt>
      <trkpt lat="47.63498" lon="-2.98154">
        <ele>17</ele>
        <time>2021-09-23T08:45:41.161Z</time>
      </trkpt>
      <trkpt lat="47.63485" lon="-2.98185">
        <ele>19.60000038147</ele>
        <time>2021-09-23T08:45:46.982Z</time>
      </trkpt>
      <trkpt lat="47.63473" lon="-2.98214">
        <ele>20</ele>
        <time>2021-09-23T08:45:52.810Z</time>
      </trkpt>
      <trkpt lat="47.6346" lon="-2.98244">
        <ele>19.39999961853</ele>
        <time>2021-09-23T08:45:58.645Z</time>
      </trkpt>
      <trkpt lat="47.63443" lon="-2.98286">
        <ele>17.79999923706</ele>
        <time>2021-09-23T08:46:04.490Z</time>
      </trkpt>
      <trkpt lat="47.63432" lon="-2.98313">
        <ele>17.39999961853</ele>
        <time>2021-09-23T08:46:10.341Z</time>
      </trkpt>
      <trkpt lat="47.63439" lon="-2.9834">
        <ele>18</ele>
        <time>2021-09-23T08:46:16.198Z</time>
      </trkpt>
      <trkpt lat="47.63457" lon="-2.98376">
        <ele>18</ele>
        <time>2021-09-23T08:46:22.064Z</time>
      </trkpt>
      <trkpt lat="47.63468" lon="-2.98408">
        <ele>18.20000076294</ele>
        <time>2021-09-23T08:46:27.937Z</time>
      </trkpt>
      <trkpt lat="47.63478" lon="-2.9844">
        <ele>18.39999961853</ele>
        <time>2021-09-23T08:46:33.817Z</time>
      </trkpt>
      <trkpt lat="47.63481" lon="-2.98479">
        <ele>19</ele>
        <time>2021-09-23T08:46:39.705Z</time>
      </trkpt>
      <trkpt lat="47.63484" lon="-2.98534">
        <ele>19.79999923706</ele>
        <time>2021-09-23T08:46:45.604Z</time>
      </trkpt>
      <trkpt lat="47.6349" lon="-2.98568">
        <ele>20.60000038147</ele>
        <time>2021-09-23T08:46:51.510Z</time>
      </trkpt>
      <trkpt lat="47.63503" lon="-2.98604">
        <ele>21.20000076294</ele>
        <time>2021-09-23T08:46:57.424Z</time>
      </trkpt>
      <trkpt lat="47.63523" lon="-2.98654">
        <ele>23.39999961853</ele>
        <time>2021-09-23T08:47:03.350Z</time>
      </trkpt>
      <trkpt lat="47.63539" lon="-2.98688">
        <ele>23.79999923706</ele>
        <time>2021-09-23T08:47:09.285Z</time>
      </trkpt>
      <trkpt lat="47.63547" lon="-2.98704">
        <ele>23.79999923706</ele>
        <time>2021-09-23T08:47:15.224Z</time>
      </trkpt>
      <trkpt lat="47.63547" lon="-2.98725">
        <ele>24</ele>
        <time>2021-09-23T08:47:21.167Z</time>
      </trkpt>
      <trkpt lat="47.63539" lon="-2.98742">
        <ele>24.39999961853</ele>
        <time>2021-09-23T08:47:27.114Z</time>
      </trkpt>
      <trkpt lat="47.63534" lon="-2.9875">
        <ele>24.79999923706</ele>
        <time>2021-09-23T08:47:33.063Z</time>
      </trkpt>
      <trkpt lat="47.63529" lon="-2.98761">
        <ele>25</ele>
        <time>2021-09-23T08:47:39.015Z</time>
      </trkpt>
      <trkpt lat="47.63514" lon="-2.98793">
        <ele>24</ele>
        <time>2021-09-23T08:47:44.975Z</time>
      </trkpt>
      <trkpt lat="47.63503" lon="-2.98814">
        <ele>24</ele>
        <time>2021-09-23T08:47:50.940Z</time>
      </trkpt>
      <trkpt lat="47.63494" lon="-2.98833">
        <ele>23.20000076294</ele>
        <time>2021-09-23T08:47:56.910Z</time>
      </trkpt>
      <trkpt lat="47.63476" lon="-2.98855">
        <ele>22.60000038147</ele>
        <time>2021-09-23T08:48:02.887Z</time>
      </trkpt>
      <trkpt lat="47.63437" lon="-2.98871">
        <ele>25.20000076294</ele>
        <time>2021-09-23T08:48:08.876Z</time>
      </trkpt>
      <trkpt lat="47.63412" lon="-2.98879">
        <ele>26.20000076294</ele>
        <time>2021-09-23T08:48:14.872Z</time>
      </trkpt>
      <trkpt lat="47.63399" lon="-2.98882">
        <ele>26.20000076294</ele>
        <time>2021-09-23T08:48:20.872Z</time>
      </trkpt>
      <trkpt lat="47.63396" lon="-2.98882">
        <ele>26.20000076294</ele>
        <time>2021-09-23T08:48:26.873Z</time>
      </trkpt>
      <trkpt lat="47.63379" lon="-2.98883">
        <ele>26.79999923706</ele>
        <time>2021-09-23T08:48:32.879Z</time>
      </trkpt>
      <trkpt lat="47.63357" lon="-2.98879">
        <ele>26.79999923706</ele>
        <time>2021-09-23T08:48:38.892Z</time>
      </trkpt>
      <trkpt lat="47.63353" lon="-2.98879">
        <ele>26.79999923706</ele>
        <time>2021-09-23T08:48:44.906Z</time>
      </trkpt>
      <trkpt lat="47.63343" lon="-2.98877">
        <ele>26.20000076294</ele>
        <time>2021-09-23T08:48:50.923Z</time>
      </trkpt>
      <trkpt lat="47.63333" lon="-2.98875">
        <ele>26</ele>
        <time>2021-09-23T08:48:56.943Z</time>
      </trkpt>
      <trkpt lat="47.63323" lon="-2.98872">
        <ele>26</ele>
        <time>2021-09-23T08:49:02.966Z</time>
      </trkpt>
      <trkpt lat="47.63315" lon="-2.98868">
        <ele>26</ele>
        <time>2021-09-23T08:49:08.992Z</time>
      </trkpt>
      <trkpt lat="47.63293" lon="-2.98859">
        <ele>26</ele>
        <time>2021-09-23T08:49:15.024Z</time>
      </trkpt>
      <trkpt lat="47.63288" lon="-2.98858">
        <ele>26</ele>
        <time>2021-09-23T08:49:21.058Z</time>
      </trkpt>
      <trkpt lat="47.63279" lon="-2.98854">
        <ele>26</ele>
        <time>2021-09-23T08:49:27.095Z</time>
      </trkpt>
      <trkpt lat="47.63267" lon="-2.98849">
        <ele>26</ele>
        <time>2021-09-23T08:49:33.135Z</time>
      </trkpt>
      <trkpt lat="47.63252" lon="-2.98843">
        <ele>26.20000076294</ele>
        <time>2021-09-23T08:49:39.180Z</time>
      </trkpt>
      <trkpt lat="47.63243" lon="-2.9884">
        <ele>26.20000076294</ele>
        <time>2021-09-23T08:49:45.228Z</time>
      </trkpt>
      <trkpt lat="47.63236" lon="-2.98837">
        <ele>26.39999961853</ele>
        <time>2021-09-23T08:49:51.278Z</time>
      </trkpt>
      <trkpt lat="47.6321" lon="-2.98827">
        <ele>24.79999923706</ele>
        <time>2021-09-23T08:49:57.336Z</time>
      </trkpt>
      <trkpt lat="47.63191" lon="-2.98819">
        <ele>24.20000076294</ele>
        <time>2021-09-23T08:50:03.400Z</time>
      </trkpt>
      <trkpt lat="47.63184" lon="-2.98816">
        <ele>24.60000038147</ele>
        <time>2021-09-23T08:50:09.466Z</time>
      </trkpt>
      <trkpt lat="47.63176" lon="-2.98813">
        <ele>25</ele>
        <time>2021-09-23T08:50:15.535Z</time>
      </trkpt>
      <trkpt lat="47.63157" lon="-2.98806">
        <ele>25.39999961853</ele>
        <time>2021-09-23T08:50:21.609Z</time>
      </trkpt>
      <trkpt lat="47.63132" lon="-2.98796">
        <ele>25.79999923706</ele>
        <time>2021-09-23T08:50:27.691Z</time>
      </trkpt>
      <trkpt lat="47.63119" lon="-2.98791">
        <ele>26</ele>
        <time>2021-09-23T08:50:33.777Z</time>
      </trkpt>
      <trkpt lat="47.6311" lon="-2.98787">
        <ele>26.20000076294</ele>
        <time>2021-09-23T08:50:39.866Z</time>
      </trkpt>
      <trkpt lat="47.63085" lon="-2.98777">
        <ele>27</ele>
        <time>2021-09-23T08:50:45.963Z</time>
      </trkpt>
      <trkpt lat="47.63064" lon="-2.98768">
        <ele>26.20000076294</ele>
        <time>2021-09-23T08:50:52.066Z</time>
      </trkpt>
      <trkpt lat="47.63037" lon="-2.98758">
        <ele>24.39999961853</ele>
        <time>2021-09-23T08:50:58.178Z</time>
      </trkpt>
      <trkpt lat="47.63" lon="-2.98743">
        <ele>24</ele>
        <time>2021-09-23T08:51:04.301Z</time>
      </trkpt>
      <trkpt lat="47.62976" lon="-2.98732">
        <ele>25</ele>
        <time>2021-09-23T08:51:10.431Z</time>
      </trkpt>
      <trkpt lat="47.62967" lon="-2.98728">
        <ele>25</ele>
        <time>2021-09-23T08:51:16.564Z</time>
      </trkpt>
      <trkpt lat="47.62928" lon="-2.98708">
        <ele>25.20000076294</ele>
        <time>2021-09-23T08:51:22.710Z</time>
      </trkpt>
      <trkpt lat="47.6289" lon="-2.98689">
        <ele>25.20000076294</ele>
        <time>2021-09-23T08:51:28.867Z</time>
      </trkpt>
      <trkpt lat="47.6285" lon="-2.9867">
        <ele>27.60000038147</ele>
        <time>2021-09-23T08:51:35.037Z</time>
      </trkpt>
      <trkpt lat="47.62841" lon="-2.98665">
        <ele>27.79999923706</ele>
        <time>2021-09-23T08:51:41.210Z</time>
      </trkpt>
      <trkpt lat="47.62826" lon="-2.98657">
        <ele>27.60000038147</ele>
        <time>2021-09-23T08:51:47.388Z</time>
      </trkpt>
      <trkpt lat="47.62821" lon="-2.98655">
        <ele>27.60000038147</ele>
        <time>2021-09-23T08:51:53.567Z</time>
      </trkpt>
      <trkpt lat="47.62812" lon="-2.9865">
        <ele>27.79999923706</ele>
        <time>2021-09-23T08:51:59.749Z</time>
      </trkpt>
      <trkpt lat="47.62803" lon="-2.98646">
        <ele>27</ele>
        <time>2021-09-23T08:52:05.934Z</time>
      </trkpt>
      <trkpt lat="47.62798" lon="-2.98644">
        <ele>26.60000038147</ele>
        <time>2021-09-23T08:52:12.120Z</time>
      </trkpt>
      <trkpt lat="47.62776" lon="-2.98632">
        <ele>24.79999923706</ele>
        <time>2021-09-23T08:52:18.313Z</time>
      </trkpt>
      <trkpt lat="47.62772" lon="-2.9863">
        <ele>24.60000038147</ele>
        <time>2021-09-23T08:52:24.508Z</time>
      </trkpt>
      <trkpt lat="47.62759" lon="-2.98624">
        <ele>24.20000076294</ele>
        <time>2021-09-23T08:52:30.707Z</time>
      </trkpt>
      <trkpt lat="47.62732" lon="-2.9861">
        <ele>24</ele>
        <time>2021-09-23T08:52:36.914Z</time>
      </trkpt>
      <trkpt lat="47.62706" lon="-2.98598">
        <ele>24</ele>
        <time>2021-09-23T08:52:43.129Z</time>
      </trkpt>
      <trkpt lat="47.62701" lon="-2.98595">
        <ele>24</ele>
        <time>2021-09-23T08:52:49.346Z</time>
      </trkpt>
      <trkpt lat="47.62691" lon="-2.9859">
        <ele>24</ele>
        <time>2021-09-23T08:52:55.566Z</time>
      </trkpt>
      <trkpt lat="47.6268" lon="-2.98584">
        <ele>24</ele>
        <time>2021-09-23T08:53:01.789Z</time>
      </trkpt>
      <trkpt lat="47.62675" lon="-2.98582">
        <ele>24</ele>
        <time>2021-09-23T08:53:08.014Z</time>
      </trkpt>
      <trkpt lat="47.62664" lon="-2.98576">
        <ele>23.79999923706</ele>
        <time>2021-09-23T08:53:14.243Z</time>
      </trkpt>
      <trkpt lat="47.62649" lon="-2.9857">
        <ele>23.20000076294</ele>
        <time>2021-09-23T08:53:20.476Z</time>
      </trkpt>
      <trkpt lat="47.62639" lon="-2.98567">
        <ele>23</ele>
        <time>2021-09-23T08:53:26.712Z</time>
      </trkpt>
      <trkpt lat="47.6263" lon="-2.98565">
        <ele>23</ele>
        <time>2021-09-23T08:53:32.951Z</time>
      </trkpt>
      <trkpt lat="47.62626" lon="-2.98564">
        <ele>23</ele>
        <time>2021-09-23T08:53:39.191Z</time>
      </trkpt>
      <trkpt lat="47.62616" lon="-2.98562">
        <ele>22.79999923706</ele>
        <time>2021-09-23T08:53:45.434Z</time>
      </trkpt>
      <trkpt lat="47.62606" lon="-2.98559">
        <ele>22.39999961853</ele>
        <time>2021-09-23T08:53:51.680Z</time>
      </trkpt>
      <trkpt lat="47.62574" lon="-2.9855">
        <ele>21</ele>
        <time>2021-09-23T08:53:57.936Z</time>
      </trkpt>
      <trkpt lat="47.62565" lon="-2.98546">
        <ele>21</ele>
        <time>2021-09-23T08:54:04.195Z</time>
      </trkpt>
      <trkpt lat="47.6256" lon="-2.98544">
        <ele>21</ele>
        <time>2021-09-23T08:54:10.455Z</time>
      </trkpt>
      <trkpt lat="47.62555" lon="-2.98542">
        <ele>21.20000076294</ele>
        <time>2021-09-23T08:54:16.717Z</time>
      </trkpt>
      <trkpt lat="47.62546" lon="-2.98538">
        <ele>21.60000038147</ele>
        <time>2021-09-23T08:54:22.982Z</time>
      </trkpt>
      <trkpt lat="47.62542" lon="-2.98536">
        <ele>21.79999923706</ele>
        <time>2021-09-23T08:54:29.248Z</time>
      </trkpt>
      <trkpt lat="47.62526" lon="-2.98529">
        <ele>22.60000038147</ele>
        <time>2021-09-23T08:54:35.519Z</time>
      </trkpt>
      <trkpt lat="47.62506" lon="-2.9852">
        <ele>23.60000038147</ele>
        <time>2021-09-23T08:54:41.796Z</time>
      </trkpt>
      <trkpt lat="47.62502" lon="-2.98518">
        <ele>23.79999923706</ele>
        <time>2021-09-23T08:54:48.074Z</time>
      </trkpt>
      <trkpt lat="47.62493" lon="-2.98514">
        <ele>24</ele>
        <time>2021-09-23T08:54:54.355Z</time>
      </trkpt>
      <trkpt lat="47.62484" lon="-2.98511">
        <ele>24.20000076294</ele>
        <time>2021-09-23T08:55:00.639Z</time>
      </trkpt>
      <trkpt lat="47.62468" lon="-2.98504">
        <ele>24</ele>
        <time>2021-09-23T08:55:06.928Z</time>
      </trkpt>
      <trkpt lat="47.62459" lon="-2.98499">
        <ele>23.79999923706</ele>
        <time>2021-09-23T08:55:13.220Z</time>
      </trkpt>
      <trkpt lat="47.62444" lon="-2.98493">
        <ele>23.79999923706</ele>
        <time>2021-09-23T08:55:19.516Z</time>
      </trkpt>
      <trkpt lat="47.62439" lon="-2.9849">
        <ele>23.79999923706</ele>
        <time>2021-09-23T08:55:25.814Z</time>
      </trkpt>
      <trkpt lat="47.62424" lon="-2.98481">
        <ele>24.20000076294</ele>
        <time>2021-09-23T08:55:32.117Z</time>
      </trkpt>
      <trkpt lat="47.62419" lon="-2.98478">
        <ele>24</ele>
        <time>2021-09-23T08:55:38.421Z</time>
      </trkpt>
      <trkpt lat="47.62409" lon="-2.98471">
        <ele>23.60000038147</ele>
        <time>2021-09-23T08:55:44.729Z</time>
      </trkpt>
      <trkpt lat="47.62396" lon="-2.98463">
        <ele>23.79999923706</ele>
        <time>2021-09-23T08:55:51.041Z</time>
      </trkpt>
      <trkpt lat="47.6238" lon="-2.98455">
        <ele>23.60000038147</ele>
        <time>2021-09-23T08:55:57.358Z</time>
      </trkpt>
      <trkpt lat="47.62371" lon="-2.98453">
        <ele>23.39999961853</ele>
        <time>2021-09-23T08:56:03.678Z</time>
      </trkpt>
      <trkpt lat="47.62354" lon="-2.98448">
        <ele>23.39999961853</ele>
        <time>2021-09-23T08:56:10.003Z</time>
      </trkpt>
      <trkpt lat="47.6235" lon="-2.98447">
        <ele>23.20000076294</ele>
        <time>2021-09-23T08:56:16.329Z</time>
      </trkpt>
      <trkpt lat="47.62334" lon="-2.98443">
        <ele>23</ele>
        <time>2021-09-23T08:56:22.660Z</time>
      </trkpt>
      <trkpt lat="47.62329" lon="-2.98442">
        <ele>22.79999923706</ele>
        <time>2021-09-23T08:56:28.992Z</time>
      </trkpt>
      <trkpt lat="47.62305" lon="-2.98436">
        <ele>21.60000038147</ele>
        <time>2021-09-23T08:56:35.332Z</time>
      </trkpt>
      <trkpt lat="47.62283" lon="-2.98427">
        <ele>20.39999961853</ele>
        <time>2021-09-23T08:56:41.678Z</time>
      </trkpt>
      <trkpt lat="47.62274" lon="-2.98423">
        <ele>20.20000076294</ele>
        <time>2021-09-23T08:56:48.027Z</time>
      </trkpt>
      <trkpt lat="47.62269" lon="-2.98421">
        <ele>20.20000076294</ele>
        <time>2021-09-23T08:56:54.378Z</time>
      </trkpt>
      <trkpt lat="47.6226" lon="-2.98416">
        <ele>20.20000076294</ele>
        <time>2021-09-23T08:57:00.732Z</time>
      </trkpt>
      <trkpt lat="47.62255" lon="-2.98414">
        <ele>20.20000076294</ele>
        <time>2021-09-23T08:57:07.087Z</time>
      </trkpt>
      <trkpt lat="47.6225" lon="-2.98412">
        <ele>20.39999961853</ele>
        <time>2021-09-23T08:57:13.444Z</time>
      </trkpt>
      <trkpt lat="47.6224" lon="-2.98407">
        <ele>20.79999923706</ele>
        <time>2021-09-23T08:57:19.804Z</time>
      </trkpt>
      <trkpt lat="47.62232" lon="-2.98403">
        <ele>21</ele>
        <time>2021-09-23T08:57:26.166Z</time>
      </trkpt>
      <trkpt lat="47.62222" lon="-2.98396">
        <ele>21.39999961853</ele>
        <time>2021-09-23T08:57:32.532Z</time>
      </trkpt>
      <trkpt lat="47.6222" lon="-2.98395">
        <ele>21.60000038147</ele>
        <time>2021-09-23T08:57:38.898Z</time>
      </trkpt>
      <trkpt lat="47.62218" lon="-2.98394">
        <ele>21.60000038147</ele>
        <time>2021-09-23T08:57:45.265Z</time>
      </trkpt>
      <trkpt lat="47.62207" lon="-2.9839">
        <ele>21.79999923706</ele>
        <time>2021-09-23T08:57:51.635Z</time>
      </trkpt>
      <trkpt lat="47.62189" lon="-2.98384">
        <ele>22.60000038147</ele>
        <time>2021-09-23T08:57:58.011Z</time>
      </trkpt>
      <trkpt lat="47.62172" lon="-2.98378">
        <ele>22.79999923706</ele>
        <time>2021-09-23T08:58:04.392Z</time>
      </trkpt>
      <trkpt lat="47.62159" lon="-2.98373">
        <ele>22.60000038147</ele>
        <time>2021-09-23T08:58:10.777Z</time>
      </trkpt>
      <trkpt lat="47.62145" lon="-2.98369">
        <ele>22.39999961853</ele>
        <time>2021-09-23T08:58:17.166Z</time>
      </trkpt>
      <trkpt lat="47.62134" lon="-2.98364">
        <ele>21.79999923706</ele>
        <time>2021-09-23T08:58:23.559Z</time>
      </trkpt>
      <trkpt lat="47.6213" lon="-2.98363">
        <ele>21.60000038147</ele>
        <time>2021-09-23T08:58:29.953Z</time>
      </trkpt>
      <trkpt lat="47.62117" lon="-2.98359">
        <ele>20.79999923706</ele>
        <time>2021-09-23T08:58:36.351Z</time>
      </trkpt>
      <trkpt lat="47.62108" lon="-2.98355">
        <ele>20.60000038147</ele>
        <time>2021-09-23T08:58:42.752Z</time>
      </trkpt>
      <trkpt lat="47.62104" lon="-2.98354">
        <ele>20.79999923706</ele>
        <time>2021-09-23T08:58:49.154Z</time>
      </trkpt>
      <trkpt lat="47.62087" lon="-2.98348">
        <ele>21</ele>
        <time>2021-09-23T08:58:55.561Z</time>
      </trkpt>
      <trkpt lat="47.62069" lon="-2.98342">
        <ele>21</ele>
        <time>2021-09-23T08:59:01.973Z</time>
      </trkpt>
      <trkpt lat="47.6206" lon="-2.98339">
        <ele>21</ele>
        <time>2021-09-23T08:59:08.388Z</time>
      </trkpt>
      <trkpt lat="47.62045" lon="-2.98333">
        <ele>20</ele>
        <time>2021-09-23T08:59:14.808Z</time>
      </trkpt>
      <trkpt lat="47.62035" lon="-2.9833">
        <ele>19.20000076294</ele>
        <time>2021-09-23T08:59:21.231Z</time>
      </trkpt>
      <trkpt lat="47.62019" lon="-2.98326">
        <ele>18.39999961853</ele>
        <time>2021-09-23T08:59:27.659Z</time>
      </trkpt>
      <trkpt lat="47.62004" lon="-2.98324">
        <ele>17.20000076294</ele>
        <time>2021-09-23T08:59:34.091Z</time>
      </trkpt>
      <trkpt lat="47.61993" lon="-2.98322">
        <ele>17.39999961853</ele>
        <time>2021-09-23T08:59:40.527Z</time>
      </trkpt>
      <trkpt lat="47.61988" lon="-2.98321">
        <ele>17.60000038147</ele>
        <time>2021-09-23T08:59:46.964Z</time>
      </trkpt>
      <trkpt lat="47.61969" lon="-2.98318">
        <ele>18.20000076294</ele>
        <time>2021-09-23T08:59:53.407Z</time>
      </trkpt>
      <trkpt lat="47.61949" lon="-2.98315">
        <ele>19</ele>
        <time>2021-09-23T08:59:59.856Z</time>
      </trkpt>
      <trkpt lat="47.61939" lon="-2.98313">
        <ele>19.39999961853</ele>
        <time>2021-09-23T09:00:06.308Z</time>
      </trkpt>
      <trkpt lat="47.61916" lon="-2.98309">
        <ele>19.39999961853</ele>
        <time>2021-09-23T09:00:12.767Z</time>
      </trkpt>
      <trkpt lat="47.61911" lon="-2.98308">
        <ele>19.20000076294</ele>
        <time>2021-09-23T09:00:19.227Z</time>
      </trkpt>
      <trkpt lat="47.61897" lon="-2.98307">
        <ele>19</ele>
        <time>2021-09-23T09:00:25.692Z</time>
      </trkpt>
      <trkpt lat="47.61892" lon="-2.98307">
        <ele>19</ele>
        <time>2021-09-23T09:00:32.158Z</time>
      </trkpt>
      <trkpt lat="47.61881" lon="-2.98304">
        <ele>19</ele>
        <time>2021-09-23T09:00:38.627Z</time>
      </trkpt>
      <trkpt lat="47.61873" lon="-2.983">
        <ele>18.60000038147</ele>
        <time>2021-09-23T09:00:45.099Z</time>
      </trkpt>
      <trkpt lat="47.61869" lon="-2.98298">
        <ele>18.39999961853</ele>
        <time>2021-09-23T09:00:51.572Z</time>
      </trkpt>
      <trkpt lat="47.61857" lon="-2.98292">
        <ele>18</ele>
        <time>2021-09-23T09:00:58.049Z</time>
      </trkpt>
      <trkpt lat="47.61845" lon="-2.98287">
        <ele>18</ele>
        <time>2021-09-23T09:01:04.529Z</time>
      </trkpt>
      <trkpt lat="47.61842" lon="-2.98285">
        <ele>18</ele>
        <time>2021-09-23T09:01:11.010Z</time>
      </trkpt>
      <trkpt lat="47.61823" lon="-2.98276">
        <ele>18</ele>
        <time>2021-09-23T09:01:17.498Z</time>
      </trkpt>
      <trkpt lat="47.61813" lon="-2.98271">
        <ele>18.20000076294</ele>
        <time>2021-09-23T09:01:23.988Z</time>
      </trkpt>
      <trkpt lat="47.61792" lon="-2.98264">
        <ele>18.60000038147</ele>
        <time>2021-09-23T09:01:30.485Z</time>
      </trkpt>
      <trkpt lat="47.61782" lon="-2.98261">
        <ele>18.79999923706</ele>
        <time>2021-09-23T09:01:36.985Z</time>
      </trkpt>
      <trkpt lat="47.61773" lon="-2.9826">
        <ele>18.60000038147</ele>
        <time>2021-09-23T09:01:43.488Z</time>
      </trkpt>
      <trkpt lat="47.61754" lon="-2.98262">
        <ele>18</ele>
        <time>2021-09-23T09:01:49.996Z</time>
      </trkpt>
      <trkpt lat="47.61737" lon="-2.98265">
        <ele>17.39999961853</ele>
        <time>2021-09-23T09:01:56.509Z</time>
      </trkpt>
      <trkpt lat="47.61715" lon="-2.98268">
        <ele>16.39999961853</ele>
        <time>2021-09-23T09:02:03.029Z</time>
      </trkpt>
      <trkpt lat="47.61705" lon="-2.98269">
        <ele>16</ele>
        <time>2021-09-23T09:02:09.552Z</time>
      </trkpt>
      <trkpt lat="47.61695" lon="-2.98271">
        <ele>15.80000019073</ele>
        <time>2021-09-23T09:02:16.078Z</time>
      </trkpt>
      <trkpt lat="47.61678" lon="-2.98273">
        <ele>15.19999980927</ele>
        <time>2021-09-23T09:02:22.609Z</time>
      </trkpt>
      <trkpt lat="47.6167" lon="-2.98277">
        <ele>15</ele>
        <time>2021-09-23T09:02:29.143Z</time>
      </trkpt>
      <trkpt lat="47.6167" lon="-2.98279">
        <ele>15</ele>
        <time>2021-09-23T09:02:35.677Z</time>
      </trkpt>
      <trkpt lat="47.61671" lon="-2.98285">
        <ele>15</ele>
        <time>2021-09-23T09:02:42.212Z</time>
      </trkpt>
      <trkpt lat="47.61672" lon="-2.98306">
        <ele>15</ele>
        <time>2021-09-23T09:02:48.751Z</time>
      </trkpt>
      <trkpt lat="47.61673" lon="-2.98311">
        <ele>15</ele>
        <time>2021-09-23T09:02:55.292Z</time>
      </trkpt>
      <trkpt lat="47.61674" lon="-2.9834">
        <ele>15</ele>
        <time>2021-09-23T09:03:01.838Z</time>
      </trkpt>
      <trkpt lat="47.61674" lon="-2.98346">
        <ele>15</ele>
        <time>2021-09-23T09:03:08.386Z</time>
      </trkpt>
      <trkpt lat="47.61672" lon="-2.98374">
        <ele>15</ele>
        <time>2021-09-23T09:03:14.939Z</time>
      </trkpt>
      <trkpt lat="47.6167" lon="-2.98429">
        <ele>15</ele>
        <time>2021-09-23T09:03:21.503Z</time>
      </trkpt>
      <trkpt lat="47.61665" lon="-2.9849">
        <ele>14</ele>
        <time>2021-09-23T09:03:28.080Z</time>
      </trkpt>
      <trkpt lat="47.61654" lon="-2.98549">
        <ele>13.19999980927</ele>
        <time>2021-09-23T09:03:34.669Z</time>
      </trkpt>
      <trkpt lat="47.6164" lon="-2.98624">
        <ele>13</ele>
        <time>2021-09-23T09:03:41.274Z</time>
      </trkpt>
      <trkpt lat="47.61634" lon="-2.9866">
        <ele>14.19999980927</ele>
        <time>2021-09-23T09:03:47.886Z</time>
      </trkpt>
      <trkpt lat="47.61633" lon="-2.98667">
        <ele>14.39999961853</ele>
        <time>2021-09-23T09:03:54.500Z</time>
      </trkpt>
      <trkpt lat="47.6163" lon="-2.98681">
        <ele>14.39999961853</ele>
        <time>2021-09-23T09:04:01.117Z</time>
      </trkpt>
      <trkpt lat="47.61629" lon="-2.98688">
        <ele>14.80000019073</ele>
        <time>2021-09-23T09:04:07.735Z</time>
      </trkpt>
      <trkpt lat="47.61623" lon="-2.98718">
        <ele>16</ele>
        <time>2021-09-23T09:04:14.359Z</time>
      </trkpt>
      <trkpt lat="47.61614" lon="-2.98768">
        <ele>18</ele>
        <time>2021-09-23T09:04:20.994Z</time>
      </trkpt>
      <trkpt lat="47.61611" lon="-2.9879">
        <ele>18.20000076294</ele>
        <time>2021-09-23T09:04:27.633Z</time>
      </trkpt>
      <trkpt lat="47.61608" lon="-2.98804">
        <ele>19</ele>
        <time>2021-09-23T09:04:34.275Z</time>
      </trkpt>
      <trkpt lat="47.61603" lon="-2.98832">
        <ele>19.79999923706</ele>
        <time>2021-09-23T09:04:40.923Z</time>
      </trkpt>
      <trkpt lat="47.61594" lon="-2.98881">
        <ele>19.60000038147</ele>
        <time>2021-09-23T09:04:47.581Z</time>
      </trkpt>
      <trkpt lat="47.61583" lon="-2.98929">
        <ele>17.20000076294</ele>
        <time>2021-09-23T09:04:54.249Z</time>
      </trkpt>
      <trkpt lat="47.61574" lon="-2.98973">
        <ele>15.39999961853</ele>
        <time>2021-09-23T09:05:00.927Z</time>
      </trkpt>
      <trkpt lat="47.61561" lon="-2.99034">
        <ele>12.39999961853</ele>
        <time>2021-09-23T09:05:07.618Z</time>
      </trkpt>
      <trkpt lat="47.61559" lon="-2.99046">
        <ele>11.60000038147</ele>
        <time>2021-09-23T09:05:14.311Z</time>
      </trkpt>
      <trkpt lat="47.61535" lon="-2.99101">
        <ele>8</ele>
        <time>2021-09-23T09:05:21.017Z</time>
      </trkpt>
      <trkpt lat="47.61512" lon="-2.99156">
        <ele>7.19999980927</ele>
        <time>2021-09-23T09:05:27.736Z</time>
      </trkpt>
      <trkpt lat="47.61507" lon="-2.9918">
        <ele>7.80000019073</ele>
        <time>2021-09-23T09:05:34.461Z</time>
      </trkpt>
      <trkpt lat="47.61506" lon="-2.99196">
        <ele>8.39999961853</ele>
        <time>2021-09-23T09:05:41.189Z</time>
      </trkpt>
      <trkpt lat="47.61504" lon="-2.99219">
        <ele>9.39999961853</ele>
        <time>2021-09-23T09:05:47.921Z</time>
      </trkpt>
      <trkpt lat="47.61503" lon="-2.99234">
        <ele>10</ele>
        <time>2021-09-23T09:05:54.656Z</time>
      </trkpt>
      <trkpt lat="47.61506" lon="-2.99287">
        <ele>10.80000019073</ele>
        <time>2021-09-23T09:06:01.402Z</time>
      </trkpt>
      <trkpt lat="47.6151" lon="-2.99333">
        <ele>11.19999980927</ele>
        <time>2021-09-23T09:06:08.157Z</time>
      </trkpt>
      <trkpt lat="47.6151" lon="-2.9934">
        <ele>11.39999961853</ele>
        <time>2021-09-23T09:06:14.914Z</time>
      </trkpt>
      <trkpt lat="47.61515" lon="-2.99404">
        <ele>12.19999980927</ele>
        <time>2021-09-23T09:06:21.684Z</time>
      </trkpt>
      <trkpt lat="47.61515" lon="-2.99419">
        <ele>12.19999980927</ele>
        <time>2021-09-23T09:06:28.457Z</time>
      </trkpt>
      <trkpt lat="47.61515" lon="-2.99449">
        <ele>12.60000038147</ele>
        <time>2021-09-23T09:06:35.236Z</time>
      </trkpt>
      <trkpt lat="47.61515" lon="-2.9947">
        <ele>12.60000038147</ele>
        <time>2021-09-23T09:06:42.019Z</time>
      </trkpt>
      <trkpt lat="47.61515" lon="-2.99481">
        <ele>12.80000019073</ele>
        <time>2021-09-23T09:06:48.804Z</time>
      </trkpt>
      <trkpt lat="47.61502" lon="-2.99487">
        <ele>13</ele>
        <time>2021-09-23T09:06:55.594Z</time>
      </trkpt>
      <trkpt lat="47.61498" lon="-2.99486">
        <ele>13</ele>
        <time>2021-09-23T09:07:02.385Z</time>
      </trkpt>
      <trkpt lat="47.61476" lon="-2.99478">
        <ele>13.19999980927</ele>
        <time>2021-09-23T09:07:09.182Z</time>
      </trkpt>
      <trkpt lat="47.61455" lon="-2.9947">
        <ele>14.19999980927</ele>
        <time>2021-09-23T09:07:15.986Z</time>
      </trkpt>
      <trkpt lat="47.61428" lon="-2.99462">
        <ele>15.60000038147</ele>
        <time>2021-09-23T09:07:22.798Z</time>
      </trkpt>
      <trkpt lat="47.61407" lon="-2.99455">
        <ele>16.79999923706</ele>
        <time>2021-09-23T09:07:29.616Z</time>
      </trkpt>
      <trkpt lat="47.61379" lon="-2.99452">
        <ele>18.60000038147</ele>
        <time>2021-09-23T09:07:36.443Z</time>
      </trkpt>
      <trkpt lat="47.61366" lon="-2.99464">
        <ele>18.39999961853</ele>
        <time>2021-09-23T09:07:43.275Z</time>
      </trkpt>
      <trkpt lat="47.61346" lon="-2.99493">
        <ele>18.60000038147</ele>
        <time>2021-09-23T09:07:50.115Z</time>
      </trkpt>
      <trkpt lat="47.61322" lon="-2.99532">
        <ele>18.20000076294</ele>
        <time>2021-09-23T09:07:56.966Z</time>
      </trkpt>
      <trkpt lat="47.61293" lon="-2.99576">
        <ele>17.20000076294</ele>
        <time>2021-09-23T09:08:03.829Z</time>
      </trkpt>
      <trkpt lat="47.61281" lon="-2.99606">
        <ele>14.39999961853</ele>
        <time>2021-09-23T09:08:10.699Z</time>
      </trkpt>
      <trkpt lat="47.61267" lon="-2.9964">
        <ele>13</ele>
        <time>2021-09-23T09:08:17.577Z</time>
      </trkpt>
      <trkpt lat="47.61254" lon="-2.99667">
        <ele>13</ele>
        <time>2021-09-23T09:08:24.462Z</time>
      </trkpt>
      <trkpt lat="47.61249" lon="-2.9968">
        <ele>13</ele>
        <time>2021-09-23T09:08:31.350Z</time>
      </trkpt>
      <trkpt lat="47.61243" lon="-2.99702">
        <ele>12.19999980927</ele>
        <time>2021-09-23T09:08:38.243Z</time>
      </trkpt>
      <trkpt lat="47.61239" lon="-2.99727">
        <ele>12.19999980927</ele>
        <time>2021-09-23T09:08:45.140Z</time>
      </trkpt>
      <trkpt lat="47.6124" lon="-2.99758">
        <ele>13.39999961853</ele>
        <time>2021-09-23T09:08:52.044Z</time>
      </trkpt>
      <trkpt lat="47.61246" lon="-2.99784">
        <ele>15</ele>
        <time>2021-09-23T09:08:58.953Z</time>
      </trkpt>
      <trkpt lat="47.61256" lon="-2.99802">
        <ele>16.39999961853</ele>
        <time>2021-09-23T09:09:05.867Z</time>
      </trkpt>
      <trkpt lat="47.61263" lon="-2.99816">
        <ele>17.39999961853</ele>
        <time>2021-09-23T09:09:12.785Z</time>
      </trkpt>
      <trkpt lat="47.61272" lon="-2.99832">
        <ele>18.79999923706</ele>
        <time>2021-09-23T09:09:19.707Z</time>
      </trkpt>
      <trkpt lat="47.61278" lon="-2.9984">
        <ele>19.60000038147</ele>
        <time>2021-09-23T09:09:26.631Z</time>
      </trkpt>
      <trkpt lat="47.61281" lon="-2.99843">
        <ele>19.79999923706</ele>
        <time>2021-09-23T09:09:33.556Z</time>
      </trkpt>
      <trkpt lat="47.61283" lon="-2.99848">
        <ele>20.20000076294</ele>
        <time>2021-09-23T09:09:40.482Z</time>
      </trkpt>
      <trkpt lat="47.61286" lon="-2.99851">
        <ele>20.39999961853</ele>
        <time>2021-09-23T09:09:47.409Z</time>
      </trkpt>
      <trkpt lat="47.61287" lon="-2.99855">
        <ele>20.39999961853</ele>
        <time>2021-09-23T09:09:54.337Z</time>
      </trkpt>
      <trkpt lat="47.61295" lon="-2.99869">
        <ele>21.20000076294</ele>
        <time>2021-09-23T09:10:01.269Z</time>
      </trkpt>
      <trkpt lat="47.61301" lon="-2.99875">
        <ele>22.20000076294</ele>
        <time>2021-09-23T09:10:08.203Z</time>
      </trkpt>
      <trkpt lat="47.61301" lon="-2.99877">
        <ele>22.20000076294</ele>
        <time>2021-09-23T09:10:15.138Z</time>
      </trkpt>
      <trkpt lat="47.61309" lon="-2.99901">
        <ele>22</ele>
        <time>2021-09-23T09:10:22.078Z</time>
      </trkpt>
      <trkpt lat="47.6132" lon="-2.99936">
        <ele>21.79999923706</ele>
        <time>2021-09-23T09:10:29.026Z</time>
      </trkpt>
      <trkpt lat="47.61326" lon="-2.99956">
        <ele>21.60000038147</ele>
        <time>2021-09-23T09:10:35.978Z</time>
      </trkpt>
      <trkpt lat="47.61321" lon="-2.99976">
        <ele>21.39999961853</ele>
        <time>2021-09-23T09:10:42.934Z</time>
      </trkpt>
      <trkpt lat="47.6131" lon="-2.99984">
        <ele>21</ele>
        <time>2021-09-23T09:10:49.894Z</time>
      </trkpt>
      <trkpt lat="47.61288" lon="-2.99997">
        <ele>19</ele>
        <time>2021-09-23T09:10:56.861Z</time>
      </trkpt>
      <trkpt lat="47.61272" lon="-3.00006">
        <ele>18.39999961853</ele>
        <time>2021-09-23T09:11:03.833Z</time>
      </trkpt>
      <trkpt lat="47.61254" lon="-3.00017">
        <ele>18</ele>
        <time>2021-09-23T09:11:10.811Z</time>
      </trkpt>
      <trkpt lat="47.61241" lon="-3.00011">
        <ele>18</ele>
        <time>2021-09-23T09:11:17.793Z</time>
      </trkpt>
      <trkpt lat="47.61219" lon="-3.00001">
        <ele>18</ele>
        <time>2021-09-23T09:11:24.782Z</time>
      </trkpt>
      <trkpt lat="47.61215" lon="-2.99997">
        <ele>18</ele>
        <time>2021-09-23T09:11:31.772Z</time>
      </trkpt>
      <trkpt lat="47.61212" lon="-2.99991">
        <ele>18</ele>
        <time>2021-09-23T09:11:38.764Z</time>
      </trkpt>
      <trkpt lat="47.61202" lon="-2.99971">
        <ele>16</ele>
        <time>2021-09-23T09:11:45.761Z</time>
      </trkpt>
      <trkpt lat="47.61194" lon="-2.99945">
        <ele>16.20000076294</ele>
        <time>2021-09-23T09:11:52.764Z</time>
      </trkpt>
      <trkpt lat="47.61188" lon="-2.99924">
        <ele>16.79999923706</ele>
        <time>2021-09-23T09:11:59.771Z</time>
      </trkpt>
      <trkpt lat="47.61179" lon="-2.99897">
        <ele>17.60000038147</ele>
        <time>2021-09-23T09:12:06.784Z</time>
      </trkpt>
      <trkpt lat="47.61171" lon="-2.99879">
        <ele>18.79999923706</ele>
        <time>2021-09-23T09:12:13.802Z</time>
      </trkpt>
      <trkpt lat="47.61158" lon="-2.99868">
        <ele>19.20000076294</ele>
        <time>2021-09-23T09:12:20.824Z</time>
      </trkpt>
      <trkpt lat="47.61136" lon="-2.99862">
        <ele>18.79999923706</ele>
        <time>2021-09-23T09:12:27.853Z</time>
      </trkpt>
      <trkpt lat="47.61124" lon="-2.99862">
        <ele>18.39999961853</ele>
        <time>2021-09-23T09:12:34.885Z</time>
      </trkpt>
      <trkpt lat="47.61122" lon="-2.99862">
        <ele>18.20000076294</ele>
        <time>2021-09-23T09:12:41.918Z</time>
      </trkpt>
      <trkpt lat="47.6111" lon="-2.99862">
        <ele>17.79999923706</ele>
        <time>2021-09-23T09:12:48.955Z</time>
      </trkpt>
      <trkpt lat="47.61094" lon="-2.99862">
        <ele>17.39999961853</ele>
        <time>2021-09-23T09:12:55.996Z</time>
      </trkpt>
      <trkpt lat="47.61081" lon="-2.99862">
        <ele>17.79999923706</ele>
        <time>2021-09-23T09:13:03.041Z</time>
      </trkpt>
      <trkpt lat="47.61074" lon="-2.99864">
        <ele>18.20000076294</ele>
        <time>2021-09-23T09:13:10.088Z</time>
      </trkpt>
      <trkpt lat="47.61064" lon="-2.99868">
        <ele>18.79999923706</ele>
        <time>2021-09-23T09:13:17.138Z</time>
      </trkpt>
      <trkpt lat="47.61052" lon="-2.99872">
        <ele>19.60000038147</ele>
        <time>2021-09-23T09:13:24.192Z</time>
      </trkpt>
      <trkpt lat="47.6105" lon="-2.99873">
        <ele>19.79999923706</ele>
        <time>2021-09-23T09:13:31.247Z</time>
      </trkpt>
      <trkpt lat="47.61038" lon="-2.99878">
        <ele>20.39999961853</ele>
        <time>2021-09-23T09:13:38.305Z</time>
      </trkpt>
      <trkpt lat="47.61022" lon="-2.99879">
        <ele>21.20000076294</ele>
        <time>2021-09-23T09:13:45.368Z</time>
      </trkpt>
      <trkpt lat="47.61006" lon="-2.99873">
        <ele>22</ele>
        <time>2021-09-23T09:13:52.436Z</time>
      </trkpt>
      <trkpt lat="47.61003" lon="-2.99872">
        <ele>21.79999923706</ele>
        <time>2021-09-23T09:13:59.505Z</time>
      </trkpt>
      <trkpt lat="47.61" lon="-2.9987">
        <ele>21.60000038147</ele>
        <time>2021-09-23T09:14:06.575Z</time>
      </trkpt>
      <trkpt lat="47.60991" lon="-2.9987">
        <ele>21</ele>
        <time>2021-09-23T09:14:13.648Z</time>
      </trkpt>
      <trkpt lat="47.60971" lon="-2.99873">
        <ele>19.79999923706</ele>
        <time>2021-09-23T09:14:20.727Z</time>
      </trkpt>
      <trkpt lat="47.60953" lon="-2.99876">
        <ele>19.20000076294</ele>
        <time>2021-09-23T09:14:27.811Z</time>
      </trkpt>
      <trkpt lat="47.60939" lon="-2.99863">
        <ele>18.60000038147</ele>
        <time>2021-09-23T09:14:34.900Z</time>
      </trkpt>
      <trkpt lat="47.60927" lon="-2.99841">
        <ele>17.60000038147</ele>
        <time>2021-09-23T09:14:41.995Z</time>
      </trkpt>
      <trkpt lat="47.6091" lon="-2.99815">
        <ele>16.79999923706</ele>
        <time>2021-09-23T09:14:49.097Z</time>
      </trkpt>
      <trkpt lat="47.60899" lon="-2.9981">
        <ele>16.79999923706</ele>
        <time>2021-09-23T09:14:56.202Z</time>
      </trkpt>
      <trkpt lat="47.60879" lon="-2.99801">
        <ele>17.39999961853</ele>
        <time>2021-09-23T09:15:03.314Z</time>
      </trkpt>
      <trkpt lat="47.60875" lon="-2.998">
        <ele>17.39999961853</ele>
        <time>2021-09-23T09:15:10.427Z</time>
      </trkpt>
      <trkpt lat="47.60853" lon="-2.99794">
        <ele>17.39999961853</ele>
        <time>2021-09-23T09:15:17.547Z</time>
      </trkpt>
      <trkpt lat="47.60821" lon="-2.99774">
        <ele>18.39999961853</ele>
        <time>2021-09-23T09:15:24.677Z</time>
      </trkpt>
      <trkpt lat="47.60797" lon="-2.99751">
        <ele>17</ele>
        <time>2021-09-23T09:15:31.816Z</time>
      </trkpt>
      <trkpt lat="47.60786" lon="-2.99758">
        <ele>17</ele>
        <time>2021-09-23T09:15:38.958Z</time>
      </trkpt>
      <trkpt lat="47.60783" lon="-2.99761">
        <ele>17</ele>
        <time>2021-09-23T09:15:46.101Z</time>
      </trkpt>
      <trkpt lat="47.60769" lon="-2.99775">
        <ele>17</ele>
        <time>2021-09-23T09:15:53.249Z</time>
      </trkpt>
      <trkpt lat="47.60756" lon="-2.998">
        <ele>17.20000076294</ele>
        <time>2021-09-23T09:16:00.404Z</time>
      </trkpt>
      <trkpt lat="47.60745" lon="-2.99825">
        <ele>16.60000038147</ele>
        <time>2021-09-23T09:16:07.565Z</time>
      </trkpt>
      <trkpt lat="47.60745" lon="-2.99827">
        <ele>16.39999961853</ele>
        <time>2021-09-23T09:16:14.726Z</time>
      </trkpt>
      <trkpt lat="47.60743" lon="-2.99832">
        <ele>16.20000076294</ele>
        <time>2021-09-23T09:16:21.888Z</time>
      </trkpt>
      <trkpt lat="47.60738" lon="-2.99848">
        <ele>15.39999961853</ele>
        <time>2021-09-23T09:16:29.054Z</time>
      </trkpt>
      <trkpt lat="47.60726" lon="-2.99882">
        <ele>15.19999980927</ele>
        <time>2021-09-23T09:16:36.227Z</time>
      </trkpt>
      <trkpt lat="47.60709" lon="-2.99933">
        <ele>14.80000019073</ele>
        <time>2021-09-23T09:16:43.412Z</time>
      </trkpt>
      <trkpt lat="47.60698" lon="-2.99966">
        <ele>14.39999961853</ele>
        <time>2021-09-23T09:16:50.604Z</time>
      </trkpt>
      <trkpt lat="47.60692" lon="-2.99985">
        <ele>14.60000038147</ele>
        <time>2021-09-23T09:16:57.801Z</time>
      </trkpt>
      <trkpt lat="47.60685" lon="-3.00007">
        <ele>15.19999980927</ele>
        <time>2021-09-23T09:17:05.002Z</time>
      </trkpt>
      <trkpt lat="47.6068" lon="-3.0002">
        <ele>15.19999980927</ele>
        <time>2021-09-23T09:17:12.206Z</time>
      </trkpt>
      <trkpt lat="47.60676" lon="-3.00034">
        <ele>14.60000038147</ele>
        <time>2021-09-23T09:17:19.413Z</time>
      </trkpt>
      <trkpt lat="47.60672" lon="-3.00048">
        <ele>14.39999961853</ele>
        <time>2021-09-23T09:17:26.624Z</time>
      </trkpt>
      <trkpt lat="47.60667" lon="-3.00062">
        <ele>14.60000038147</ele>
        <time>2021-09-23T09:17:33.838Z</time>
      </trkpt>
      <trkpt lat="47.60662" lon="-3.00077">
        <ele>14.80000019073</ele>
        <time>2021-09-23T09:17:41.055Z</time>
      </trkpt>
      <trkpt lat="47.6066" lon="-3.00084">
        <ele>14.80000019073</ele>
        <time>2021-09-23T09:17:48.274Z</time>
      </trkpt>
      <trkpt lat="47.60651" lon="-3.00098">
        <ele>14.60000038147</ele>
        <time>2021-09-23T09:17:55.496Z</time>
      </trkpt>
      <trkpt lat="47.60642" lon="-3.00106">
        <ele>14.39999961853</ele>
        <time>2021-09-23T09:18:02.722Z</time>
      </trkpt>
      <trkpt lat="47.60631" lon="-3.0011">
        <ele>14.80000019073</ele>
        <time>2021-09-23T09:18:09.951Z</time>
      </trkpt>
      <trkpt lat="47.60618" lon="-3.00112">
        <ele>15.39999961853</ele>
        <time>2021-09-23T09:18:17.184Z</time>
      </trkpt>
      <trkpt lat="47.60592" lon="-3.00115">
        <ele>16.39999961853</ele>
        <time>2021-09-23T09:18:24.425Z</time>
      </trkpt>
      <trkpt lat="47.6057" lon="-3.00118">
        <ele>16</ele>
        <time>2021-09-23T09:18:31.672Z</time>
      </trkpt>
      <trkpt lat="47.60562" lon="-3.0012">
        <ele>15.80000019073</ele>
        <time>2021-09-23T09:18:38.922Z</time>
      </trkpt>
      <trkpt lat="47.60548" lon="-3.00122">
        <ele>15</ele>
        <time>2021-09-23T09:18:46.176Z</time>
      </trkpt>
      <trkpt lat="47.60544" lon="-3.00122">
        <ele>14.80000019073</ele>
        <time>2021-09-23T09:18:53.431Z</time>
      </trkpt>
      <trkpt lat="47.6053" lon="-3.00124">
        <ele>14</ele>
        <time>2021-09-23T09:19:00.690Z</time>
      </trkpt>
      <trkpt lat="47.60525" lon="-3.00125">
        <ele>13.80000019073</ele>
        <time>2021-09-23T09:19:07.951Z</time>
      </trkpt>
      <trkpt lat="47.60503" lon="-3.00147">
        <ele>13.80000019073</ele>
        <time>2021-09-23T09:19:15.220Z</time>
      </trkpt>
      <trkpt lat="47.60498" lon="-3.0015">
        <ele>13.80000019073</ele>
        <time>2021-09-23T09:19:22.490Z</time>
      </trkpt>
      <trkpt lat="47.60489" lon="-3.00154">
        <ele>13.60000038147</ele>
        <time>2021-09-23T09:19:29.763Z</time>
      </trkpt>
      <trkpt lat="47.60471" lon="-3.00157">
        <ele>13.19999980927</ele>
        <time>2021-09-23T09:19:37.041Z</time>
      </trkpt>
      <trkpt lat="47.60455" lon="-3.00155">
        <ele>13</ele>
        <time>2021-09-23T09:19:44.324Z</time>
      </trkpt>
      <trkpt lat="47.60441" lon="-3.00153">
        <ele>13</ele>
        <time>2021-09-23T09:19:51.611Z</time>
      </trkpt>
      <trkpt lat="47.6042" lon="-3.0015">
        <ele>13</ele>
        <time>2021-09-23T09:19:58.905Z</time>
      </trkpt>
      <trkpt lat="47.60408" lon="-3.00148">
        <ele>12.19999980927</ele>
        <time>2021-09-23T09:20:06.202Z</time>
      </trkpt>
      <trkpt lat="47.60402" lon="-3.00151">
        <ele>11.80000019073</ele>
        <time>2021-09-23T09:20:13.501Z</time>
      </trkpt>
      <trkpt lat="47.60398" lon="-3.00159">
        <ele>11.39999961853</ele>
        <time>2021-09-23T09:20:20.802Z</time>
      </trkpt>
      <trkpt lat="47.60396" lon="-3.0017">
        <ele>11.19999980927</ele>
        <time>2021-09-23T09:20:28.105Z</time>
      </trkpt>
      <trkpt lat="47.60393" lon="-3.00187">
        <ele>10.80000019073</ele>
        <time>2021-09-23T09:20:35.412Z</time>
      </trkpt>
      <trkpt lat="47.60389" lon="-3.00213">
        <ele>10</ele>
        <time>2021-09-23T09:20:42.724Z</time>
      </trkpt>
      <trkpt lat="47.60386" lon="-3.00236">
        <ele>10.80000019073</ele>
        <time>2021-09-23T09:20:50.041Z</time>
      </trkpt>
      <trkpt lat="47.60383" lon="-3.00252">
        <ele>11</ele>
        <time>2021-09-23T09:20:57.361Z</time>
      </trkpt>
      <trkpt lat="47.60378" lon="-3.00256">
        <ele>11</ele>
        <time>2021-09-23T09:21:04.683Z</time>
      </trkpt>
      <trkpt lat="47.60375" lon="-3.00255">
        <ele>11</ele>
        <time>2021-09-23T09:21:12.006Z</time>
      </trkpt>
      <trkpt lat="47.60365" lon="-3.00252">
        <ele>10.60000038147</ele>
        <time>2021-09-23T09:21:19.332Z</time>
      </trkpt>
      <trkpt lat="47.60341" lon="-3.00244">
        <ele>10.19999980927</ele>
        <time>2021-09-23T09:21:26.665Z</time>
      </trkpt>
      <trkpt lat="47.60313" lon="-3.00236">
        <ele>10</ele>
        <time>2021-09-23T09:21:34.007Z</time>
      </trkpt>
      <trkpt lat="47.60309" lon="-3.00234">
        <ele>10</ele>
        <time>2021-09-23T09:21:41.350Z</time>
      </trkpt>
      <trkpt lat="47.60291" lon="-3.00229">
        <ele>9.19999980927</ele>
        <time>2021-09-23T09:21:48.699Z</time>
      </trkpt>
      <trkpt lat="47.6027" lon="-3.00222">
        <ele>10.19999980927</ele>
        <time>2021-09-23T09:21:56.054Z</time>
      </trkpt>
      <trkpt lat="47.60253" lon="-3.00217">
        <ele>11.60000038147</ele>
        <time>2021-09-23T09:22:03.414Z</time>
      </trkpt>
      <trkpt lat="47.60231" lon="-3.0021">
        <ele>13.39999961853</ele>
        <time>2021-09-23T09:22:10.781Z</time>
      </trkpt>
      <trkpt lat="47.60212" lon="-3.00204">
        <ele>13.80000019073</ele>
        <time>2021-09-23T09:22:18.154Z</time>
      </trkpt>
      <trkpt lat="47.60188" lon="-3.00197">
        <ele>13.60000038147</ele>
        <time>2021-09-23T09:22:25.534Z</time>
      </trkpt>
      <trkpt lat="47.60186" lon="-3.00196">
        <ele>13.39999961853</ele>
        <time>2021-09-23T09:22:32.915Z</time>
      </trkpt>
      <trkpt lat="47.60179" lon="-3.00194">
        <ele>13.19999980927</ele>
        <time>2021-09-23T09:22:40.298Z</time>
      </trkpt>
      <trkpt lat="47.60157" lon="-3.00187">
        <ele>12.80000019073</ele>
        <time>2021-09-23T09:22:47.687Z</time>
      </trkpt>
      <trkpt lat="47.60134" lon="-3.00172">
        <ele>13.60000038147</ele>
        <time>2021-09-23T09:22:55.084Z</time>
      </trkpt>
      <trkpt lat="47.60122" lon="-3.00164">
        <ele>14.39999961853</ele>
        <time>2021-09-23T09:23:02.485Z</time>
      </trkpt>
      <trkpt lat="47.60105" lon="-3.00151">
        <ele>15.39999961853</ele>
        <time>2021-09-23T09:23:09.892Z</time>
      </trkpt>
      <trkpt lat="47.60096" lon="-3.00145">
        <ele>16</ele>
        <time>2021-09-23T09:23:17.302Z</time>
      </trkpt>
      <trkpt lat="47.60082" lon="-3.00135">
        <ele>16.79999923706</ele>
        <time>2021-09-23T09:23:24.716Z</time>
      </trkpt>
      <trkpt lat="47.60072" lon="-3.00129">
        <ele>17.39999961853</ele>
        <time>2021-09-23T09:23:32.133Z</time>
      </trkpt>
      <trkpt lat="47.60068" lon="-3.00126">
        <ele>17.60000038147</ele>
        <time>2021-09-23T09:23:39.552Z</time>
      </trkpt>
      <trkpt lat="47.60064" lon="-3.00123">
        <ele>18</ele>
        <time>2021-09-23T09:23:46.972Z</time>
      </trkpt>
      <trkpt lat="47.60061" lon="-3.0012">
        <ele>18.20000076294</ele>
        <time>2021-09-23T09:23:54.393Z</time>
      </trkpt>
      <trkpt lat="47.60052" lon="-3.00115">
        <ele>18.60000038147</ele>
        <time>2021-09-23T09:24:01.817Z</time>
      </trkpt>
      <trkpt lat="47.60041" lon="-3.0011">
        <ele>18.39999961853</ele>
        <time>2021-09-23T09:24:09.245Z</time>
      </trkpt>
      <trkpt lat="47.60036" lon="-3.00109">
        <ele>18.39999961853</ele>
        <time>2021-09-23T09:24:16.674Z</time>
      </trkpt>
      <trkpt lat="47.6001" lon="-3.00117">
        <ele>16.79999923706</ele>
        <time>2021-09-23T09:24:24.111Z</time>
      </trkpt>
      <trkpt lat="47.59993" lon="-3.00123">
        <ele>16</ele>
        <time>2021-09-23T09:24:31.553Z</time>
      </trkpt>
      <trkpt lat="47.59967" lon="-3.00128">
        <ele>16</ele>
        <time>2021-09-23T09:24:39.003Z</time>
      </trkpt>
      <trkpt lat="47.59949" lon="-3.00124">
        <ele>16</ele>
        <time>2021-09-23T09:24:46.458Z</time>
      </trkpt>
      <trkpt lat="47.5993" lon="-3.00117">
        <ele>16.39999961853</ele>
        <time>2021-09-23T09:24:53.919Z</time>
      </trkpt>
      <trkpt lat="47.59906" lon="-3.00111">
        <ele>16.39999961853</ele>
        <time>2021-09-23T09:25:01.387Z</time>
      </trkpt>
      <trkpt lat="47.5988" lon="-3.00105">
        <ele>17.20000076294</ele>
        <time>2021-09-23T09:25:08.863Z</time>
      </trkpt>
      <trkpt lat="47.59855" lon="-3.001">
        <ele>17.39999961853</ele>
        <time>2021-09-23T09:25:16.347Z</time>
      </trkpt>
      <trkpt lat="47.59837" lon="-3.00105">
        <ele>18</ele>
        <time>2021-09-23T09:25:23.836Z</time>
      </trkpt>
      <trkpt lat="47.59812" lon="-3.00119">
        <ele>18</ele>
        <time>2021-09-23T09:25:31.333Z</time>
      </trkpt>
      <trkpt lat="47.5979" lon="-3.00131">
        <ele>18</ele>
        <time>2021-09-23T09:25:38.837Z</time>
      </trkpt>
      <trkpt lat="47.59773" lon="-3.00155">
        <ele>18</ele>
        <time>2021-09-23T09:25:46.348Z</time>
      </trkpt>
      <trkpt lat="47.59765" lon="-3.0018">
        <ele>18.39999961853</ele>
        <time>2021-09-23T09:25:53.865Z</time>
      </trkpt>
      <trkpt lat="47.59761" lon="-3.00203">
        <ele>18.20000076294</ele>
        <time>2021-09-23T09:26:01.387Z</time>
      </trkpt>
      <trkpt lat="47.59759" lon="-3.00216">
        <ele>18</ele>
        <time>2021-09-23T09:26:08.911Z</time>
      </trkpt>
      <trkpt lat="47.59751" lon="-3.00259">
        <ele>16.20000076294</ele>
        <time>2021-09-23T09:26:16.444Z</time>
      </trkpt>
      <trkpt lat="47.5975" lon="-3.00267">
        <ele>15.80000019073</ele>
        <time>2021-09-23T09:26:23.979Z</time>
      </trkpt>
      <trkpt lat="47.59744" lon="-3.00325">
        <ele>12.39999961853</ele>
        <time>2021-09-23T09:26:31.526Z</time>
      </trkpt>
      <trkpt lat="47.59741" lon="-3.00382">
        <ele>13.80000019073</ele>
        <time>2021-09-23T09:26:39.084Z</time>
      </trkpt>
      <trkpt lat="47.59741" lon="-3.0039">
        <ele>14.19999980927</ele>
        <time>2021-09-23T09:26:46.644Z</time>
      </trkpt>
      <trkpt lat="47.59738" lon="-3.00473">
        <ele>14.39999961853</ele>
        <time>2021-09-23T09:26:54.221Z</time>
      </trkpt>
      <trkpt lat="47.59738" lon="-3.00484">
        <ele>14</ele>
        <time>2021-09-23T09:27:01.800Z</time>
      </trkpt>
      <trkpt lat="47.59737" lon="-3.00532">
        <ele>14</ele>
        <time>2021-09-23T09:27:09.388Z</time>
      </trkpt>
      <trkpt lat="47.59738" lon="-3.00563">
        <ele>15.80000019073</ele>
        <time>2021-09-23T09:27:16.983Z</time>
      </trkpt>
      <trkpt lat="47.5974" lon="-3.00567">
        <ele>16</ele>
        <time>2021-09-23T09:27:24.579Z</time>
      </trkpt>
      <trkpt lat="47.59742" lon="-3.00588">
        <ele>17</ele>
        <time>2021-09-23T09:27:32.179Z</time>
      </trkpt>
      <trkpt lat="47.59744" lon="-3.00611">
        <ele>18.39999961853</ele>
        <time>2021-09-23T09:27:39.784Z</time>
      </trkpt>
      <trkpt lat="47.59744" lon="-3.0063">
        <ele>19.20000076294</ele>
        <time>2021-09-23T09:27:47.392Z</time>
      </trkpt>
      <trkpt lat="47.59739" lon="-3.00649">
        <ele>19.79999923706</ele>
        <time>2021-09-23T09:27:55.005Z</time>
      </trkpt>
      <trkpt lat="47.59736" lon="-3.00663">
        <ele>20</ele>
        <time>2021-09-23T09:28:02.621Z</time>
      </trkpt>
      <trkpt lat="47.5973" lon="-3.00677">
        <ele>20</ele>
        <time>2021-09-23T09:28:10.240Z</time>
      </trkpt>
      <trkpt lat="47.59723" lon="-3.00697">
        <ele>20</ele>
        <time>2021-09-23T09:28:17.864Z</time>
      </trkpt>
      <trkpt lat="47.59713" lon="-3.00736">
        <ele>20</ele>
        <time>2021-09-23T09:28:25.496Z</time>
      </trkpt>
      <trkpt lat="47.59708" lon="-3.00747">
        <ele>19.60000038147</ele>
        <time>2021-09-23T09:28:33.131Z</time>
      </trkpt>
      <trkpt lat="47.59701" lon="-3.00774">
        <ele>18.60000038147</ele>
        <time>2021-09-23T09:28:40.771Z</time>
      </trkpt>
      <trkpt lat="47.59694" lon="-3.00788">
        <ele>18</ele>
        <time>2021-09-23T09:28:48.415Z</time>
      </trkpt>
      <trkpt lat="47.5969" lon="-3.008">
        <ele>17.20000076294</ele>
        <time>2021-09-23T09:28:56.062Z</time>
      </trkpt>
      <trkpt lat="47.59677" lon="-3.00838">
        <ele>14</ele>
        <time>2021-09-23T09:29:03.717Z</time>
      </trkpt>
      <trkpt lat="47.59671" lon="-3.00849">
        <ele>13</ele>
        <time>2021-09-23T09:29:11.375Z</time>
      </trkpt>
      <trkpt lat="47.59668" lon="-3.0085">
        <ele>12.80000019073</ele>
        <time>2021-09-23T09:29:19.034Z</time>
      </trkpt>
      <trkpt lat="47.59651" lon="-3.00851">
        <ele>12.80000019073</ele>
        <time>2021-09-23T09:29:26.698Z</time>
      </trkpt>
      <trkpt lat="47.59633" lon="-3.0085">
        <ele>12.60000038147</ele>
        <time>2021-09-23T09:29:34.367Z</time>
      </trkpt>
      <trkpt lat="47.59629" lon="-3.0085">
        <ele>12.39999961853</ele>
        <time>2021-09-23T09:29:42.038Z</time>
      </trkpt>
      <trkpt lat="47.59609" lon="-3.00851">
        <ele>11.80000019073</ele>
        <time>2021-09-23T09:29:49.715Z</time>
      </trkpt>
      <trkpt lat="47.59596" lon="-3.00864">
        <ele>11.39999961853</ele>
        <time>2021-09-23T09:29:57.396Z</time>
      </trkpt>
      <trkpt lat="47.59583" lon="-3.00886">
        <ele>11.39999961853</ele>
        <time>2021-09-23T09:30:05.083Z</time>
      </trkpt>
      <trkpt lat="47.59571" lon="-3.00922">
        <ele>12.60000038147</ele>
        <time>2021-09-23T09:30:12.778Z</time>
      </trkpt>
      <trkpt lat="47.59564" lon="-3.00953">
        <ele>13.80000019073</ele>
        <time>2021-09-23T09:30:20.480Z</time>
      </trkpt>
      <trkpt lat="47.59562" lon="-3.00972">
        <ele>15.19999980927</ele>
        <time>2021-09-23T09:30:28.186Z</time>
      </trkpt>
      <trkpt lat="47.59561" lon="-3.00984">
        <ele>16</ele>
        <time>2021-09-23T09:30:35.894Z</time>
      </trkpt>
      <trkpt lat="47.59564" lon="-3.00984">
        <ele>16</ele>
        <time>2021-09-23T09:30:43.603Z</time>
      </trkpt>
      <trkpt lat="47.59578" lon="-3.01">
        <ele>16.39999961853</ele>
        <time>2021-09-23T09:30:51.317Z</time>
      </trkpt>
      <trkpt lat="47.59591" lon="-3.01018">
        <ele>16.79999923706</ele>
        <time>2021-09-23T09:30:59.036Z</time>
      </trkpt>
      <trkpt lat="47.59605" lon="-3.01035">
        <ele>16.39999961853</ele>
        <time>2021-09-23T09:31:06.761Z</time>
      </trkpt>
      <trkpt lat="47.59625" lon="-3.01062">
        <ele>15.39999961853</ele>
        <time>2021-09-23T09:31:14.494Z</time>
      </trkpt>
      <trkpt lat="47.59639" lon="-3.01077">
        <ele>15</ele>
        <time>2021-09-23T09:31:22.232Z</time>
      </trkpt>
      <trkpt lat="47.59648" lon="-3.01086">
        <ele>14.80000019073</ele>
        <time>2021-09-23T09:31:29.973Z</time>
      </trkpt>
      <trkpt lat="47.59682" lon="-3.01107">
        <ele>14.60000038147</ele>
        <time>2021-09-23T09:31:37.725Z</time>
      </trkpt>
      <trkpt lat="47.59688" lon="-3.01109">
        <ele>14.19999980927</ele>
        <time>2021-09-23T09:31:45.479Z</time>
      </trkpt>
      <trkpt lat="47.59705" lon="-3.01118">
        <ele>13.19999980927</ele>
        <time>2021-09-23T09:31:53.239Z</time>
      </trkpt>
      <trkpt lat="47.59712" lon="-3.01121">
        <ele>13.60000038147</ele>
        <time>2021-09-23T09:32:01.001Z</time>
      </trkpt>
      <trkpt lat="47.5974" lon="-3.01133">
        <ele>13.19999980927</ele>
        <time>2021-09-23T09:32:08.771Z</time>
      </trkpt>
      <trkpt lat="47.59752" lon="-3.01138">
        <ele>12.60000038147</ele>
        <time>2021-09-23T09:32:16.545Z</time>
      </trkpt>
      <trkpt lat="47.59754" lon="-3.01136">
        <ele>12.60000038147</ele>
        <time>2021-09-23T09:32:24.320Z</time>
      </trkpt>
      <trkpt lat="47.59756" lon="-3.01137">
        <ele>12.60000038147</ele>
        <time>2021-09-23T09:32:32.096Z</time>
      </trkpt>
      <trkpt lat="47.59765" lon="-3.0114">
        <ele>12.39999961853</ele>
        <time>2021-09-23T09:32:39.874Z</time>
      </trkpt>
      <trkpt lat="47.59793" lon="-3.01152">
        <ele>11</ele>
        <time>2021-09-23T09:32:47.661Z</time>
      </trkpt>
      <trkpt lat="47.59805" lon="-3.01159">
        <ele>11</ele>
        <time>2021-09-23T09:32:55.452Z</time>
      </trkpt>
      <trkpt lat="47.59817" lon="-3.01166">
        <ele>11.39999961853</ele>
        <time>2021-09-23T09:33:03.247Z</time>
      </trkpt>
      <trkpt lat="47.59828" lon="-3.01175">
        <ele>11.19999980927</ele>
        <time>2021-09-23T09:33:11.045Z</time>
      </trkpt>
      <trkpt lat="47.5984" lon="-3.01182">
        <ele>11</ele>
        <time>2021-09-23T09:33:18.847Z</time>
      </trkpt>
      <trkpt lat="47.59864" lon="-3.01195">
        <ele>10.39999961853</ele>
        <time>2021-09-23T09:33:26.657Z</time>
      </trkpt>
      <trkpt lat="47.59877" lon="-3.01204">
        <ele>10</ele>
        <time>2021-09-23T09:33:34.471Z</time>
      </trkpt>
      <trkpt lat="47.59904" lon="-3.01229">
        <ele>10.19999980927</ele>
        <time>2021-09-23T09:33:42.295Z</time>
      </trkpt>
      <trkpt lat="47.59917" lon="-3.01241">
        <ele>11</ele>
        <time>2021-09-23T09:33:50.123Z</time>
      </trkpt>
      <trkpt lat="47.59932" lon="-3.01264">
        <ele>11.39999961853</ele>
        <time>2021-09-23T09:33:57.958Z</time>
      </trkpt>
      <trkpt lat="47.59943" lon="-3.01289">
        <ele>11</ele>
        <time>2021-09-23T09:34:05.799Z</time>
      </trkpt>
      <trkpt lat="47.5993" lon="-3.013">
        <ele>11</ele>
        <time>2021-09-23T09:34:13.644Z</time>
      </trkpt>
      <trkpt lat="47.59906" lon="-3.0132">
        <ele>11</ele>
        <time>2021-09-23T09:34:21.497Z</time>
      </trkpt>
      <trkpt lat="47.59877" lon="-3.01345">
        <ele>10</ele>
        <time>2021-09-23T09:34:29.360Z</time>
      </trkpt>
      <trkpt lat="47.59858" lon="-3.01357">
        <ele>9.19999980927</ele>
        <time>2021-09-23T09:34:37.229Z</time>
      </trkpt>
      <trkpt lat="47.59848" lon="-3.01363">
        <ele>9</ele>
        <time>2021-09-23T09:34:45.102Z</time>
      </trkpt>
      <trkpt lat="47.59808" lon="-3.01385">
        <ele>7.59999990463</ele>
        <time>2021-09-23T09:34:52.987Z</time>
      </trkpt>
      <trkpt lat="47.59755" lon="-3.01415">
        <ele>7</ele>
        <time>2021-09-23T09:35:00.889Z</time>
      </trkpt>
      <trkpt lat="47.59716" lon="-3.01436">
        <ele>6.80000019073</ele>
        <time>2021-09-23T09:35:08.804Z</time>
      </trkpt>
      <trkpt lat="47.59673" lon="-3.01461">
        <ele>5.80000019073</ele>
        <time>2021-09-23T09:35:16.733Z</time>
      </trkpt>
      <trkpt lat="47.59621" lon="-3.01488">
        <ele>4.59999990463</ele>
        <time>2021-09-23T09:35:24.678Z</time>
      </trkpt>
      <trkpt lat="47.59615" lon="-3.01491">
        <ele>4.80000019073</ele>
        <time>2021-09-23T09:35:32.625Z</time>
      </trkpt>
      <trkpt lat="47.59576" lon="-3.0151">
        <ele>4.59999990463</ele>
        <time>2021-09-23T09:35:40.584Z</time>
      </trkpt>
      <trkpt lat="47.5954" lon="-3.01527">
        <ele>4.80000019073</ele>
        <time>2021-09-23T09:35:48.554Z</time>
      </trkpt>
      <trkpt lat="47.59535" lon="-3.01527">
        <ele>5</ele>
        <time>2021-09-23T09:35:56.526Z</time>
      </trkpt>
      <trkpt lat="47.59514" lon="-3.01526">
        <ele>5.19999980927</ele>
        <time>2021-09-23T09:36:04.504Z</time>
      </trkpt>
      <trkpt lat="47.59503" lon="-3.01523">
        <ele>5.40000009537</ele>
        <time>2021-09-23T09:36:12.485Z</time>
      </trkpt>
      <trkpt lat="47.59493" lon="-3.0152">
        <ele>5.80000019073</ele>
        <time>2021-09-23T09:36:20.469Z</time>
      </trkpt>
      <trkpt lat="47.59472" lon="-3.01512">
        <ele>7</ele>
        <time>2021-09-23T09:36:28.460Z</time>
      </trkpt>
      <trkpt lat="47.59438" lon="-3.01499">
        <ele>8</ele>
        <time>2021-09-23T09:36:36.461Z</time>
      </trkpt>
      <trkpt lat="47.59434" lon="-3.01498">
        <ele>8.19999980927</ele>
        <time>2021-09-23T09:36:44.464Z</time>
      </trkpt>
      <trkpt lat="47.594" lon="-3.01493">
        <ele>9.19999980927</ele>
        <time>2021-09-23T09:36:52.477Z</time>
      </trkpt>
      <trkpt lat="47.59381" lon="-3.015">
        <ele>9.80000019073</ele>
        <time>2021-09-23T09:37:00.496Z</time>
      </trkpt>
      <trkpt lat="47.59365" lon="-3.01506">
        <ele>10.19999980927</ele>
        <time>2021-09-23T09:37:08.520Z</time>
      </trkpt>
      <trkpt lat="47.59331" lon="-3.01527">
        <ele>11.19999980927</ele>
        <time>2021-09-23T09:37:16.555Z</time>
      </trkpt>
      <trkpt lat="47.59295" lon="-3.01556">
        <ele>9.39999961853</ele>
        <time>2021-09-23T09:37:24.602Z</time>
      </trkpt>
      <trkpt lat="47.59265" lon="-3.01581">
        <ele>7.40000009537</ele>
        <time>2021-09-23T09:37:32.659Z</time>
      </trkpt>
      <trkpt lat="47.5924" lon="-3.0159">
        <ele>6.80000019073</ele>
        <time>2021-09-23T09:37:40.724Z</time>
      </trkpt>
      <trkpt lat="47.59226" lon="-3.01591">
        <ele>6.80000019073</ele>
        <time>2021-09-23T09:37:48.793Z</time>
      </trkpt>
      <trkpt lat="47.5922" lon="-3.01592">
        <ele>6.80000019073</ele>
        <time>2021-09-23T09:37:56.864Z</time>
      </trkpt>
      <trkpt lat="47.592" lon="-3.01593">
        <ele>7.40000009537</ele>
        <time>2021-09-23T09:38:04.941Z</time>
      </trkpt>
      <trkpt lat="47.59156" lon="-3.01591">
        <ele>6.59999990463</ele>
        <time>2021-09-23T09:38:13.031Z</time>
      </trkpt>
      <trkpt lat="47.59119" lon="-3.01589">
        <ele>6.59999990463</ele>
        <time>2021-09-23T09:38:21.132Z</time>
      </trkpt>
      <trkpt lat="47.5911" lon="-3.01588">
        <ele>7</ele>
        <time>2021-09-23T09:38:29.236Z</time>
      </trkpt>
      <trkpt lat="47.59101" lon="-3.0159">
        <ele>6.80000019073</ele>
        <time>2021-09-23T09:38:37.342Z</time>
      </trkpt>
      <trkpt lat="47.59097" lon="-3.01592">
        <ele>6.80000019073</ele>
        <time>2021-09-23T09:38:45.450Z</time>
      </trkpt>
      <trkpt lat="47.59083" lon="-3.01598">
        <ele>6.19999980927</ele>
        <time>2021-09-23T09:38:53.562Z</time>
      </trkpt>
      <trkpt lat="47.59074" lon="-3.01602">
        <ele>6.40000009537</ele>
        <time>2021-09-23T09:39:01.677Z</time>
      </trkpt>
      <trkpt lat="47.59069" lon="-3.01604">
        <ele>6.59999990463</ele>
        <time>2021-09-23T09:39:09.793Z</time>
      </trkpt>
      <trkpt lat="47.59036" lon="-3.01619">
        <ele>8.19999980927</ele>
        <time>2021-09-23T09:39:17.920Z</time>
      </trkpt>
      <trkpt lat="47.59002" lon="-3.01633">
        <ele>7.19999980927</ele>
        <time>2021-09-23T09:39:26.057Z</time>
      </trkpt>
      <trkpt lat="47.58959" lon="-3.0164">
        <ele>6.40000009537</ele>
        <time>2021-09-23T09:39:34.207Z</time>
      </trkpt>
      <trkpt lat="47.58914" lon="-3.01635">
        <ele>7.19999980927</ele>
        <time>2021-09-23T09:39:42.370Z</time>
      </trkpt>
      <trkpt lat="47.58902" lon="-3.01633">
        <ele>6.80000019073</ele>
        <time>2021-09-23T09:39:50.537Z</time>
      </trkpt>
      <trkpt lat="47.5889" lon="-3.01631">
        <ele>6.59999990463</ele>
        <time>2021-09-23T09:39:58.708Z</time>
      </trkpt>
      <trkpt lat="47.58883" lon="-3.01632">
        <ele>6.80000019073</ele>
        <time>2021-09-23T09:40:06.881Z</time>
      </trkpt>
      <trkpt lat="47.58875" lon="-3.01636">
        <ele>6.59999990463</ele>
        <time>2021-09-23T09:40:15.056Z</time>
      </trkpt>
      <trkpt lat="47.58871" lon="-3.01638">
        <ele>6.59999990463</ele>
        <time>2021-09-23T09:40:23.232Z</time>
      </trkpt>
      <trkpt lat="47.58852" lon="-3.01659">
        <ele>7</ele>
        <time>2021-09-23T09:40:31.415Z</time>
      </trkpt>
      <trkpt lat="47.5885" lon="-3.01682">
        <ele>7.40000009537</ele>
        <time>2021-09-23T09:40:39.603Z</time>
      </trkpt>
      <trkpt lat="47.5885" lon="-3.01688">
        <ele>8</ele>
        <time>2021-09-23T09:40:47.792Z</time>
      </trkpt>
      <trkpt lat="47.5885" lon="-3.017">
        <ele>8.60000038147</ele>
        <time>2021-09-23T09:40:55.984Z</time>
      </trkpt>
      <trkpt lat="47.58854" lon="-3.01715">
        <ele>8.60000038147</ele>
        <time>2021-09-23T09:41:04.179Z</time>
      </trkpt>
      <trkpt lat="47.58865" lon="-3.01756">
        <ele>8.39999961853</ele>
        <time>2021-09-23T09:41:12.383Z</time>
      </trkpt>
      <trkpt lat="47.58879" lon="-3.01806">
        <ele>6.40000009537</ele>
        <time>2021-09-23T09:41:20.598Z</time>
      </trkpt>
      <trkpt lat="47.58896" lon="-3.01858">
        <ele>5.80000019073</ele>
        <time>2021-09-23T09:41:28.824Z</time>
      </trkpt>
      <trkpt lat="47.58918" lon="-3.01902">
        <ele>6</ele>
        <time>2021-09-23T09:41:37.061Z</time>
      </trkpt>
      <trkpt lat="47.58932" lon="-3.01928">
        <ele>6.40000009537</ele>
        <time>2021-09-23T09:41:45.305Z</time>
      </trkpt>
      <trkpt lat="47.58947" lon="-3.0195">
        <ele>8.39999961853</ele>
        <time>2021-09-23T09:41:53.555Z</time>
      </trkpt>
      <trkpt lat="47.58963" lon="-3.01973">
        <ele>9.80000019073</ele>
        <time>2021-09-23T09:42:01.812Z</time>
      </trkpt>
      <trkpt lat="47.58983" lon="-3.02002">
        <ele>13.80000019073</ele>
        <time>2021-09-23T09:42:10.078Z</time>
      </trkpt>
      <trkpt lat="47.59003" lon="-3.02032">
        <ele>17.60000038147</ele>
        <time>2021-09-23T09:42:18.352Z</time>
      </trkpt>
      <trkpt lat="47.59016" lon="-3.02051">
        <ele>18.79999923706</ele>
        <time>2021-09-23T09:42:26.631Z</time>
      </trkpt>
      <trkpt lat="47.59038" lon="-3.02082">
        <ele>20</ele>
        <time>2021-09-23T09:42:34.919Z</time>
      </trkpt>
      <trkpt lat="47.59052" lon="-3.02103">
        <ele>19.39999961853</ele>
        <time>2021-09-23T09:42:43.213Z</time>
      </trkpt>
      <trkpt lat="47.59057" lon="-3.02111">
        <ele>19</ele>
        <time>2021-09-23T09:42:51.510Z</time>
      </trkpt>
      <trkpt lat="47.59085" lon="-3.02152">
        <ele>16</ele>
        <time>2021-09-23T09:42:59.818Z</time>
      </trkpt>
      <trkpt lat="47.59111" lon="-3.02192">
        <ele>12.80000019073</ele>
        <time>2021-09-23T09:43:08.138Z</time>
      </trkpt>
      <trkpt lat="47.5914" lon="-3.02234">
        <ele>6.19999980927</ele>
        <time>2021-09-23T09:43:16.470Z</time>
      </trkpt>
      <trkpt lat="47.59167" lon="-3.02274">
        <time>2021-09-23T09:43:24.813Z</time>
      </trkpt>
      <trkpt lat="47.59203" lon="-3.02328">
        <time>2021-09-23T09:43:33.171Z</time>
      </trkpt>
      <trkpt lat="47.59237" lon="-3.02378">
        <ele>3.5</ele>
        <time>2021-09-23T09:43:41.543Z</time>
      </trkpt>
      <trkpt lat="47.59274" lon="-3.02436">
        <ele>8.19999980927</ele>
        <time>2021-09-23T09:43:49.932Z</time>
      </trkpt>
      <trkpt lat="47.59302" lon="-3.02473">
        <ele>10</ele>
        <time>2021-09-23T09:43:58.332Z</time>
      </trkpt>
      <trkpt lat="47.59306" lon="-3.02482">
        <ele>10</ele>
        <time>2021-09-23T09:44:06.734Z</time>
      </trkpt>
      <trkpt lat="47.5931" lon="-3.0249">
        <ele>10</ele>
        <time>2021-09-23T09:44:15.138Z</time>
      </trkpt>
      <trkpt lat="47.59318" lon="-3.02506">
        <ele>9.60000038147</ele>
        <time>2021-09-23T09:44:23.546Z</time>
      </trkpt>
      <trkpt lat="47.59321" lon="-3.02513">
        <ele>10</ele>
        <time>2021-09-23T09:44:31.956Z</time>
      </trkpt>
      <trkpt lat="47.59329" lon="-3.02551">
        <ele>10.80000019073</ele>
        <time>2021-09-23T09:44:40.374Z</time>
      </trkpt>
      <trkpt lat="47.59336" lon="-3.02583">
        <ele>13</ele>
        <time>2021-09-23T09:44:48.799Z</time>
      </trkpt>
      <trkpt lat="47.59344" lon="-3.0261">
        <ele>14.80000019073</ele>
        <time>2021-09-23T09:44:57.230Z</time>
      </trkpt>
      <trkpt lat="47.59346" lon="-3.02616">
        <ele>15</ele>
        <time>2021-09-23T09:45:05.662Z</time>
      </trkpt>
      <trkpt lat="47.59352" lon="-3.02638">
        <ele>15.60000038147</ele>
        <time>2021-09-23T09:45:14.099Z</time>
      </trkpt>
      <trkpt lat="47.59363" lon="-3.02667">
        <ele>15.60000038147</ele>
        <time>2021-09-23T09:45:22.542Z</time>
      </trkpt>
      <trkpt lat="47.59369" lon="-3.02676">
        <ele>15</ele>
        <time>2021-09-23T09:45:30.988Z</time>
      </trkpt>
      <trkpt lat="47.59375" lon="-3.02685">
        <ele>14.39999961853</ele>
        <time>2021-09-23T09:45:39.436Z</time>
      </trkpt>
      <trkpt lat="47.59378" lon="-3.0269">
        <ele>14.19999980927</ele>
        <time>2021-09-23T09:45:47.886Z</time>
      </trkpt>
      <trkpt lat="47.59394" lon="-3.02715">
        <ele>13.19999980927</ele>
        <time>2021-09-23T09:45:56.343Z</time>
      </trkpt>
      <trkpt lat="47.59397" lon="-3.0272">
        <ele>13.19999980927</ele>
        <time>2021-09-23T09:46:04.801Z</time>
      </trkpt>
      <trkpt lat="47.594" lon="-3.02732">
        <ele>13.60000038147</ele>
        <time>2021-09-23T09:46:13.262Z</time>
      </trkpt>
      <trkpt lat="47.59402" lon="-3.02739">
        <ele>13.80000019073</ele>
        <time>2021-09-23T09:46:21.724Z</time>
      </trkpt>
      <trkpt lat="47.59405" lon="-3.02777">
        <ele>14.60000038147</ele>
        <time>2021-09-23T09:46:30.194Z</time>
      </trkpt>
      <trkpt lat="47.59407" lon="-3.02812">
        <ele>15</ele>
        <time>2021-09-23T09:46:38.671Z</time>
      </trkpt>
      <trkpt lat="47.59412" lon="-3.02851">
        <ele>14.80000019073</ele>
        <time>2021-09-23T09:46:47.156Z</time>
      </trkpt>
      <trkpt lat="47.59416" lon="-3.02863">
        <ele>15.19999980927</ele>
        <time>2021-09-23T09:46:55.644Z</time>
      </trkpt>
      <trkpt lat="47.59423" lon="-3.02884">
        <ele>16.60000038147</ele>
        <time>2021-09-23T09:47:04.136Z</time>
      </trkpt>
      <trkpt lat="47.59423" lon="-3.02911">
        <ele>17.60000038147</ele>
        <time>2021-09-23T09:47:12.634Z</time>
      </trkpt>
      <trkpt lat="47.59422" lon="-3.02924">
        <ele>18</ele>
        <time>2021-09-23T09:47:21.134Z</time>
      </trkpt>
      <trkpt lat="47.59418" lon="-3.02943">
        <ele>18.39999961853</ele>
        <time>2021-09-23T09:47:29.639Z</time>
      </trkpt>
      <trkpt lat="47.59414" lon="-3.02962">
        <ele>18.79999923706</ele>
        <time>2021-09-23T09:47:38.148Z</time>
      </trkpt>
      <trkpt lat="47.59413" lon="-3.02969">
        <ele>18.79999923706</ele>
        <time>2021-09-23T09:47:46.658Z</time>
      </trkpt>
      <trkpt lat="47.59405" lon="-3.02988">
        <ele>19</ele>
        <time>2021-09-23T09:47:55.172Z</time>
      </trkpt>
      <trkpt lat="47.59397" lon="-3.03011">
        <ele>19.20000076294</ele>
        <time>2021-09-23T09:48:03.692Z</time>
      </trkpt>
      <trkpt lat="47.59389" lon="-3.03033">
        <ele>19.60000038147</ele>
        <time>2021-09-23T09:48:12.217Z</time>
      </trkpt>
      <trkpt lat="47.59386" lon="-3.03044">
        <ele>19.79999923706</ele>
        <time>2021-09-23T09:48:20.744Z</time>
      </trkpt>
      <trkpt lat="47.59379" lon="-3.03078">
        <ele>20</ele>
        <time>2021-09-23T09:48:29.278Z</time>
      </trkpt>
      <trkpt lat="47.5938" lon="-3.03106">
        <ele>20</ele>
        <time>2021-09-23T09:48:37.818Z</time>
      </trkpt>
      <trkpt lat="47.59389" lon="-3.03139">
        <ele>20</ele>
        <time>2021-09-23T09:48:46.365Z</time>
      </trkpt>
      <trkpt lat="47.59392" lon="-3.03162">
        <ele>20.20000076294</ele>
        <time>2021-09-23T09:48:54.917Z</time>
      </trkpt>
      <trkpt lat="47.59395" lon="-3.03193">
        <ele>20.79999923706</ele>
        <time>2021-09-23T09:49:03.475Z</time>
      </trkpt>
      <trkpt lat="47.59398" lon="-3.0323">
        <ele>20</ele>
        <time>2021-09-23T09:49:12.041Z</time>
      </trkpt>
      <trkpt lat="47.59399" lon="-3.03241">
        <ele>19.79999923706</ele>
        <time>2021-09-23T09:49:20.609Z</time>
      </trkpt>
      <trkpt lat="47.59395" lon="-3.03252">
        <ele>19.79999923706</ele>
        <time>2021-09-23T09:49:29.179Z</time>
      </trkpt>
      <trkpt lat="47.59389" lon="-3.0325">
        <ele>20</ele>
        <time>2021-09-23T09:49:37.751Z</time>
      </trkpt>
      <trkpt lat="47.59386" lon="-3.0325">
        <ele>20.20000076294</ele>
        <time>2021-09-23T09:49:46.324Z</time>
      </trkpt>
      <trkpt lat="47.5937" lon="-3.03246">
        <ele>21.20000076294</ele>
        <time>2021-09-23T09:49:54.902Z</time>
      </trkpt>
      <trkpt lat="47.59361" lon="-3.03244">
        <ele>21.79999923706</ele>
        <time>2021-09-23T09:50:03.483Z</time>
      </trkpt>
      <trkpt lat="47.59361" lon="-3.03244">
        <ele>21.79999923706</ele>
        <time>2021-09-23T09:50:12.064Z</time>
      </trkpt>
      <trkpt lat="47.59347" lon="-3.03273">
        <ele>21.60000038147</ele>
        <time>2021-09-23T09:50:20.652Z</time>
      </trkpt>
      <trkpt lat="47.59331" lon="-3.03297">
        <ele>22.20000076294</ele>
        <time>2021-09-23T09:50:29.247Z</time>
      </trkpt>
      <trkpt lat="47.59303" lon="-3.03333">
        <ele>23.60000038147</ele>
        <time>2021-09-23T09:50:37.853Z</time>
      </trkpt>
      <trkpt lat="47.59295" lon="-3.03345">
        <ele>24.39999961853</ele>
        <time>2021-09-23T09:50:46.462Z</time>
      </trkpt>
      <trkpt lat="47.59297" lon="-3.03349">
        <ele>24.20000076294</ele>
        <time>2021-09-23T09:50:55.072Z</time>
      </trkpt>
      <trkpt lat="47.5931" lon="-3.03372">
        <ele>23.79999923706</ele>
        <time>2021-09-23T09:51:03.688Z</time>
      </trkpt>
      <trkpt lat="47.59315" lon="-3.03382">
        <ele>23.20000076294</ele>
        <time>2021-09-23T09:51:12.307Z</time>
      </trkpt>
      <trkpt lat="47.59323" lon="-3.03398">
        <ele>22</ele>
        <time>2021-09-23T09:51:20.930Z</time>
      </trkpt>
      <trkpt lat="47.59335" lon="-3.03421">
        <ele>20.20000076294</ele>
        <time>2021-09-23T09:51:29.559Z</time>
      </trkpt>
      <trkpt lat="47.59337" lon="-3.03425">
        <ele>20</ele>
        <time>2021-09-23T09:51:38.189Z</time>
      </trkpt>
      <trkpt lat="47.59333" lon="-3.03432">
        <ele>20.20000076294</ele>
        <time>2021-09-23T09:51:46.820Z</time>
      </trkpt>
      <trkpt lat="47.5933" lon="-3.03436">
        <ele>20.20000076294</ele>
        <time>2021-09-23T09:51:55.453Z</time>
      </trkpt>
      <trkpt lat="47.59323" lon="-3.03444">
        <ele>20</ele>
        <time>2021-09-23T09:52:04.088Z</time>
      </trkpt>
      <trkpt lat="47.59313" lon="-3.03458">
        <ele>19.79999923706</ele>
        <time>2021-09-23T09:52:12.727Z</time>
      </trkpt>
      <trkpt lat="47.59312" lon="-3.03464">
        <ele>19.39999961853</ele>
        <time>2021-09-23T09:52:21.368Z</time>
      </trkpt>
      <trkpt lat="47.59309" lon="-3.03477">
        <ele>18.60000038147</ele>
        <time>2021-09-23T09:52:30.012Z</time>
      </trkpt>
      <trkpt lat="47.59307" lon="-3.03485">
        <ele>18.20000076294</ele>
        <time>2021-09-23T09:52:38.657Z</time>
      </trkpt>
      <trkpt lat="47.59298" lon="-3.03529">
        <ele>17.39999961853</ele>
        <time>2021-09-23T09:52:47.311Z</time>
      </trkpt>
      <trkpt lat="47.59293" lon="-3.0355">
        <ele>17</ele>
        <time>2021-09-23T09:52:55.970Z</time>
      </trkpt>
      <trkpt lat="47.59291" lon="-3.03559">
        <ele>17</ele>
        <time>2021-09-23T09:53:04.631Z</time>
      </trkpt>
      <trkpt lat="47.5929" lon="-3.03566">
        <ele>17</ele>
        <time>2021-09-23T09:53:13.293Z</time>
      </trkpt>
      <trkpt lat="47.59289" lon="-3.03567">
        <ele>17</ele>
        <time>2021-09-23T09:53:21.956Z</time>
      </trkpt>
      <trkpt lat="47.59289" lon="-3.03568">
        <ele>17</ele>
        <time>2021-09-23T09:53:30.619Z</time>
      </trkpt>
      <trkpt lat="47.59288" lon="-3.03571">
        <ele>17</ele>
        <time>2021-09-23T09:53:39.282Z</time>
      </trkpt>
      <trkpt lat="47.5928" lon="-3.0357">
        <ele>17</ele>
        <time>2021-09-23T09:53:47.948Z</time>
      </trkpt>
      <trkpt lat="47.59264" lon="-3.03566">
        <ele>16.39999961853</ele>
        <time>2021-09-23T09:53:56.619Z</time>
      </trkpt>
      <trkpt lat="47.59242" lon="-3.0356">
        <ele>16.79999923706</ele>
        <time>2021-09-23T09:54:05.296Z</time>
      </trkpt>
      <trkpt lat="47.59227" lon="-3.03556">
        <ele>18</ele>
        <time>2021-09-23T09:54:13.978Z</time>
      </trkpt>
      <trkpt lat="47.59206" lon="-3.0355">
        <ele>18.79999923706</ele>
        <time>2021-09-23T09:54:22.666Z</time>
      </trkpt>
      <trkpt lat="47.5918" lon="-3.03543">
        <ele>19</ele>
        <time>2021-09-23T09:54:31.362Z</time>
      </trkpt>
      <trkpt lat="47.59163" lon="-3.03539">
        <ele>19.39999961853</ele>
        <time>2021-09-23T09:54:40.063Z</time>
      </trkpt>
      <trkpt lat="47.59134" lon="-3.0353">
        <ele>21</ele>
        <time>2021-09-23T09:54:48.773Z</time>
      </trkpt>
      <trkpt lat="47.59103" lon="-3.03514">
        <ele>21.39999961853</ele>
        <time>2021-09-23T09:54:57.493Z</time>
      </trkpt>
      <trkpt lat="47.59083" lon="-3.03502">
        <ele>21.60000038147</ele>
        <time>2021-09-23T09:55:06.219Z</time>
      </trkpt>
      <trkpt lat="47.59074" lon="-3.03498">
        <ele>21.39999961853</ele>
        <time>2021-09-23T09:55:14.948Z</time>
      </trkpt>
      <trkpt lat="47.59073" lon="-3.03498">
        <ele>21.39999961853</ele>
        <time>2021-09-23T09:55:23.678Z</time>
      </trkpt>
      <trkpt lat="47.59068" lon="-3.03521">
        <ele>22</ele>
        <time>2021-09-23T09:55:32.413Z</time>
      </trkpt>
      <trkpt lat="47.59066" lon="-3.03538">
        <ele>22</ele>
        <time>2021-09-23T09:55:41.151Z</time>
      </trkpt>
      <trkpt lat="47.59067" lon="-3.0355">
        <ele>22.60000038147</ele>
        <time>2021-09-23T09:55:49.891Z</time>
      </trkpt>
      <trkpt lat="47.59068" lon="-3.03562">
        <ele>23</ele>
        <time>2021-09-23T09:55:58.634Z</time>
      </trkpt>
      <trkpt lat="47.59064" lon="-3.03583">
        <ele>23.60000038147</ele>
        <time>2021-09-23T09:56:07.381Z</time>
      </trkpt>
      <trkpt lat="47.5907" lon="-3.0359">
        <ele>24.20000076294</ele>
        <time>2021-09-23T09:56:16.130Z</time>
      </trkpt>
      <trkpt lat="47.59075" lon="-3.03593">
        <ele>24.39999961853</ele>
        <time>2021-09-23T09:56:24.881Z</time>
      </trkpt>
      <trkpt lat="47.59092" lon="-3.03607">
        <ele>24.60000038147</ele>
        <time>2021-09-23T09:56:33.638Z</time>
      </trkpt>
      <trkpt lat="47.59097" lon="-3.0361">
        <ele>24.20000076294</ele>
        <time>2021-09-23T09:56:42.396Z</time>
      </trkpt>
      <trkpt lat="47.59112" lon="-3.0362">
        <ele>23.79999923706</ele>
        <time>2021-09-23T09:56:51.159Z</time>
      </trkpt>
      <trkpt lat="47.59115" lon="-3.03621">
        <ele>23.79999923706</ele>
        <time>2021-09-23T09:56:59.923Z</time>
      </trkpt>
      <trkpt lat="47.59117" lon="-3.03622">
        <ele>23.60000038147</ele>
        <time>2021-09-23T09:57:08.688Z</time>
      </trkpt>
      <trkpt lat="47.59112" lon="-3.03641">
        <ele>23.60000038147</ele>
        <time>2021-09-23T09:57:17.457Z</time>
      </trkpt>
      <trkpt lat="47.59104" lon="-3.0366">
        <ele>23.20000076294</ele>
        <time>2021-09-23T09:57:26.231Z</time>
      </trkpt>
      <trkpt lat="47.59102" lon="-3.03665">
        <ele>23</ele>
        <time>2021-09-23T09:57:35.006Z</time>
      </trkpt>
      <trkpt lat="47.59095" lon="-3.03672">
        <ele>23</ele>
        <time>2021-09-23T09:57:43.783Z</time>
      </trkpt>
      <trkpt lat="47.59095" lon="-3.03678">
        <ele>22.60000038147</ele>
        <time>2021-09-23T09:57:52.561Z</time>
      </trkpt>
      <trkpt lat="47.59092" lon="-3.03702">
        <ele>22.60000038147</ele>
        <time>2021-09-23T09:58:01.344Z</time>
      </trkpt>
      <trkpt lat="47.59096" lon="-3.03722">
        <ele>22</ele>
        <time>2021-09-23T09:58:10.131Z</time>
      </trkpt>
      <trkpt lat="47.59101" lon="-3.03749">
        <ele>22.39999961853</ele>
        <time>2021-09-23T09:58:18.924Z</time>
      </trkpt>
      <trkpt lat="47.59098" lon="-3.03776">
        <ele>23.20000076294</ele>
        <time>2021-09-23T09:58:27.723Z</time>
      </trkpt>
      <trkpt lat="47.59097" lon="-3.03794">
        <ele>23.60000038147</ele>
        <time>2021-09-23T09:58:36.526Z</time>
      </trkpt>
      <trkpt lat="47.59096" lon="-3.03812">
        <ele>23.60000038147</ele>
        <time>2021-09-23T09:58:45.332Z</time>
      </trkpt>
      <trkpt lat="47.59089" lon="-3.03832">
        <ele>23.39999961853</ele>
        <time>2021-09-23T09:58:54.143Z</time>
      </trkpt>
      <trkpt lat="47.59084" lon="-3.03846">
        <ele>23</ele>
        <time>2021-09-23T09:59:02.957Z</time>
      </trkpt>
      <trkpt lat="47.59077" lon="-3.03865">
        <ele>22.60000038147</ele>
        <time>2021-09-23T09:59:11.775Z</time>
      </trkpt>
      <trkpt lat="47.59074" lon="-3.03868">
        <ele>22.60000038147</ele>
        <time>2021-09-23T09:59:20.594Z</time>
      </trkpt>
      <trkpt lat="47.59078" lon="-3.03881">
        <ele>22.79999923706</ele>
        <time>2021-09-23T09:59:29.416Z</time>
      </trkpt>
      <trkpt lat="47.59065" lon="-3.03872">
        <ele>22.20000076294</ele>
        <time>2021-09-23T09:59:38.242Z</time>
      </trkpt>
      <trkpt lat="47.59044" lon="-3.03856">
        <ele>22.20000076294</ele>
        <time>2021-09-23T09:59:47.075Z</time>
      </trkpt>
      <trkpt lat="47.59025" lon="-3.03837">
        <ele>22.20000076294</ele>
        <time>2021-09-23T09:59:55.915Z</time>
      </trkpt>
      <trkpt lat="47.59003" lon="-3.03813">
        <ele>23.39999961853</ele>
        <time>2021-09-23T10:00:04.763Z</time>
      </trkpt>
      <trkpt lat="47.58988" lon="-3.03796">
        <ele>24.79999923706</ele>
        <time>2021-09-23T10:00:13.617Z</time>
      </trkpt>
      <trkpt lat="47.58976" lon="-3.03783">
        <ele>25.60000038147</ele>
        <time>2021-09-23T10:00:22.475Z</time>
      </trkpt>
      <trkpt lat="47.58963" lon="-3.0377">
        <ele>26.39999961853</ele>
        <time>2021-09-23T10:00:31.338Z</time>
      </trkpt>
      <trkpt lat="47.58949" lon="-3.03755">
        <ele>26.39999961853</ele>
        <time>2021-09-23T10:00:40.206Z</time>
      </trkpt>
      <trkpt lat="47.58943" lon="-3.03763">
        <ele>26</ele>
        <time>2021-09-23T10:00:49.077Z</time>
      </trkpt>
      <trkpt lat="47.58888" lon="-3.03759">
        <ele>25</ele>
        <time>2021-09-23T10:00:57.964Z</time>
      </trkpt>
      <trkpt lat="47.58884" lon="-3.03759">
        <ele>25</ele>
        <time>2021-09-23T10:01:06.852Z</time>
      </trkpt>
      <trkpt lat="47.5886" lon="-3.03798">
        <ele>22.60000038147</ele>
        <time>2021-09-23T10:01:15.751Z</time>
      </trkpt>
      <trkpt lat="47.58843" lon="-3.03799">
        <ele>22.60000038147</ele>
        <time>2021-09-23T10:01:24.655Z</time>
      </trkpt>
      <trkpt lat="47.58837" lon="-3.03799">
        <ele>22.60000038147</ele>
        <time>2021-09-23T10:01:33.561Z</time>
      </trkpt>
      <trkpt lat="47.58831" lon="-3.038">
        <ele>22.79999923706</ele>
        <time>2021-09-23T10:01:42.469Z</time>
      </trkpt>
      <trkpt lat="47.58822" lon="-3.03798">
        <ele>23.39999961853</ele>
        <time>2021-09-23T10:01:51.379Z</time>
      </trkpt>
      <trkpt lat="47.58779" lon="-3.03782">
        <ele>25</ele>
        <time>2021-09-23T10:02:00.302Z</time>
      </trkpt>
      <trkpt lat="47.58756" lon="-3.03785">
        <ele>25.20000076294</ele>
        <time>2021-09-23T10:02:09.232Z</time>
      </trkpt>
      <trkpt lat="47.58739" lon="-3.03777">
        <ele>25.60000038147</ele>
        <time>2021-09-23T10:02:18.168Z</time>
      </trkpt>
      <trkpt lat="47.58718" lon="-3.03773">
        <ele>25.79999923706</ele>
        <time>2021-09-23T10:02:27.110Z</time>
      </trkpt>
      <trkpt lat="47.58707" lon="-3.0377">
        <ele>25.79999923706</ele>
        <time>2021-09-23T10:02:36.055Z</time>
      </trkpt>
      <trkpt lat="47.58704" lon="-3.0377">
        <ele>25.79999923706</ele>
        <time>2021-09-23T10:02:45.001Z</time>
      </trkpt>
      <trkpt lat="47.58699" lon="-3.03793">
        <ele>25</ele>
        <time>2021-09-23T10:02:53.952Z</time>
      </trkpt>
      <trkpt lat="47.58693" lon="-3.03824">
        <ele>23.79999923706</ele>
        <time>2021-09-23T10:03:02.909Z</time>
      </trkpt>
      <trkpt lat="47.58686" lon="-3.0383">
        <ele>23.20000076294</ele>
        <time>2021-09-23T10:03:11.869Z</time>
      </trkpt>
      <trkpt lat="47.58662" lon="-3.03831">
        <ele>22.20000076294</ele>
        <time>2021-09-23T10:03:20.836Z</time>
      </trkpt>
      <trkpt lat="47.58649" lon="-3.03832">
        <ele>21.39999961853</ele>
        <time>2021-09-23T10:03:29.807Z</time>
      </trkpt>
      <trkpt lat="47.58621" lon="-3.03829">
        <ele>20</ele>
        <time>2021-09-23T10:03:38.786Z</time>
      </trkpt>
      <trkpt lat="47.586" lon="-3.03845">
        <ele>17.20000076294</ele>
        <time>2021-09-23T10:03:47.772Z</time>
      </trkpt>
      <trkpt lat="47.58596" lon="-3.0385">
        <ele>16.79999923706</ele>
        <time>2021-09-23T10:03:56.760Z</time>
      </trkpt>
      <trkpt lat="47.58591" lon="-3.03863">
        <ele>15.80000019073</ele>
        <time>2021-09-23T10:04:05.751Z</time>
      </trkpt>
      <trkpt lat="47.58588" lon="-3.03868">
        <ele>15.39999961853</ele>
        <time>2021-09-23T10:04:14.743Z</time>
      </trkpt>
      <trkpt lat="47.58587" lon="-3.03869">
        <ele>15.39999961853</ele>
        <time>2021-09-23T10:04:23.736Z</time>
      </trkpt>
      <trkpt lat="47.58585" lon="-3.03871">
        <ele>15.19999980927</ele>
        <time>2021-09-23T10:04:32.729Z</time>
      </trkpt>
      <trkpt lat="47.58582" lon="-3.03867">
        <ele>15.39999961853</ele>
        <time>2021-09-23T10:04:41.724Z</time>
      </trkpt>
      <trkpt lat="47.58577" lon="-3.03853">
        <ele>15.80000019073</ele>
        <time>2021-09-23T10:04:50.722Z</time>
      </trkpt>
      <trkpt lat="47.5857" lon="-3.03826">
        <ele>16.60000038147</ele>
        <time>2021-09-23T10:04:59.726Z</time>
      </trkpt>
      <trkpt lat="47.58568" lon="-3.03818">
        <ele>17.20000076294</ele>
        <time>2021-09-23T10:05:08.731Z</time>
      </trkpt>
      <trkpt lat="47.58554" lon="-3.03825">
        <ele>17</ele>
        <time>2021-09-23T10:05:17.741Z</time>
      </trkpt>
      <trkpt lat="47.58551" lon="-3.03831">
        <ele>16.79999923706</ele>
        <time>2021-09-23T10:05:26.752Z</time>
      </trkpt>
      <trkpt lat="47.5854" lon="-3.03847">
        <ele>16.39999961853</ele>
        <time>2021-09-23T10:05:35.768Z</time>
      </trkpt>
      <trkpt lat="47.58536" lon="-3.03851">
        <ele>16.39999961853</ele>
        <time>2021-09-23T10:05:44.785Z</time>
      </trkpt>
      <trkpt lat="47.58527" lon="-3.03866">
        <ele>15.80000019073</ele>
        <time>2021-09-23T10:05:53.806Z</time>
      </trkpt>
      <trkpt lat="47.58519" lon="-3.03889">
        <ele>13.60000038147</ele>
        <time>2021-09-23T10:06:02.833Z</time>
      </trkpt>
      <trkpt lat="47.58516" lon="-3.03899">
        <ele>12.80000019073</ele>
        <time>2021-09-23T10:06:11.862Z</time>
      </trkpt>
      <trkpt lat="47.58513" lon="-3.03903">
        <ele>12.39999961853</ele>
        <time>2021-09-23T10:06:20.892Z</time>
      </trkpt>
      <trkpt lat="47.58496" lon="-3.03925">
        <ele>10.39999961853</ele>
        <time>2021-09-23T10:06:29.929Z</time>
      </trkpt>
      <trkpt lat="47.58491" lon="-3.03928">
        <ele>10.19999980927</ele>
        <time>2021-09-23T10:06:38.967Z</time>
      </trkpt>
      <trkpt lat="47.58485" lon="-3.0393">
        <ele>10</ele>
        <time>2021-09-23T10:06:48.007Z</time>
      </trkpt>
      <trkpt lat="47.58465" lon="-3.03937">
        <ele>9.39999961853</ele>
        <time>2021-09-23T10:06:57.053Z</time>
      </trkpt>
      <trkpt lat="47.58454" lon="-3.03941">
        <ele>9</ele>
        <time>2021-09-23T10:07:06.103Z</time>
      </trkpt>
      <trkpt lat="47.58443" lon="-3.03945">
        <ele>8.60000038147</ele>
        <time>2021-09-23T10:07:15.156Z</time>
      </trkpt>
      <trkpt lat="47.58424" lon="-3.03946">
        <ele>8.19999980927</ele>
        <time>2021-09-23T10:07:24.215Z</time>
      </trkpt>
      <trkpt lat="47.58412" lon="-3.03943">
        <ele>7.59999990463</ele>
        <time>2021-09-23T10:07:33.278Z</time>
      </trkpt>
      <trkpt lat="47.58396" lon="-3.0394">
        <ele>6.80000019073</ele>
        <time>2021-09-23T10:07:42.345Z</time>
      </trkpt>
      <trkpt lat="47.5839" lon="-3.03938">
        <ele>6.40000009537</ele>
        <time>2021-09-23T10:07:51.414Z</time>
      </trkpt>
      <trkpt lat="47.58375" lon="-3.03935">
        <ele>5.59999990463</ele>
        <time>2021-09-23T10:08:00.487Z</time>
      </trkpt>
      <trkpt lat="47.58369" lon="-3.03933">
        <ele>5.40000009537</ele>
        <time>2021-09-23T10:08:09.562Z</time>
      </trkpt>
      <trkpt lat="47.58344" lon="-3.03925">
        <ele>5</ele>
        <time>2021-09-23T10:08:18.645Z</time>
      </trkpt>
      <trkpt lat="47.58323" lon="-3.0392">
        <ele>4.40000009537</ele>
        <time>2021-09-23T10:08:27.734Z</time>
      </trkpt>
      <trkpt lat="47.58302" lon="-3.03912">
        <ele>4.19999980927</ele>
        <time>2021-09-23T10:08:36.830Z</time>
      </trkpt>
      <trkpt lat="47.58283" lon="-3.03901">
        <ele>5.40000009537</ele>
        <time>2021-09-23T10:08:45.932Z</time>
      </trkpt>
      <trkpt lat="47.58279" lon="-3.03899">
        <ele>5.19999980927</ele>
        <time>2021-09-23T10:08:55.035Z</time>
      </trkpt>
      <trkpt lat="47.58267" lon="-3.03889">
        <ele>5.19999980927</ele>
        <time>2021-09-23T10:09:04.142Z</time>
      </trkpt>
      <trkpt lat="47.58253" lon="-3.03873">
        <ele>6.59999990463</ele>
        <time>2021-09-23T10:09:13.255Z</time>
      </trkpt>
      <trkpt lat="47.58238" lon="-3.03858">
        <ele>7.40000009537</ele>
        <time>2021-09-23T10:09:22.373Z</time>
      </trkpt>
      <trkpt lat="47.58232" lon="-3.03853">
        <ele>7.40000009537</ele>
        <time>2021-09-23T10:09:31.493Z</time>
      </trkpt>
      <trkpt lat="47.58218" lon="-3.03835">
        <ele>8.19999980927</ele>
        <time>2021-09-23T10:09:40.619Z</time>
      </trkpt>
      <trkpt lat="47.58207" lon="-3.03821">
        <ele>7.80000019073</ele>
        <time>2021-09-23T10:09:49.749Z</time>
      </trkpt>
      <trkpt lat="47.58202" lon="-3.03814">
        <ele>7.40000009537</ele>
        <time>2021-09-23T10:09:58.881Z</time>
      </trkpt>
      <trkpt lat="47.58198" lon="-3.03809">
        <ele>7.40000009537</ele>
        <time>2021-09-23T10:10:08.014Z</time>
      </trkpt>
      <trkpt lat="47.58182" lon="-3.03786">
        <ele>7.19999980927</ele>
        <time>2021-09-23T10:10:17.154Z</time>
      </trkpt>
      <trkpt lat="47.58178" lon="-3.03783">
        <ele>7</ele>
        <time>2021-09-23T10:10:26.296Z</time>
      </trkpt>
      <trkpt lat="47.58167" lon="-3.0377">
        <ele>6.59999990463</ele>
        <time>2021-09-23T10:10:35.442Z</time>
      </trkpt>
      <trkpt lat="47.58165" lon="-3.03764">
        <ele>6.59999990463</ele>
        <time>2021-09-23T10:10:44.589Z</time>
      </trkpt>
      <trkpt lat="47.58158" lon="-3.03738">
        <ele>7</ele>
        <time>2021-09-23T10:10:53.742Z</time>
      </trkpt>
      <trkpt lat="47.58155" lon="-3.03728">
        <ele>6.80000019073</ele>
        <time>2021-09-23T10:11:02.897Z</time>
      </trkpt>
      <trkpt lat="47.58154" lon="-3.0372">
        <ele>6.80000019073</ele>
        <time>2021-09-23T10:11:12.053Z</time>
      </trkpt>
      <trkpt lat="47.58151" lon="-3.03696">
        <ele>7.19999980927</ele>
        <time>2021-09-23T10:11:21.214Z</time>
      </trkpt>
      <trkpt lat="47.58145" lon="-3.03661">
        <ele>5.80000019073</ele>
        <time>2021-09-23T10:11:30.383Z</time>
      </trkpt>
      <trkpt lat="47.58148" lon="-3.03642">
        <ele>6</ele>
        <time>2021-09-23T10:11:39.556Z</time>
      </trkpt>
      <trkpt lat="47.58157" lon="-3.03622">
        <ele>7.19999980927</ele>
        <time>2021-09-23T10:11:48.733Z</time>
      </trkpt>
      <trkpt lat="47.58159" lon="-3.03613">
        <ele>7</ele>
        <time>2021-09-23T10:11:57.912Z</time>
      </trkpt>
      <trkpt lat="47.5816" lon="-3.03608">
        <ele>7</ele>
        <time>2021-09-23T10:12:07.092Z</time>
      </trkpt>
      <trkpt lat="47.58166" lon="-3.03598">
        <ele>7.59999990463</ele>
        <time>2021-09-23T10:12:16.275Z</time>
      </trkpt>
      <trkpt lat="47.58164" lon="-3.03594">
        <ele>7.19999980927</ele>
        <time>2021-09-23T10:12:25.459Z</time>
      </trkpt>
      <trkpt lat="47.58172" lon="-3.03579">
        <ele>6.80000019073</ele>
        <time>2021-09-23T10:12:34.647Z</time>
      </trkpt>
      <trkpt lat="47.58183" lon="-3.03555">
        <ele>6.40000009537</ele>
        <time>2021-09-23T10:12:43.841Z</time>
      </trkpt>
      <trkpt lat="47.58191" lon="-3.03528">
        <ele>6</ele>
        <time>2021-09-23T10:12:53.041Z</time>
      </trkpt>
      <trkpt lat="47.58194" lon="-3.03496">
        <ele>5.19999980927</ele>
        <time>2021-09-23T10:13:02.247Z</time>
      </trkpt>
      <trkpt lat="47.58198" lon="-3.03457">
        <ele>6.19999980927</ele>
        <time>2021-09-23T10:13:11.461Z</time>
      </trkpt>
      <trkpt lat="47.58202" lon="-3.03442">
        <ele>7.40000009537</ele>
        <time>2021-09-23T10:13:20.678Z</time>
      </trkpt>
      <trkpt lat="47.58203" lon="-3.03436">
        <ele>8</ele>
        <time>2021-09-23T10:13:29.896Z</time>
      </trkpt>
      <trkpt lat="47.58205" lon="-3.03434">
        <ele>8.19999980927</ele>
        <time>2021-09-23T10:13:39.115Z</time>
      </trkpt>
      <trkpt lat="47.58205" lon="-3.03426">
        <ele>9.19999980927</ele>
        <time>2021-09-23T10:13:48.336Z</time>
      </trkpt>
      <trkpt lat="47.58204" lon="-3.0342">
        <ele>9.80000019073</ele>
        <time>2021-09-23T10:13:57.558Z</time>
      </trkpt>
      <trkpt lat="47.58198" lon="-3.03416">
        <ele>10.39999961853</ele>
        <time>2021-09-23T10:14:06.782Z</time>
      </trkpt>
      <trkpt lat="47.58187" lon="-3.03407">
        <ele>11.39999961853</ele>
        <time>2021-09-23T10:14:16.010Z</time>
      </trkpt>
      <trkpt lat="47.58183" lon="-3.03404">
        <ele>11.60000038147</ele>
        <time>2021-09-23T10:14:25.239Z</time>
      </trkpt>
      <trkpt lat="47.58181" lon="-3.03401">
        <ele>11.80000019073</ele>
        <time>2021-09-23T10:14:34.469Z</time>
      </trkpt>
      <trkpt lat="47.58172" lon="-3.03395">
        <ele>12.39999961853</ele>
        <time>2021-09-23T10:14:43.702Z</time>
      </trkpt>
      <trkpt lat="47.58168" lon="-3.03391">
        <ele>12.80000019073</ele>
        <time>2021-09-23T10:14:52.936Z</time>
      </trkpt>
      <trkpt lat="47.58155" lon="-3.03382">
        <ele>12.80000019073</ele>
        <time>2021-09-23T10:15:02.175Z</time>
      </trkpt>
      <trkpt lat="47.5814" lon="-3.03372">
        <ele>12.60000038147</ele>
        <time>2021-09-23T10:15:11.419Z</time>
      </trkpt>
      <trkpt lat="47.58134" lon="-3.03368">
        <ele>12.80000019073</ele>
        <time>2021-09-23T10:15:20.664Z</time>
      </trkpt>
      <trkpt lat="47.58131" lon="-3.03364">
        <ele>13.39999961853</ele>
        <time>2021-09-23T10:15:29.911Z</time>
      </trkpt>
      <trkpt lat="47.58124" lon="-3.03356">
        <ele>14</ele>
        <time>2021-09-23T10:15:39.160Z</time>
      </trkpt>
      <trkpt lat="47.58111" lon="-3.03346">
        <ele>14</ele>
        <time>2021-09-23T10:15:48.414Z</time>
      </trkpt>
      <trkpt lat="47.58108" lon="-3.03341">
        <ele>14</ele>
        <time>2021-09-23T10:15:57.669Z</time>
      </trkpt>
      <trkpt lat="47.58098" lon="-3.03331">
        <ele>13.60000038147</ele>
        <time>2021-09-23T10:16:06.928Z</time>
      </trkpt>
      <trkpt lat="47.58083" lon="-3.03321">
        <ele>12.60000038147</ele>
        <time>2021-09-23T10:16:16.192Z</time>
      </trkpt>
      <trkpt lat="47.58069" lon="-3.0331">
        <ele>11.60000038147</ele>
        <time>2021-09-23T10:16:25.460Z</time>
      </trkpt>
      <trkpt lat="47.58058" lon="-3.033">
        <ele>10.80000019073</ele>
        <time>2021-09-23T10:16:34.732Z</time>
      </trkpt>
      <trkpt lat="47.58052" lon="-3.03292">
        <ele>10.60000038147</ele>
        <time>2021-09-23T10:16:44.007Z</time>
      </trkpt>
      <trkpt lat="47.58038" lon="-3.03284">
        <ele>10</ele>
        <time>2021-09-23T10:16:53.286Z</time>
      </trkpt>
      <trkpt lat="47.58016" lon="-3.0327">
        <ele>10.19999980927</ele>
        <time>2021-09-23T10:17:02.572Z</time>
      </trkpt>
      <trkpt lat="47.58012" lon="-3.03261">
        <ele>10.39999961853</ele>
        <time>2021-09-23T10:17:11.860Z</time>
      </trkpt>
      <trkpt lat="47.5801" lon="-3.03249">
        <ele>10.80000019073</ele>
        <time>2021-09-23T10:17:21.151Z</time>
      </trkpt>
      <trkpt lat="47.58014" lon="-3.03246">
        <ele>11.19999980927</ele>
        <time>2021-09-23T10:17:30.443Z</time>
      </trkpt>
      <trkpt lat="47.58022" lon="-3.03241">
        <ele>11.60000038147</ele>
        <time>2021-09-23T10:17:39.738Z</time>
      </trkpt>
      <trkpt lat="47.58024" lon="-3.0324">
        <ele>11.60000038147</ele>
        <time>2021-09-23T10:17:49.033Z</time>
      </trkpt>
      <trkpt lat="47.58025" lon="-3.0324">
        <ele>11.80000019073</ele>
        <time>2021-09-23T10:17:58.329Z</time>
      </trkpt>
      <trkpt lat="47.58029" lon="-3.03221">
        <ele>12.60000038147</ele>
        <time>2021-09-23T10:18:07.628Z</time>
      </trkpt>
      <trkpt lat="47.58021" lon="-3.03214">
        <ele>12.60000038147</ele>
        <time>2021-09-23T10:18:16.930Z</time>
      </trkpt>
      <trkpt lat="47.58017" lon="-3.0321">
        <ele>12.39999961853</ele>
        <time>2021-09-23T10:18:26.234Z</time>
      </trkpt>
      <trkpt lat="47.57992" lon="-3.03184">
        <ele>12.60000038147</ele>
        <time>2021-09-23T10:18:35.547Z</time>
      </trkpt>
      <trkpt lat="47.57984" lon="-3.03175">
        <ele>12.60000038147</ele>
        <time>2021-09-23T10:18:44.863Z</time>
      </trkpt>
      <trkpt lat="47.57975" lon="-3.03164">
        <ele>12.60000038147</ele>
        <time>2021-09-23T10:18:54.182Z</time>
      </trkpt>
      <trkpt lat="47.57972" lon="-3.03161">
        <ele>12.60000038147</ele>
        <time>2021-09-23T10:19:03.502Z</time>
      </trkpt>
      <trkpt lat="47.57966" lon="-3.03153">
        <ele>12.80000019073</ele>
        <time>2021-09-23T10:19:12.825Z</time>
      </trkpt>
      <trkpt lat="47.57954" lon="-3.03138">
        <ele>12.60000038147</ele>
        <time>2021-09-23T10:19:22.152Z</time>
      </trkpt>
      <trkpt lat="47.57933" lon="-3.03113">
        <ele>13</ele>
        <time>2021-09-23T10:19:31.487Z</time>
      </trkpt>
      <trkpt lat="47.57913" lon="-3.03088">
        <ele>13.39999961853</ele>
        <time>2021-09-23T10:19:40.830Z</time>
      </trkpt>
      <trkpt lat="47.57904" lon="-3.03083">
        <ele>13.60000038147</ele>
        <time>2021-09-23T10:19:50.176Z</time>
      </trkpt>
      <trkpt lat="47.57896" lon="-3.03085">
        <ele>13.39999961853</ele>
        <time>2021-09-23T10:19:59.525Z</time>
      </trkpt>
      <trkpt lat="47.57891" lon="-3.03086">
        <ele>13.39999961853</ele>
        <time>2021-09-23T10:20:08.875Z</time>
      </trkpt>
      <trkpt lat="47.57872" lon="-3.0309">
        <ele>14</ele>
        <time>2021-09-23T10:20:18.231Z</time>
      </trkpt>
      <trkpt lat="47.57868" lon="-3.03091">
        <ele>14</ele>
        <time>2021-09-23T10:20:27.588Z</time>
      </trkpt>
      <trkpt lat="47.57864" lon="-3.03091">
        <ele>14</ele>
        <time>2021-09-23T10:20:36.946Z</time>
      </trkpt>
      <trkpt lat="47.57846" lon="-3.03095">
        <ele>13.39999961853</ele>
        <time>2021-09-23T10:20:46.310Z</time>
      </trkpt>
      <trkpt lat="47.57805" lon="-3.03103">
        <ele>12.80000019073</ele>
        <time>2021-09-23T10:20:55.686Z</time>
      </trkpt>
      <trkpt lat="47.57794" lon="-3.03106">
        <ele>12.19999980927</ele>
        <time>2021-09-23T10:21:05.065Z</time>
      </trkpt>
      <trkpt lat="47.57782" lon="-3.03103">
        <ele>11.80000019073</ele>
        <time>2021-09-23T10:21:14.448Z</time>
      </trkpt>
      <trkpt lat="47.57771" lon="-3.03097">
        <ele>11.80000019073</ele>
        <time>2021-09-23T10:21:23.834Z</time>
      </trkpt>
      <trkpt lat="47.57759" lon="-3.03089">
        <ele>11.39999961853</ele>
        <time>2021-09-23T10:21:33.224Z</time>
      </trkpt>
      <trkpt lat="47.57721" lon="-3.03058">
        <ele>10.19999980927</ele>
        <time>2021-09-23T10:21:42.627Z</time>
      </trkpt>
      <trkpt lat="47.57698" lon="-3.03039">
        <ele>10.19999980927</ele>
        <time>2021-09-23T10:21:52.038Z</time>
      </trkpt>
      <trkpt lat="47.57687" lon="-3.0303">
        <ele>10</ele>
        <time>2021-09-23T10:22:01.453Z</time>
      </trkpt>
      <trkpt lat="47.57676" lon="-3.03021">
        <ele>10</ele>
        <time>2021-09-23T10:22:10.872Z</time>
      </trkpt>
      <trkpt lat="47.57651" lon="-3.03001">
        <ele>9.80000019073</ele>
        <time>2021-09-23T10:22:20.299Z</time>
      </trkpt>
      <trkpt lat="47.57626" lon="-3.02972">
        <ele>10.60000038147</ele>
        <time>2021-09-23T10:22:29.735Z</time>
      </trkpt>
      <trkpt lat="47.57606" lon="-3.02944">
        <ele>11.80000019073</ele>
        <time>2021-09-23T10:22:39.180Z</time>
      </trkpt>
      <trkpt lat="47.57576" lon="-3.02897">
        <ele>10.60000038147</ele>
        <time>2021-09-23T10:22:48.638Z</time>
      </trkpt>
      <trkpt lat="47.57546" lon="-3.02854">
        <ele>9.80000019073</ele>
        <time>2021-09-23T10:22:58.108Z</time>
      </trkpt>
      <trkpt lat="47.57529" lon="-3.02827">
        <ele>10</ele>
        <time>2021-09-23T10:23:07.586Z</time>
      </trkpt>
      <trkpt lat="47.57509" lon="-3.02796">
        <ele>9.19999980927</ele>
        <time>2021-09-23T10:23:17.072Z</time>
      </trkpt>
      <trkpt lat="47.575" lon="-3.02783">
        <ele>9</ele>
        <time>2021-09-23T10:23:26.562Z</time>
      </trkpt>
      <trkpt lat="47.57495" lon="-3.02774">
        <ele>9</ele>
        <time>2021-09-23T10:23:36.055Z</time>
      </trkpt>
      <trkpt lat="47.57471" lon="-3.02778">
        <ele>9</ele>
        <time>2021-09-23T10:23:45.555Z</time>
      </trkpt>
      <trkpt lat="47.57466" lon="-3.02781">
        <ele>9</ele>
        <time>2021-09-23T10:23:55.056Z</time>
      </trkpt>
      <trkpt lat="47.57422" lon="-3.02771">
        <ele>7.80000019073</ele>
        <time>2021-09-23T10:24:04.571Z</time>
      </trkpt>
      <trkpt lat="47.57402" lon="-3.02765">
        <ele>7.40000009537</ele>
        <time>2021-09-23T10:24:14.092Z</time>
      </trkpt>
      <trkpt lat="47.57393" lon="-3.02763">
        <ele>7</ele>
        <time>2021-09-23T10:24:23.615Z</time>
      </trkpt>
      <trkpt lat="47.57367" lon="-3.0276">
        <ele>8</ele>
        <time>2021-09-23T10:24:33.146Z</time>
      </trkpt>
      <trkpt lat="47.57342" lon="-3.02751">
        <ele>8.80000019073</ele>
        <time>2021-09-23T10:24:42.685Z</time>
      </trkpt>
      <trkpt lat="47.57324" lon="-3.02744">
        <ele>9</ele>
        <time>2021-09-23T10:24:52.229Z</time>
      </trkpt>
      <trkpt lat="47.57307" lon="-3.02738">
        <ele>8.80000019073</ele>
        <time>2021-09-23T10:25:01.778Z</time>
      </trkpt>
      <trkpt lat="47.57305" lon="-3.02738">
        <ele>8.60000038147</ele>
        <time>2021-09-23T10:25:11.328Z</time>
      </trkpt>
      <trkpt lat="47.57262" lon="-3.02718">
        <ele>3.79999995232</ele>
        <time>2021-09-23T10:25:20.891Z</time>
      </trkpt>
      <trkpt lat="47.57254" lon="-3.02716">
        <ele>2.79999995232</ele>
        <time>2021-09-23T10:25:30.457Z</time>
      </trkpt>
      <trkpt lat="47.57252" lon="-3.02718">
        <ele>2.40000009537</ele>
        <time>2021-09-23T10:25:40.024Z</time>
      </trkpt>
      <trkpt lat="47.57246" lon="-3.02727">
        <ele>1.20000004768</ele>
        <time>2021-09-23T10:25:49.593Z</time>
      </trkpt>
      <trkpt lat="47.57247" lon="-3.02732">
        <ele>1</ele>
        <time>2021-09-23T10:25:59.163Z</time>
      </trkpt>
      <trkpt lat="47.57256" lon="-3.02751">
        <ele>1</ele>
        <time>2021-09-23T10:26:08.738Z</time>
      </trkpt>
      <trkpt lat="47.57273" lon="-3.02773">
        <ele>2.40000009537</ele>
        <time>2021-09-23T10:26:18.319Z</time>
      </trkpt>
      <trkpt lat="47.57287" lon="-3.02796">
        <ele>2.59999990463</ele>
        <time>2021-09-23T10:26:27.907Z</time>
      </trkpt>
      <trkpt lat="47.573" lon="-3.02819">
        <ele>3.20000004768</ele>
        <time>2021-09-23T10:26:37.501Z</time>
      </trkpt>
      <trkpt lat="47.57314" lon="-3.02849">
        <ele>3.20000004768</ele>
        <time>2021-09-23T10:26:47.102Z</time>
      </trkpt>
      <trkpt lat="47.57324" lon="-3.02882">
        <ele>3.59999990463</ele>
        <time>2021-09-23T10:26:56.710Z</time>
      </trkpt>
      <trkpt lat="47.57331" lon="-3.02929">
        <ele>4.19999980927</ele>
        <time>2021-09-23T10:27:06.328Z</time>
      </trkpt>
      <trkpt lat="47.57341" lon="-3.02985">
        <ele>1</ele>
        <time>2021-09-23T10:27:15.958Z</time>
      </trkpt>
      <trkpt lat="47.57344" lon="-3.0303">
        <ele>1.60000002384</ele>
        <time>2021-09-23T10:27:25.597Z</time>
      </trkpt>
      <trkpt lat="47.57343" lon="-3.03084">
        <ele>0.80000001192</ele>
        <time>2021-09-23T10:27:35.247Z</time>
      </trkpt>
      <trkpt lat="47.5734" lon="-3.03124">
        <ele>0.40000000596</ele>
        <time>2021-09-23T10:27:44.905Z</time>
      </trkpt>
      <trkpt lat="47.57337" lon="-3.03177">
        <ele>0.20000000298</ele>
        <time>2021-09-23T10:27:54.574Z</time>
      </trkpt>
      <trkpt lat="47.57332" lon="-3.03223">
        <ele>2</ele>
        <time>2021-09-23T10:28:04.252Z</time>
      </trkpt>
      <trkpt lat="47.57333" lon="-3.03261">
        <ele>2</ele>
        <time>2021-09-23T10:28:13.938Z</time>
      </trkpt>
      <trkpt lat="47.57335" lon="-3.03287">
        <ele>1.60000002384</ele>
        <time>2021-09-23T10:28:23.629Z</time>
      </trkpt>
      <trkpt lat="47.57337" lon="-3.03305">
        <ele>2.40000009537</ele>
        <time>2021-09-23T10:28:33.324Z</time>
      </trkpt>
      <trkpt lat="47.5734" lon="-3.03319">
        <ele>3</ele>
        <time>2021-09-23T10:28:43.022Z</time>
      </trkpt>
      <trkpt lat="47.57341" lon="-3.0332">
        <ele>3</ele>
        <time>2021-09-23T10:28:52.720Z</time>
      </trkpt>
      <trkpt lat="47.57342" lon="-3.03321">
        <ele>3</ele>
        <time>2021-09-23T10:29:02.418Z</time>
      </trkpt>
      <trkpt lat="47.57342" lon="-3.03321">
        <ele>3</ele>
        <time>2021-09-23T10:29:12.116Z</time>
      </trkpt>
      <trkpt lat="47.57344" lon="-3.03323">
        <ele>3</ele>
        <time>2021-09-23T10:29:21.815Z</time>
      </trkpt>
      <trkpt lat="47.57346" lon="-3.03325">
        <ele>3</ele>
        <time>2021-09-23T10:29:31.515Z</time>
      </trkpt>
      <trkpt lat="47.57347" lon="-3.03326">
        <ele>3</ele>
        <time>2021-09-23T10:29:41.215Z</time>
      </trkpt>
      <trkpt lat="47.57349" lon="-3.03326">
        <ele>3</ele>
        <time>2021-09-23T10:29:50.916Z</time>
      </trkpt>
      <trkpt lat="47.57349" lon="-3.03326">
        <ele>3</ele>
        <time>2021-09-23T10:30:00.617Z</time>
      </trkpt>
      <trkpt lat="47.57354" lon="-3.03328">
        <ele>3</ele>
        <time>2021-09-23T10:30:10.319Z</time>
      </trkpt>
      <trkpt lat="47.57361" lon="-3.03338">
        <ele>3</ele>
        <time>2021-09-23T10:30:20.024Z</time>
      </trkpt>
      <trkpt lat="47.57366" lon="-3.03343">
        <ele>3</ele>
        <time>2021-09-23T10:30:29.731Z</time>
      </trkpt>
      <trkpt lat="47.57367" lon="-3.03341">
        <ele>2.79999995232</ele>
        <time>2021-09-23T10:30:39.438Z</time>
      </trkpt>
      <trkpt lat="47.57366" lon="-3.03341">
        <ele>2.79999995232</ele>
        <time>2021-09-23T10:30:49.145Z</time>
      </trkpt>
      <trkpt lat="47.57366" lon="-3.03341">
        <ele>2.79999995232</ele>
        <time>2021-09-23T10:30:58.852Z</time>
      </trkpt>
      <trkpt lat="47.5737" lon="-3.03343">
        <ele>2.79999995232</ele>
        <time>2021-09-23T10:31:08.561Z</time>
      </trkpt>
      <trkpt lat="47.57387" lon="-3.03352">
        <ele>2.20000004768</ele>
        <time>2021-09-23T10:31:18.275Z</time>
      </trkpt>
      <trkpt lat="47.57403" lon="-3.0336">
        <ele>2.40000009537</ele>
        <time>2021-09-23T10:31:27.994Z</time>
      </trkpt>
      <trkpt lat="47.57417" lon="-3.03367">
        <ele>2</ele>
        <time>2021-09-23T10:31:37.718Z</time>
      </trkpt>
      <trkpt lat="47.57431" lon="-3.03373">
        <ele>1.60000002384</ele>
        <time>2021-09-23T10:31:47.446Z</time>
      </trkpt>
      <trkpt lat="47.57449" lon="-3.03375">
        <ele>1</ele>
        <time>2021-09-23T10:31:57.179Z</time>
      </trkpt>
      <trkpt lat="47.57472" lon="-3.03377">
        <ele>1</ele>
        <time>2021-09-23T10:32:06.919Z</time>
      </trkpt>
      <trkpt lat="47.57489" lon="-3.03379">
        <ele>1.60000002384</ele>
        <time>2021-09-23T10:32:16.664Z</time>
      </trkpt>
      <trkpt lat="47.57513" lon="-3.03381">
        <ele>2</ele>
        <time>2021-09-23T10:32:26.416Z</time>
      </trkpt>
      <trkpt lat="47.57516" lon="-3.03381">
        <ele>2</ele>
        <time>2021-09-23T10:32:36.169Z</time>
      </trkpt>
      <trkpt lat="47.57515" lon="-3.03392">
        <ele>2</ele>
        <time>2021-09-23T10:32:45.924Z</time>
      </trkpt>
      <trkpt lat="47.57512" lon="-3.03427">
        <ele>1.79999995232</ele>
        <time>2021-09-23T10:32:55.686Z</time>
      </trkpt>
      <trkpt lat="47.57509" lon="-3.03469">
        <ele>3.40000009537</ele>
        <time>2021-09-23T10:33:05.457Z</time>
      </trkpt>
      <trkpt lat="47.57507" lon="-3.03506">
        <ele>5.59999990463</ele>
        <time>2021-09-23T10:33:15.236Z</time>
      </trkpt>
      <trkpt lat="47.57505" lon="-3.03527">
        <ele>6.59999990463</ele>
        <time>2021-09-23T10:33:25.019Z</time>
      </trkpt>
      <trkpt lat="47.57504" lon="-3.03552">
        <ele>7.40000009537</ele>
        <time>2021-09-23T10:33:34.807Z</time>
      </trkpt>
      <trkpt lat="47.57502" lon="-3.03567">
        <ele>7.80000019073</ele>
        <time>2021-09-23T10:33:44.598Z</time>
      </trkpt>
      <trkpt lat="47.57502" lon="-3.03571">
        <ele>8</ele>
        <time>2021-09-23T10:33:54.390Z</time>
      </trkpt>
      <trkpt lat="47.57501" lon="-3.03581">
        <ele>7.19999980927</ele>
        <time>2021-09-23T10:34:04.184Z</time>
      </trkpt>
      <trkpt lat="47.575" lon="-3.03598">
        <ele>5.80000019073</ele>
        <time>2021-09-23T10:34:13.981Z</time>
      </trkpt>
      <trkpt lat="47.57499" lon="-3.03604">
        <ele>5.59999990463</ele>
        <time>2021-09-23T10:34:23.779Z</time>
      </trkpt>
      <trkpt lat="47.57526" lon="-3.03606">
        <ele>7.19999980927</ele>
        <time>2021-09-23T10:34:33.585Z</time>
      </trkpt>
      <trkpt lat="47.57541" lon="-3.03603">
        <ele>7.59999990463</ele>
        <time>2021-09-23T10:34:43.396Z</time>
      </trkpt>
      <trkpt lat="47.57547" lon="-3.03608">
        <ele>7.40000009537</ele>
        <time>2021-09-23T10:34:53.209Z</time>
      </trkpt>
      <trkpt lat="47.57548" lon="-3.03612">
        <ele>7.19999980927</ele>
        <time>2021-09-23T10:35:03.023Z</time>
      </trkpt>
      <trkpt lat="47.57554" lon="-3.03639">
        <ele>6.59999990463</ele>
        <time>2021-09-23T10:35:12.842Z</time>
      </trkpt>
      <trkpt lat="47.5756" lon="-3.03657">
        <ele>7</ele>
        <time>2021-09-23T10:35:22.665Z</time>
      </trkpt>
      <trkpt lat="47.57568" lon="-3.03675">
        <ele>7.59999990463</ele>
        <time>2021-09-23T10:35:32.493Z</time>
      </trkpt>
      <trkpt lat="47.57581" lon="-3.03692">
        <ele>8.80000019073</ele>
        <time>2021-09-23T10:35:42.326Z</time>
      </trkpt>
      <trkpt lat="47.57586" lon="-3.03702">
        <ele>9.80000019073</ele>
        <time>2021-09-23T10:35:52.161Z</time>
      </trkpt>
      <trkpt lat="47.57592" lon="-3.03701">
        <ele>9.80000019073</ele>
        <time>2021-09-23T10:36:01.998Z</time>
      </trkpt>
      <trkpt lat="47.57602" lon="-3.037">
        <ele>10</ele>
        <time>2021-09-23T10:36:11.838Z</time>
      </trkpt>
      <trkpt lat="47.57604" lon="-3.037">
        <ele>10</ele>
        <time>2021-09-23T10:36:21.679Z</time>
      </trkpt>
      <trkpt lat="47.57614" lon="-3.03698">
        <ele>10</ele>
        <time>2021-09-23T10:36:31.523Z</time>
      </trkpt>
      <trkpt lat="47.57617" lon="-3.03698">
        <ele>9.60000038147</ele>
        <time>2021-09-23T10:36:41.368Z</time>
      </trkpt>
      <trkpt lat="47.5762" lon="-3.03698">
        <ele>9</ele>
        <time>2021-09-23T10:36:51.214Z</time>
      </trkpt>
      <trkpt lat="47.57625" lon="-3.03697">
        <ele>8</ele>
        <time>2021-09-23T10:37:01.061Z</time>
      </trkpt>
      <trkpt lat="47.57647" lon="-3.03725">
        <ele>4.40000009537</ele>
        <time>2021-09-23T10:37:10.917Z</time>
      </trkpt>
      <trkpt lat="47.57657" lon="-3.03738">
        <ele>3.79999995232</ele>
        <time>2021-09-23T10:37:20.777Z</time>
      </trkpt>
      <trkpt lat="47.57676" lon="-3.03757">
        <ele>4.59999990463</ele>
        <time>2021-09-23T10:37:30.644Z</time>
      </trkpt>
      <trkpt lat="47.57694" lon="-3.03773">
        <ele>6</ele>
        <time>2021-09-23T10:37:40.517Z</time>
      </trkpt>
      <trkpt lat="47.57696" lon="-3.03777">
        <ele>6.40000009537</ele>
        <time>2021-09-23T10:37:50.391Z</time>
      </trkpt>
      <trkpt lat="47.57698" lon="-3.0379">
        <ele>7</ele>
        <time>2021-09-23T10:38:00.268Z</time>
      </trkpt>
      <trkpt lat="47.577" lon="-3.03806">
        <ele>7.80000019073</ele>
        <time>2021-09-23T10:38:10.148Z</time>
      </trkpt>
      <trkpt lat="47.57704" lon="-3.03799">
        <ele>8</ele>
        <time>2021-09-23T10:38:20.030Z</time>
      </trkpt>
      <trkpt lat="47.57722" lon="-3.03804">
        <ele>9.80000019073</ele>
        <time>2021-09-23T10:38:29.917Z</time>
      </trkpt>
      <trkpt lat="47.57741" lon="-3.03804">
        <ele>10.60000038147</ele>
        <time>2021-09-23T10:38:39.810Z</time>
      </trkpt>
      <trkpt lat="47.57759" lon="-3.03811">
        <ele>11</ele>
        <time>2021-09-23T10:38:49.709Z</time>
      </trkpt>
      <trkpt lat="47.57774" lon="-3.03814">
        <ele>11</ele>
        <time>2021-09-23T10:38:59.612Z</time>
      </trkpt>
      <trkpt lat="47.57787" lon="-3.03819">
        <ele>11</ele>
        <time>2021-09-23T10:39:09.519Z</time>
      </trkpt>
      <trkpt lat="47.57797" lon="-3.03822">
        <ele>11</ele>
        <time>2021-09-23T10:39:19.429Z</time>
      </trkpt>
      <trkpt lat="47.57815" lon="-3.03828">
        <ele>10.19999980927</ele>
        <time>2021-09-23T10:39:29.345Z</time>
      </trkpt>
      <trkpt lat="47.57819" lon="-3.03829">
        <ele>9.80000019073</ele>
        <time>2021-09-23T10:39:39.262Z</time>
      </trkpt>
      <trkpt lat="47.57827" lon="-3.03832">
        <ele>9.39999961853</ele>
        <time>2021-09-23T10:39:49.181Z</time>
      </trkpt>
      <trkpt lat="47.57842" lon="-3.03836">
        <ele>8.39999961853</ele>
        <time>2021-09-23T10:39:59.105Z</time>
      </trkpt>
      <trkpt lat="47.57853" lon="-3.03853">
        <ele>5</ele>
        <time>2021-09-23T10:40:09.033Z</time>
      </trkpt>
      <trkpt lat="47.57855" lon="-3.03857">
        <ele>3.59999990463</ele>
        <time>2021-09-23T10:40:18.962Z</time>
      </trkpt>
      <trkpt lat="47.57863" lon="-3.0388">
        <ele>7.5</ele>
        <time>2021-09-23T10:40:28.897Z</time>
      </trkpt>
      <trkpt lat="47.57869" lon="-3.03896">
        <ele>7.03</ele>
        <time>2021-09-23T10:40:38.835Z</time>
      </trkpt>
      <trkpt lat="47.57873" lon="-3.03907">
        <ele>6.71</ele>
        <time>2021-09-23T10:40:48.776Z</time>
      </trkpt>
      <trkpt lat="47.57875" lon="-3.03913">
        <ele>6.53</ele>
        <time>2021-09-23T10:40:58.718Z</time>
      </trkpt>
      <trkpt lat="47.57896" lon="-3.03973">
        <ele>2.1</ele>
        <time>2021-09-23T10:41:08.674Z</time>
      </trkpt>
      <trkpt lat="47.57914" lon="-3.04025">
        <ele>2.9</ele>
        <time>2021-09-23T10:41:18.642Z</time>
      </trkpt>
      <trkpt lat="47.57929" lon="-3.04083">
        <ele>1.9</ele>
        <time>2021-09-23T10:41:28.622Z</time>
      </trkpt>
      <trkpt lat="47.57938" lon="-3.04136">
        <ele>0.60000002384</ele>
        <time>2021-09-23T10:41:38.613Z</time>
      </trkpt>
      <trkpt lat="47.57938" lon="-3.04198">
        <ele>3.59999990463</ele>
        <time>2021-09-23T10:41:48.617Z</time>
      </trkpt>
      <trkpt lat="47.57938" lon="-3.04212">
        <ele>4.19999980927</ele>
        <time>2021-09-23T10:41:58.624Z</time>
      </trkpt>
      <trkpt lat="47.57935" lon="-3.04248">
        <ele>5.40000009537</ele>
        <time>2021-09-23T10:42:08.638Z</time>
      </trkpt>
      <trkpt lat="47.57919" lon="-3.04318">
        <ele>5</ele>
        <time>2021-09-23T10:42:18.667Z</time>
      </trkpt>
      <trkpt lat="47.57918" lon="-3.04325">
        <ele>4.80000019073</ele>
        <time>2021-09-23T10:42:28.697Z</time>
      </trkpt>
      <trkpt lat="47.5791" lon="-3.04358">
        <ele>3.59999990463</ele>
        <time>2021-09-23T10:42:38.734Z</time>
      </trkpt>
      <trkpt lat="47.57901" lon="-3.044">
        <ele>4.80000019073</ele>
        <time>2021-09-23T10:42:48.780Z</time>
      </trkpt>
      <trkpt lat="47.57898" lon="-3.04414">
        <ele>5.40000009537</ele>
        <time>2021-09-23T10:42:58.829Z</time>
      </trkpt>
      <trkpt lat="47.57897" lon="-3.04416">
        <ele>5.40000009537</ele>
        <time>2021-09-23T10:43:08.879Z</time>
      </trkpt>
      <trkpt lat="47.57897" lon="-3.04417">
        <ele>5.40000009537</ele>
        <time>2021-09-23T10:43:18.929Z</time>
      </trkpt>
      <trkpt lat="47.57907" lon="-3.04419">
        <ele>5.59999990463</ele>
        <time>2021-09-23T10:43:28.982Z</time>
      </trkpt>
      <trkpt lat="47.57911" lon="-3.04424">
        <ele>5.80000019073</ele>
        <time>2021-09-23T10:43:39.036Z</time>
      </trkpt>
      <trkpt lat="47.57914" lon="-3.04432">
        <ele>6</ele>
        <time>2021-09-23T10:43:49.092Z</time>
      </trkpt>
      <trkpt lat="47.57924" lon="-3.04472">
        <ele>7.80000019073</ele>
        <time>2021-09-23T10:43:59.157Z</time>
      </trkpt>
      <trkpt lat="47.57934" lon="-3.04499">
        <ele>7.80000019073</ele>
        <time>2021-09-23T10:44:09.228Z</time>
      </trkpt>
      <trkpt lat="47.57934" lon="-3.04499">
        <ele>7.80000019073</ele>
        <time>2021-09-23T10:44:19.299Z</time>
      </trkpt>
      <trkpt lat="47.57936" lon="-3.04551">
        <ele>7.40000009537</ele>
        <time>2021-09-23T10:44:29.381Z</time>
      </trkpt>
      <trkpt lat="47.57942" lon="-3.04583">
        <ele>7.40000009537</ele>
        <time>2021-09-23T10:44:39.469Z</time>
      </trkpt>
      <trkpt lat="47.57945" lon="-3.04618">
        <ele>7.80000019073</ele>
        <time>2021-09-23T10:44:49.564Z</time>
      </trkpt>
      <trkpt lat="47.57949" lon="-3.04663">
        <ele>9.19999980927</ele>
        <time>2021-09-23T10:44:59.669Z</time>
      </trkpt>
      <trkpt lat="47.57955" lon="-3.04705">
        <ele>8.19999980927</ele>
        <time>2021-09-23T10:45:09.782Z</time>
      </trkpt>
      <trkpt lat="47.57959" lon="-3.04728">
        <ele>6.40000009537</ele>
        <time>2021-09-23T10:45:19.900Z</time>
      </trkpt>
      <trkpt lat="47.5796" lon="-3.04732">
        <ele>6.19999980927</ele>
        <time>2021-09-23T10:45:30.019Z</time>
      </trkpt>
      <trkpt lat="47.5796" lon="-3.04733">
        <ele>6.19999980927</ele>
        <time>2021-09-23T10:45:40.138Z</time>
      </trkpt>
      <trkpt lat="47.5796" lon="-3.04741">
        <ele>5.80000019073</ele>
        <time>2021-09-23T10:45:50.259Z</time>
      </trkpt>
      <trkpt lat="47.57961" lon="-3.04763">
        <ele>4.19999980927</ele>
        <time>2021-09-23T10:46:00.384Z</time>
      </trkpt>
      <trkpt lat="47.57964" lon="-3.04797">
        <ele>3.79999995232</ele>
        <time>2021-09-23T10:46:10.516Z</time>
      </trkpt>
      <trkpt lat="47.57974" lon="-3.04825">
        <ele>3.20000004768</ele>
        <time>2021-09-23T10:46:20.654Z</time>
      </trkpt>
      <trkpt lat="47.57988" lon="-3.04856">
        <ele>4.80000019073</ele>
        <time>2021-09-23T10:46:30.800Z</time>
      </trkpt>
      <trkpt lat="47.57996" lon="-3.0488">
        <ele>4.19999980927</ele>
        <time>2021-09-23T10:46:40.951Z</time>
      </trkpt>
      <trkpt lat="47.58003" lon="-3.04902">
        <ele>4</ele>
        <time>2021-09-23T10:46:51.107Z</time>
      </trkpt>
      <trkpt lat="47.58005" lon="-3.04919">
        <ele>4</ele>
        <time>2021-09-23T10:47:01.267Z</time>
      </trkpt>
      <trkpt lat="47.58013" lon="-3.04943">
        <ele>3.59999990463</ele>
        <time>2021-09-23T10:47:11.432Z</time>
      </trkpt>
      <trkpt lat="47.58038" lon="-3.0497">
        <ele>3.59999990463</ele>
        <time>2021-09-23T10:47:21.606Z</time>
      </trkpt>
      <trkpt lat="47.58048" lon="-3.04976">
        <ele>4</ele>
        <time>2021-09-23T10:47:31.784Z</time>
      </trkpt>
      <trkpt lat="47.58053" lon="-3.04976">
        <ele>4</ele>
        <time>2021-09-23T10:47:41.963Z</time>
      </trkpt>
      <trkpt lat="47.58057" lon="-3.04975">
        <ele>4</ele>
        <time>2021-09-23T10:47:52.143Z</time>
      </trkpt>
      <trkpt lat="47.58075" lon="-3.04969">
        <ele>3.40000009537</ele>
        <time>2021-09-23T10:48:02.329Z</time>
      </trkpt>
      <trkpt lat="47.5809" lon="-3.04959">
        <ele>3</ele>
        <time>2021-09-23T10:48:12.520Z</time>
      </trkpt>
      <trkpt lat="47.58104" lon="-3.04962">
        <ele>3</ele>
        <time>2021-09-23T10:48:22.715Z</time>
      </trkpt>
      <trkpt lat="47.58107" lon="-3.0496">
        <ele>3</ele>
        <time>2021-09-23T10:48:32.911Z</time>
      </trkpt>
      <trkpt lat="47.58121" lon="-3.0496">
        <ele>3.20000004768</ele>
        <time>2021-09-23T10:48:43.111Z</time>
      </trkpt>
      <trkpt lat="47.58139" lon="-3.04967">
        <ele>4</ele>
        <time>2021-09-23T10:48:53.317Z</time>
      </trkpt>
      <trkpt lat="47.58157" lon="-3.04974">
        <ele>3.40000009537</ele>
        <time>2021-09-23T10:49:03.528Z</time>
      </trkpt>
      <trkpt lat="47.5817" lon="-3.04976">
        <ele>3</ele>
        <time>2021-09-23T10:49:13.743Z</time>
      </trkpt>
      <trkpt lat="47.58186" lon="-3.04986">
        <ele>2.40000009537</ele>
        <time>2021-09-23T10:49:23.963Z</time>
      </trkpt>
      <trkpt lat="47.58206" lon="-3.04999">
        <ele>2.79999995232</ele>
        <time>2021-09-23T10:49:34.190Z</time>
      </trkpt>
      <trkpt lat="47.58219" lon="-3.0501">
        <ele>3</ele>
        <time>2021-09-23T10:49:44.421Z</time>
      </trkpt>
      <trkpt lat="47.58236" lon="-3.05023">
        <ele>3.79999995232</ele>
        <time>2021-09-23T10:49:54.658Z</time>
      </trkpt>
      <trkpt lat="47.58248" lon="-3.05033">
        <ele>4.80000019073</ele>
        <time>2021-09-23T10:50:04.899Z</time>
      </trkpt>
      <trkpt lat="47.58264" lon="-3.05048">
        <ele>5</ele>
        <time>2021-09-23T10:50:15.146Z</time>
      </trkpt>
      <trkpt lat="47.58284" lon="-3.05064">
        <ele>4.80000019073</ele>
        <time>2021-09-23T10:50:25.399Z</time>
      </trkpt>
      <trkpt lat="47.58297" lon="-3.05072">
        <ele>4.40000009537</ele>
        <time>2021-09-23T10:50:35.657Z</time>
      </trkpt>
      <trkpt lat="47.58315" lon="-3.05086">
        <ele>3.40000009537</ele>
        <time>2021-09-23T10:50:45.921Z</time>
      </trkpt>
      <trkpt lat="47.58334" lon="-3.05101">
        <ele>3</ele>
        <time>2021-09-23T10:50:56.191Z</time>
      </trkpt>
      <trkpt lat="47.58351" lon="-3.05115">
        <ele>2.40000009537</ele>
        <time>2021-09-23T10:51:06.467Z</time>
      </trkpt>
      <trkpt lat="47.58374" lon="-3.05131">
        <ele>2</ele>
        <time>2021-09-23T10:51:16.750Z</time>
      </trkpt>
      <trkpt lat="47.5839" lon="-3.05141">
        <ele>2</ele>
        <time>2021-09-23T10:51:27.039Z</time>
      </trkpt>
      <trkpt lat="47.58408" lon="-3.05152">
        <ele>2</ele>
        <time>2021-09-23T10:51:37.333Z</time>
      </trkpt>
      <trkpt lat="47.58424" lon="-3.05166">
        <ele>2.40000009537</ele>
        <time>2021-09-23T10:51:47.633Z</time>
      </trkpt>
      <trkpt lat="47.58441" lon="-3.0518">
        <ele>3</ele>
        <time>2021-09-23T10:51:57.939Z</time>
      </trkpt>
      <trkpt lat="47.5846" lon="-3.05189">
        <ele>3.79999995232</ele>
        <time>2021-09-23T10:52:08.251Z</time>
      </trkpt>
      <trkpt lat="47.58482" lon="-3.05205">
        <ele>4</ele>
        <time>2021-09-23T10:52:18.570Z</time>
      </trkpt>
      <trkpt lat="47.585" lon="-3.05216">
        <ele>4</ele>
        <time>2021-09-23T10:52:28.895Z</time>
      </trkpt>
      <trkpt lat="47.58512" lon="-3.05226">
        <ele>4</ele>
        <time>2021-09-23T10:52:39.224Z</time>
      </trkpt>
      <trkpt lat="47.58528" lon="-3.05239">
        <ele>3</ele>
        <time>2021-09-23T10:52:49.558Z</time>
      </trkpt>
      <trkpt lat="47.58544" lon="-3.05249">
        <ele>3.59999990463</ele>
        <time>2021-09-23T10:52:59.898Z</time>
      </trkpt>
      <trkpt lat="47.5856" lon="-3.05262">
        <ele>3.20000004768</ele>
        <time>2021-09-23T10:53:10.243Z</time>
      </trkpt>
      <trkpt lat="47.58573" lon="-3.05271">
        <ele>3</ele>
        <time>2021-09-23T10:53:20.592Z</time>
      </trkpt>
      <trkpt lat="47.58585" lon="-3.05288">
        <ele>3</ele>
        <time>2021-09-23T10:53:30.946Z</time>
      </trkpt>
      <trkpt lat="47.58601" lon="-3.05321">
        <ele>2.40000009537</ele>
        <time>2021-09-23T10:53:41.308Z</time>
      </trkpt>
      <trkpt lat="47.58609" lon="-3.05346">
        <ele>2.79999995232</ele>
        <time>2021-09-23T10:53:51.676Z</time>
      </trkpt>
      <trkpt lat="47.58623" lon="-3.05381">
        <ele>2</ele>
        <time>2021-09-23T10:54:02.052Z</time>
      </trkpt>
      <trkpt lat="47.58634" lon="-3.054">
        <ele>2</ele>
        <time>2021-09-23T10:54:12.433Z</time>
      </trkpt>
      <trkpt lat="47.58638" lon="-3.05422">
        <ele>1.79999995232</ele>
        <time>2021-09-23T10:54:22.819Z</time>
      </trkpt>
      <trkpt lat="47.58639" lon="-3.0545">
        <ele>2.59999990463</ele>
        <time>2021-09-23T10:54:33.210Z</time>
      </trkpt>
      <trkpt lat="47.5864" lon="-3.05465">
        <ele>3.20000004768</ele>
        <time>2021-09-23T10:54:43.604Z</time>
      </trkpt>
      <trkpt lat="47.5863" lon="-3.05472">
        <ele>3</ele>
        <time>2021-09-23T10:54:54.002Z</time>
      </trkpt>
      <trkpt lat="47.58617" lon="-3.05478">
        <ele>2.79999995232</ele>
        <time>2021-09-23T10:55:04.404Z</time>
      </trkpt>
      <trkpt lat="47.58593" lon="-3.05476">
        <ele>2.59999990463</ele>
        <time>2021-09-23T10:55:14.813Z</time>
      </trkpt>
      <trkpt lat="47.58572" lon="-3.05487">
        <ele>3</ele>
        <time>2021-09-23T10:55:25.229Z</time>
      </trkpt>
      <trkpt lat="47.58566" lon="-3.05498">
        <ele>3.40000009537</ele>
        <time>2021-09-23T10:55:35.647Z</time>
      </trkpt>
      <trkpt lat="47.58564" lon="-3.05503">
        <ele>3.59999990463</ele>
        <time>2021-09-23T10:55:46.067Z</time>
      </trkpt>
      <trkpt lat="47.58557" lon="-3.05526">
        <ele>4</ele>
        <time>2021-09-23T10:55:56.492Z</time>
      </trkpt>
      <trkpt lat="47.58554" lon="-3.05533">
        <ele>4</ele>
        <time>2021-09-23T10:56:06.918Z</time>
      </trkpt>
      <trkpt lat="47.58554" lon="-3.05535">
        <ele>4</ele>
        <time>2021-09-23T10:56:17.345Z</time>
      </trkpt>
      <trkpt lat="47.58554" lon="-3.05536">
        <ele>4</ele>
        <time>2021-09-23T10:56:27.772Z</time>
      </trkpt>
      <trkpt lat="47.58553" lon="-3.05547">
        <ele>4</ele>
        <time>2021-09-23T10:56:38.201Z</time>
      </trkpt>
      <trkpt lat="47.58551" lon="-3.05563">
        <ele>4</ele>
        <time>2021-09-23T10:56:48.633Z</time>
      </trkpt>
      <trkpt lat="47.58535" lon="-3.05586">
        <ele>4.59999990463</ele>
        <time>2021-09-23T10:56:59.072Z</time>
      </trkpt>
      <trkpt lat="47.58523" lon="-3.05581">
        <ele>4.40000009537</ele>
        <time>2021-09-23T10:57:09.515Z</time>
      </trkpt>
      <trkpt lat="47.58499" lon="-3.05579">
        <ele>4.19999980927</ele>
        <time>2021-09-23T10:57:19.965Z</time>
      </trkpt>
      <trkpt lat="47.58471" lon="-3.05588">
        <ele>3.79999995232</ele>
        <time>2021-09-23T10:57:30.423Z</time>
      </trkpt>
      <trkpt lat="47.58457" lon="-3.05598">
        <ele>3.40000009537</ele>
        <time>2021-09-23T10:57:40.886Z</time>
      </trkpt>
      <trkpt lat="47.58454" lon="-3.05602">
        <ele>3.40000009537</ele>
        <time>2021-09-23T10:57:51.350Z</time>
      </trkpt>
      <trkpt lat="47.58429" lon="-3.05633">
        <ele>4</ele>
        <time>2021-09-23T10:58:01.824Z</time>
      </trkpt>
      <trkpt lat="47.58415" lon="-3.05651">
        <ele>4</ele>
        <time>2021-09-23T10:58:12.304Z</time>
      </trkpt>
      <trkpt lat="47.584" lon="-3.05663">
        <ele>4.40000009537</ele>
        <time>2021-09-23T10:58:22.789Z</time>
      </trkpt>
      <trkpt lat="47.58385" lon="-3.05668">
        <ele>4.40000009537</ele>
        <time>2021-09-23T10:58:33.278Z</time>
      </trkpt>
      <trkpt lat="47.58352" lon="-3.05677">
        <ele>5.40000009537</ele>
        <time>2021-09-23T10:58:43.777Z</time>
      </trkpt>
      <trkpt lat="47.58335" lon="-3.0568">
        <ele>6</ele>
        <time>2021-09-23T10:58:54.281Z</time>
      </trkpt>
      <trkpt lat="47.58311" lon="-3.05681">
        <ele>7.80000019073</ele>
        <time>2021-09-23T10:59:04.793Z</time>
      </trkpt>
      <trkpt lat="47.58291" lon="-3.05685">
        <ele>8</ele>
        <time>2021-09-23T10:59:15.310Z</time>
      </trkpt>
      <trkpt lat="47.58266" lon="-3.05693">
        <ele>7.80000019073</ele>
        <time>2021-09-23T10:59:25.835Z</time>
      </trkpt>
      <trkpt lat="47.58255" lon="-3.05696">
        <ele>7.59999990463</ele>
        <time>2021-09-23T10:59:36.363Z</time>
      </trkpt>
      <trkpt lat="47.58249" lon="-3.05699">
        <ele>7.80000019073</ele>
        <time>2021-09-23T10:59:46.893Z</time>
      </trkpt>
      <trkpt lat="47.58241" lon="-3.05708">
        <ele>8.39999961853</ele>
        <time>2021-09-23T10:59:57.426Z</time>
      </trkpt>
      <trkpt lat="47.58239" lon="-3.05711">
        <ele>8.60000038147</ele>
        <time>2021-09-23T11:00:07.960Z</time>
      </trkpt>
      <trkpt lat="47.58234" lon="-3.05717">
        <ele>8.80000019073</ele>
        <time>2021-09-23T11:00:18.496Z</time>
      </trkpt>
      <trkpt lat="47.58229" lon="-3.05724">
        <ele>9.39999961853</ele>
        <time>2021-09-23T11:00:29.034Z</time>
      </trkpt>
      <trkpt lat="47.58214" lon="-3.05745">
        <ele>10.60000038147</ele>
        <time>2021-09-23T11:00:39.578Z</time>
      </trkpt>
      <trkpt lat="47.58209" lon="-3.05751">
        <ele>11</ele>
        <time>2021-09-23T11:00:50.124Z</time>
      </trkpt>
      <trkpt lat="47.58207" lon="-3.05755">
        <ele>11.19999980927</ele>
        <time>2021-09-23T11:01:00.671Z</time>
      </trkpt>
      <trkpt lat="47.58201" lon="-3.05756">
        <ele>11.39999961853</ele>
        <time>2021-09-23T11:01:11.220Z</time>
      </trkpt>
      <trkpt lat="47.58191" lon="-3.05759">
        <ele>12.19999980927</ele>
        <time>2021-09-23T11:01:21.772Z</time>
      </trkpt>
      <trkpt lat="47.58178" lon="-3.05757">
        <ele>13</ele>
        <time>2021-09-23T11:01:32.328Z</time>
      </trkpt>
      <trkpt lat="47.58168" lon="-3.05755">
        <ele>13.60000038147</ele>
        <time>2021-09-23T11:01:42.887Z</time>
      </trkpt>
      <trkpt lat="47.58161" lon="-3.05754">
        <ele>13.80000019073</ele>
        <time>2021-09-23T11:01:53.448Z</time>
      </trkpt>
      <trkpt lat="47.58146" lon="-3.05751">
        <ele>14.60000038147</ele>
        <time>2021-09-23T11:02:04.013Z</time>
      </trkpt>
      <trkpt lat="47.58124" lon="-3.0575">
        <ele>15</ele>
        <time>2021-09-23T11:02:14.585Z</time>
      </trkpt>
      <trkpt lat="47.58119" lon="-3.0575">
        <ele>15</ele>
        <time>2021-09-23T11:02:25.159Z</time>
      </trkpt>
      <trkpt lat="47.58115" lon="-3.0575">
        <ele>15</ele>
        <time>2021-09-23T11:02:35.734Z</time>
      </trkpt>
      <trkpt lat="47.58119" lon="-3.05738">
        <ele>15</ele>
        <time>2021-09-23T11:02:46.312Z</time>
      </trkpt>
      <trkpt lat="47.5812" lon="-3.05721">
        <ele>15</ele>
        <time>2021-09-23T11:02:56.893Z</time>
      </trkpt>
      <trkpt lat="47.58124" lon="-3.05701">
        <ele>14.60000038147</ele>
        <time>2021-09-23T11:03:07.478Z</time>
      </trkpt>
      <trkpt lat="47.58129" lon="-3.05676">
        <ele>14</ele>
        <time>2021-09-23T11:03:18.069Z</time>
      </trkpt>
      <trkpt lat="47.58134" lon="-3.05656">
        <ele>12.39999961853</ele>
        <time>2021-09-23T11:03:28.664Z</time>
      </trkpt>
      <trkpt lat="47.58138" lon="-3.05646">
        <ele>11.60000038147</ele>
        <time>2021-09-23T11:03:39.261Z</time>
      </trkpt>
      <trkpt lat="47.58139" lon="-3.05643">
        <ele>11.19999980927</ele>
        <time>2021-09-23T11:03:49.859Z</time>
      </trkpt>
      <trkpt lat="47.58139" lon="-3.05639">
        <ele>11</ele>
        <time>2021-09-23T11:04:00.457Z</time>
      </trkpt>
      <trkpt lat="47.58138" lon="-3.05639">
        <ele>11</ele>
        <time>2021-09-23T11:04:11.056Z</time>
      </trkpt>
      <trkpt lat="47.58138" lon="-3.05639">
        <ele>11</ele>
        <time>2021-09-23T11:04:21.655Z</time>
      </trkpt>
      <trkpt lat="47.58138" lon="-3.05639">
        <ele>11</ele>
        <time>2021-09-23T11:04:32.254Z</time>
      </trkpt>
      <trkpt lat="47.58137" lon="-3.05639">
        <ele>11</ele>
        <time>2021-09-23T11:04:42.853Z</time>
      </trkpt>
      <trkpt lat="47.58137" lon="-3.05639">
        <ele>11</ele>
        <time>2021-09-23T11:04:53.452Z</time>
      </trkpt>
      <trkpt lat="47.58141" lon="-3.05634">
        <ele>10.60000038147</ele>
        <time>2021-09-23T11:05:04.053Z</time>
      </trkpt>
      <trkpt lat="47.58148" lon="-3.05625">
        <ele>9.60000038147</ele>
        <time>2021-09-23T11:05:14.656Z</time>
      </trkpt>
      <trkpt lat="47.58149" lon="-3.05624">
        <ele>9.60000038147</ele>
        <time>2021-09-23T11:05:25.260Z</time>
      </trkpt>
      <trkpt lat="47.58156" lon="-3.05617">
        <ele>9</ele>
        <time>2021-09-23T11:05:35.866Z</time>
      </trkpt>
      <trkpt lat="47.58161" lon="-3.05616">
        <ele>9</ele>
        <time>2021-09-23T11:05:46.474Z</time>
      </trkpt>
      <trkpt lat="47.58163" lon="-3.05617">
        <ele>8.80000019073</ele>
        <time>2021-09-23T11:05:57.083Z</time>
      </trkpt>
      <trkpt lat="47.58177" lon="-3.05595">
        <ele>7.59999990463</ele>
        <time>2021-09-23T11:06:07.698Z</time>
      </trkpt>
      <trkpt lat="47.58188" lon="-3.05571">
        <ele>6.40000009537</ele>
        <time>2021-09-23T11:06:18.319Z</time>
      </trkpt>
      <trkpt lat="47.58203" lon="-3.05564">
        <ele>6</ele>
        <time>2021-09-23T11:06:28.944Z</time>
      </trkpt>
      <trkpt lat="47.58209" lon="-3.05547">
        <ele>6</ele>
        <time>2021-09-23T11:06:39.573Z</time>
      </trkpt>
      <trkpt lat="47.58216" lon="-3.05499">
        <ele>6.59999990463</ele>
        <time>2021-09-23T11:06:50.212Z</time>
      </trkpt>
      <trkpt lat="47.58225" lon="-3.05481">
        <ele>7</ele>
        <time>2021-09-23T11:07:00.855Z</time>
      </trkpt>
      <trkpt lat="47.58234" lon="-3.05475">
        <ele>6.40000009537</ele>
        <time>2021-09-23T11:07:11.501Z</time>
      </trkpt>
      <trkpt lat="47.58236" lon="-3.05476">
        <ele>6.19999980927</ele>
        <time>2021-09-23T11:07:22.148Z</time>
      </trkpt>
      <trkpt lat="47.58256" lon="-3.05489">
        <ele>5.80000019073</ele>
        <time>2021-09-23T11:07:32.802Z</time>
      </trkpt>
      <trkpt lat="47.58259" lon="-3.05491">
        <ele>5.40000009537</ele>
        <time>2021-09-23T11:07:43.457Z</time>
      </trkpt>
      <trkpt lat="47.58265" lon="-3.05498">
        <ele>4.80000019073</ele>
        <time>2021-09-23T11:07:54.114Z</time>
      </trkpt>
      <trkpt lat="47.58265" lon="-3.05503">
        <ele>4.59999990463</ele>
        <time>2021-09-23T11:08:04.772Z</time>
      </trkpt>
      <trkpt lat="47.58263" lon="-3.05512">
        <ele>4.59999990463</ele>
        <time>2021-09-23T11:08:15.432Z</time>
      </trkpt>
      <trkpt lat="47.58263" lon="-3.05515">
        <ele>4.59999990463</ele>
        <time>2021-09-23T11:08:26.092Z</time>
      </trkpt>
      <trkpt lat="47.58265" lon="-3.05495">
        <ele>4.80000019073</ele>
        <time>2021-09-23T11:08:36.757Z</time>
      </trkpt>
    </trkseg>
  </trk>
</gpx>